| time (UTC) | temp C | wind direction | speed KPH | gust KPH | rain 1hr cm | rain 24hr cm | rain mn cm | humidity % | barometer mb |
| 20260510072716 | 21 | 157 | 8.0 | 12.9 | 0.00 | 0.08 | 0.00 | 81 | 1010.4 |
| 20260510072601 | 21 | 172 | 6.4 | 11.3 | 0.00 | 0.08 | 0.00 | 81 | 1010.4 |
| 20260510072507 | 21 | 153 | 4.8 | 12.9 | 0.00 | 0.08 | 0.00 | 81 | 1010.5 |
| 20260510072411 | 21 | 181 | 3.2 | 9.7 | 0.00 | 0.08 | 0.00 | 81 | 1010.4 |
| 20260510072255 | 21 | 156 | 4.8 | 9.7 | 0.00 | 0.08 | 0.00 | 81 | 1010.4 |
| 20260510072228 | 21 | 152 | 4.8 | 9.7 | 0.00 | 0.08 | 0.00 | 81 | 1010.5 |
| 20260510072139 | 21 | 162 | 4.8 | 9.7 | 0.00 | 0.08 | 0.00 | 81 | 1010.5 |
| 20260510072007 | 21 | 180 | 4.8 | 8.0 | 0.00 | 0.08 | 0.00 | 81 | 1010.5 |
| 20260510071912 | 21 | 187 | 4.8 | 12.9 | 0.00 | 0.08 | 0.00 | 81 | 1010.4 |
| 20260510071756 | 21 | 188 | 4.8 | 12.9 | 0.00 | 0.08 | 0.00 | 81 | 1010.4 |
| 20260510071728 | 21 | 187 | 4.8 | 12.9 | 0.00 | 0.08 | 0.00 | 81 | 1010.4 |
| 20260510071612 | 21 | 184 | 4.8 | 12.9 | 0.00 | 0.08 | 0.00 | 81 | 1010.5 |
| 20260510071501 | 21 | 145 | 4.8 | 12.9 | 0.00 | 0.08 | 0.00 | 81 | 1010.5 |
| 20260510071406 | 21 | 161 | 6.4 | 12.9 | 0.00 | 0.08 | 0.00 | 81 | 1010.4 |
| 20260510071338 | 21 | 161 | 6.4 | 12.9 | 0.00 | 0.08 | 0.00 | 81 | 1010.5 |
| 20260510071201 | 21 | 153 | 6.4 | 12.9 | 0.00 | 0.08 | 0.00 | 81 | 1010.5 |
| 20260510071105 | 21 | 165 | 6.4 | 12.9 | 0.00 | 0.08 | 0.00 | 81 | 1010.5 |
| 20260510071009 | 21 | 156 | 8.0 | 12.9 | 0.00 | 0.08 | 0.00 | 81 | 1010.4 |
| 20260510070858 | 21 | 168 | 4.8 | 11.3 | 0.00 | 0.08 | 0.00 | 81 | 1010.4 |
| 20260510070809 | 21 | 159 | 3.2 | 11.3 | 0.00 | 0.08 | 0.00 | 81 | 1010.4 |
| 20260510070715 | 21 | 182 | 1.6 | 9.7 | 0.00 | 0.08 | 0.00 | 81 | 1010.4 |
| 20260510070559 | 21 | 185 | 3.2 | 9.7 | 0.00 | 0.08 | 0.00 | 81 | 1010.3 |
| 20260510070504 | 21 | 185 | 4.8 | 9.7 | 0.00 | 0.08 | 0.00 | 81 | 1010.2 |
| 20260510070415 | 21 | 180 | 4.8 | 9.7 | 0.00 | 0.08 | 0.00 | 81 | 1010.3 |
| 20260510070304 | 21 | 177 | 4.8 | 9.7 | 0.00 | 0.08 | 0.00 | 81 | 1010.4 |
| 20260510070208 | 21 | 165 | 4.8 | 9.7 | 0.00 | 0.08 | 0.00 | 81 | 1010.3 |
| 20260510070112 | 21 | 196 | 4.8 | 9.7 | 0.00 | 0.08 | 0.00 | 80 | 1010.4 |
| 20260510065956 | 21 | 187 | 4.8 | 9.7 | 0.00 | 0.08 | 0.00 | 80 | 1010.4 |
| 20260510065907 | 21 | 163 | 4.8 | 11.3 | 0.00 | 0.08 | 0.00 | 80 | 1010.3 |
| 20260510065811 | 21 | 162 | 6.4 | 11.3 | 0.00 | 0.08 | 0.00 | 80 | 1010.3 |
| 20260510065721 | 21 | 161 | 4.8 | 11.3 | 0.00 | 0.08 | 0.00 | 80 | 1010.4 |
| 20260510065611 | 21 | 185 | 4.8 | 11.3 | 0.00 | 0.08 | 0.00 | 80 | 1010.3 |
| 20260510065515 | 21 | 172 | 3.2 | 11.3 | 0.00 | 0.08 | 0.00 | 80 | 1010.2 |
| 20260510065358 | 21 | 192 | 1.6 | 11.3 | 0.00 | 0.08 | 0.00 | 80 | 1010.2 |
| 20260510065306 | 21 | 189 | 3.2 | 11.3 | 0.00 | 0.08 | 0.00 | 80 | 1010.2 |
| 20260510065205 | 21 | 189 | 4.8 | 11.3 | 0.00 | 0.08 | 0.00 | 80 | 1010.2 |
| 20260510065121 | 21 | 178 | 4.8 | 11.3 | 0.00 | 0.08 | 0.00 | 80 | 1010.2 |
| 20260510065006 | 21 | 182 | 8.0 | 11.3 | 0.00 | 0.08 | 0.00 | 80 | 1010.3 |
| 20260510064911 | 21 | 182 | 6.4 | 11.3 | 0.00 | 0.08 | 0.00 | 79 | 1010.3 |
| 20260510064822 | 21 | 175 | 4.8 | 12.9 | 0.00 | 0.08 | 0.00 | 79 | 1010.3 |
| 20260510064706 | 21 | 177 | 4.8 | 12.9 | 0.00 | 0.08 | 0.00 | 79 | 1010.2 |
| 20260510064633 | 22 | 193 | 6.4 | 12.9 | 0.00 | 0.08 | 0.00 | 79 | 1010.2 |
| 20260510064500 | 22 | 152 | 4.8 | 12.9 | 0.00 | 0.08 | 0.00 | 79 | 1010.2 |
| 20260510064433 | 22 | 171 | 6.4 | 12.9 | 0.00 | 0.08 | 0.00 | 79 | 1010.2 |
| 20260510064256 | 22 | 169 | 8.0 | 12.9 | 0.00 | 0.08 | 0.00 | 79 | 1010.2 |
| 20260510064201 | 22 | 162 | 8.0 | 12.9 | 0.00 | 0.08 | 0.00 | 79 | 1010.2 |
| 20260510064133 | 22 | 169 | 6.4 | 11.3 | 0.00 | 0.08 | 0.00 | 79 | 1010.2 |
| 20260510064016 | 22 | 166 | 6.4 | 11.3 | 0.00 | 0.08 | 0.00 | 79 | 1010.2 |
| 20260510063905 | 22 | 159 | 6.4 | 11.3 | 0.00 | 0.08 | 0.00 | 79 | 1010.2 |
| 20260510063815 | 22 | 154 | 6.4 | 11.3 | 0.00 | 0.08 | 0.00 | 78 | 1010.3 |
| 20260510063700 | 22 | 159 | 4.8 | 11.3 | 0.00 | 0.08 | 0.00 | 78 | 1010.2 |
| 20260510063603 | 22 | 171 | 3.2 | 9.7 | 0.00 | 0.08 | 0.00 | 78 | 1010.3 |
| 20260510063514 | 22 | 185 | 3.2 | 9.7 | 0.00 | 0.08 | 0.00 | 78 | 1010.2 |
| 20260510063418 | 22 | 185 | 4.8 | 9.7 | 0.00 | 0.08 | 0.00 | 78 | 1010.2 |
| 20260510063306 | 22 | 185 | 4.8 | 9.7 | 0.00 | 0.08 | 0.00 | 78 | 1010.2 |
| 20260510063211 | 22 | 186 | 6.4 | 11.3 | 0.00 | 0.08 | 0.00 | 78 | 1010.2 |
| 20260510063056 | 22 | 159 | 4.8 | 11.3 | 0.00 | 0.08 | 0.00 | 78 | 1010.2 |
| 20260510063000 | 22 | 171 | 4.8 | 11.3 | 0.00 | 0.08 | 0.00 | 78 | 1010.2 |
| 20260510062912 | 22 | 176 | 6.4 | 11.3 | 0.00 | 0.08 | 0.00 | 78 | 1010.3 |
| 20260510062756 | 22 | 161 | 4.8 | 11.3 | 0.00 | 0.08 | 0.00 | 78 | 1010.2 |
| 20260510062726 | 22 | 161 | 4.8 | 11.3 | 0.00 | 0.08 | 0.00 | 78 | 1010.3 |
| 20260510062617 | 22 | 163 | 4.8 | 11.3 | 0.00 | 0.08 | 0.00 | 78 | 1010.3 |
| 20260510062501 | 22 | 148 | 6.4 | 11.3 | 0.00 | 0.08 | 0.00 | 78 | 1010.3 |
| 20260510062406 | 22 | 163 | 4.8 | 11.3 | 0.00 | 0.08 | 0.00 | 77 | 1010.3 |
| 20260510062311 | 22 | 180 | 4.8 | 12.9 | 0.00 | 0.08 | 0.00 | 77 | 1010.3 |
| 20260510062156 | 22 | 187 | 4.8 | 12.9 | 0.00 | 0.08 | 0.00 | 77 | 1010.4 |
| 20260510062112 | 22 | 184 | 6.4 | 12.9 | 0.00 | 0.08 | 0.00 | 77 | 1010.3 |
| 20260510061956 | 22 | 185 | 4.8 | 12.9 | 0.00 | 0.08 | 0.00 | 77 | 1010.3 |
| 20260510061901 | 22 | 179 | 4.8 | 12.9 | 0.00 | 0.08 | 0.00 | 77 | 1010.3 |
| 20260510061806 | 22 | 185 | 6.4 | 12.9 | 0.00 | 0.08 | 0.00 | 77 | 1010.3 |
| 20260510061711 | 22 | 146 | 6.4 | 12.9 | 0.00 | 0.08 | 0.00 | 77 | 1010.3 |
| 20260510061622 | 22 | 163 | 4.8 | 12.9 | 0.00 | 0.08 | 0.00 | 77 | 1010.3 |
| 20260510061516 | 22 | 143 | 4.8 | 12.9 | 0.00 | 0.08 | 0.00 | 77 | 1010.3 |
| 20260510061421 | 22 | 159 | 6.4 | 12.9 | 0.00 | 0.08 | 0.00 | 77 | 1010.3 |
| 20260510061306 | 22 | 136 | 6.4 | 12.9 | 0.00 | 0.08 | 0.00 | 77 | 1010.2 |
| 20260510061211 | 22 | 164 | 6.4 | 12.9 | 0.00 | 0.08 | 0.00 | 77 | 1010.2 |
| 20260510061122 | 22 | 161 | 6.4 | 12.9 | 0.00 | 0.08 | 0.00 | 77 | 1010.3 |
| 20260510061006 | 22 | 147 | 4.8 | 12.9 | 0.00 | 0.08 | 0.00 | 77 | 1010.2 |
| 20260510060915 | 22 | 174 | 4.8 | 12.9 | 0.00 | 0.08 | 0.00 | 77 | 1010.2 |
| 20260510060820 | 22 | 168 | 6.4 | 12.9 | 0.00 | 0.08 | 0.00 | 77 | 1010.2 |
| 20260510060732 | 22 | 148 | 6.4 | 12.9 | 0.00 | 0.08 | 0.00 | 77 | 1010.3 |
| 20260510060615 | 22 | 159 | 4.8 | 12.9 | 0.00 | 0.08 | 0.00 | 77 | 1010.3 |
| 20260510060500 | 22 | 145 | 4.8 | 12.9 | 0.00 | 0.08 | 0.00 | 77 | 1010.2 |
| 20260510060432 | 22 | 143 | 6.4 | 12.9 | 0.00 | 0.08 | 0.00 | 77 | 1010.3 |
| 20260510060316 | 22 | 137 | 6.4 | 12.9 | 0.00 | 0.08 | 0.00 | 77 | 1010.2 |
| 20260510060204 | 22 | 167 | 6.4 | 12.9 | 0.00 | 0.08 | 0.00 | 77 | 1010.3 |
| 20260510060137 | 22 | 159 | 6.4 | 12.9 | 0.00 | 0.08 | 0.00 | 77 | 1010.2 |
| 20260510060021 | 22 | 147 | 4.8 | 11.3 | 0.00 | 0.08 | 0.00 | 77 | 1010.2 |
| 20260510055912 | 22 | 175 | 3.2 | 9.7 | 0.00 | 0.08 | 0.00 | 77 | 1010.2 |
| 20260510055756 | 22 | 182 | 4.8 | 9.7 | 0.00 | 0.08 | 0.00 | 77 | 1010.1 |
| 20260510055701 | 22 | 182 | 4.8 | 9.7 | 0.00 | 0.08 | 0.00 | 77 | 1010.1 |
| 20260510055610 | 22 | 179 | 3.2 | 9.7 | 0.00 | 0.08 | 0.00 | 77 | 1010.0 |
| 20260510055521 | 22 | 187 | 3.2 | 9.7 | 0.00 | 0.08 | 0.00 | 77 | 1010.1 |
| 20260510055405 | 22 | 187 | 3.2 | 9.7 | 0.00 | 0.08 | 0.00 | 77 | 1010.0 |
| 20260510055310 | 22 | 187 | 4.8 | 9.7 | 0.00 | 0.08 | 0.00 | 76 | 1010.0 |
| 20260510055216 | 22 | 184 | 4.8 | 9.7 | 0.00 | 0.08 | 0.00 | 76 | 1010.1 |
| 20260510055121 | 22 | 190 | 4.8 | 9.7 | 0.00 | 0.08 | 0.00 | 76 | 1010.2 |
| 20260510054956 | 22 | 193 | 4.8 | 11.3 | 0.00 | 0.08 | 0.00 | 76 | 1010.1 |
| 20260510054901 | 22 | 188 | 3.2 | 11.3 | 0.00 | 0.08 | 0.00 | 76 | 1010.1 |
| 20260510054806 | 22 | 182 | 3.2 | 11.3 | 0.00 | 0.08 | 0.00 | 76 | 1010.1 |
| 20260510054738 | 22 | 182 | 6.4 | 11.3 | 0.00 | 0.08 | 0.00 | 76 | 1010.0 |
| 20260510054602 | 23 | 170 | 6.4 | 11.3 | 0.00 | 0.08 | 0.00 | 75 | 1010.0 |
| 20260510054505 | 23 | 168 | 6.4 | 11.3 | 0.00 | 0.08 | 0.00 | 75 | 1010.1 |
| 20260510054414 | 23 | 166 | 6.4 | 11.3 | 0.00 | 0.08 | 0.00 | 75 | 1010.1 |
| 20260510054325 | 23 | 160 | 4.8 | 11.3 | 0.00 | 0.08 | 0.00 | 75 | 1010.1 |
| 20260510054231 | 23 | 148 | 4.8 | 9.7 | 0.00 | 0.08 | 0.00 | 75 | 1010.1 |
| 20260510054121 | 23 | 169 | 4.8 | 9.7 | 0.00 | 0.08 | 0.00 | 75 | 1010.0 |
| 20260510054003 | 23 | 169 | 4.8 | 12.9 | 0.00 | 0.08 | 0.00 | 75 | 1010.1 |
| 20260510053914 | 23 | 170 | 4.8 | 12.9 | 0.00 | 0.08 | 0.00 | 74 | 1010.1 |
| 20260510053819 | 23 | 146 | 4.8 | 12.9 | 0.00 | 0.08 | 0.00 | 74 | 1010.2 |
| 20260510053731 | 23 | 160 | 4.8 | 12.9 | 0.00 | 0.08 | 0.00 | 74 | 1010.2 |
| 20260510053617 | 23 | 153 | 6.4 | 14.5 | 0.00 | 0.08 | 0.00 | 74 | 1010.1 |
| 20260510053502 | 23 | 151 | 6.4 | 14.5 | 0.00 | 0.08 | 0.00 | 74 | 1010.2 |
| 20260510053412 | 23 | 165 | 4.8 | 14.5 | 0.00 | 0.08 | 0.00 | 74 | 1010.2 |
| 20260510053317 | 23 | 157 | 4.8 | 14.5 | 0.00 | 0.08 | 0.00 | 74 | 1010.2 |
| 20260510053207 | 23 | 157 | 4.8 | 14.5 | 0.00 | 0.08 | 0.00 | 74 | 1010.2 |
| 20260510053112 | 23 | 161 | 4.8 | 14.5 | 0.00 | 0.08 | 0.00 | 74 | 1010.2 |
| 20260510053016 | 23 | 158 | 4.8 | 14.5 | 0.00 | 0.08 | 0.00 | 74 | 1010.3 |
| 20260510052904 | 23 | 157 | 6.4 | 14.5 | 0.00 | 0.08 | 0.00 | 73 | 1010.3 |
| 20260510052816 | 23 | 171 | 4.8 | 14.5 | 0.00 | 0.08 | 0.00 | 73 | 1010.3 |
| 20260510052659 | 23 | 155 | 4.8 | 14.5 | 0.00 | 0.08 | 0.00 | 73 | 1010.3 |
| 20260510052609 | 23 | 155 | 4.8 | 14.5 | 0.00 | 0.08 | 0.00 | 73 | 1010.3 |
| 20260510052513 | 23 | 153 | 6.4 | 14.5 | 0.00 | 0.08 | 0.00 | 73 | 1010.3 |
| 20260510052419 | 23 | 167 | 4.8 | 12.9 | 0.00 | 0.08 | 0.00 | 73 | 1010.3 |
| 20260510052309 | 23 | 140 | 4.8 | 14.5 | 0.00 | 0.08 | 0.00 | 73 | 1010.3 |
| 20260510052158 | 23 | 148 | 4.8 | 14.5 | 0.00 | 0.08 | 0.00 | 73 | 1010.3 |
| 20260510052102 | 23 | 147 | 6.4 | 14.5 | 0.00 | 0.08 | 0.00 | 73 | 1010.4 |
| 20260510052014 | 23 | 166 | 6.4 | 14.5 | 0.00 | 0.08 | 0.00 | 73 | 1010.4 |
| 20260510051917 | 23 | 148 | 4.8 | 14.5 | 0.00 | 0.08 | 0.00 | 73 | 1010.3 |
| 20260510051800 | 23 | 136 | 3.2 | 14.5 | 0.00 | 0.08 | 0.00 | 73 | 1010.3 |
| 20260510051732 | 23 | 150 | 4.8 | 14.5 | 0.00 | 0.08 | 0.00 | 73 | 1010.3 |
| 20260510051600 | 23 | 188 | 6.4 | 14.5 | 0.00 | 0.08 | 0.00 | 73 | 1010.3 |
| 20260510051505 | 23 | 147 | 6.4 | 14.5 | 0.00 | 0.08 | 0.00 | 73 | 1010.2 |
| 20260510051436 | 23 | 140 | 4.8 | 12.9 | 0.00 | 0.08 | 0.00 | 73 | 1010.2 |
| 20260510051319 | 23 | 148 | 4.8 | 11.3 | 0.00 | 0.08 | 0.00 | 73 | 1010.2 |
| 20260510051202 | 23 | 148 | 4.8 | 11.3 | 0.00 | 0.08 | 0.00 | 73 | 1010.2 |
| 20260510051134 | 23 | 150 | 4.8 | 12.9 | 0.00 | 0.08 | 0.00 | 73 | 1010.1 |
| 20260510050958 | 23 | 140 | 3.2 | 12.9 | 0.00 | 0.08 | 0.00 | 73 | 1010.1 |
| 20260510050914 | 23 | 138 | 4.8 | 12.9 | 0.00 | 0.08 | 0.00 | 73 | 1010.2 |
| 20260510050817 | 23 | 149 | 6.4 | 12.9 | 0.00 | 0.08 | 0.00 | 73 | 1010.2 |
| 20260510050702 | 24 | 164 | 6.4 | 12.9 | 0.00 | 0.08 | 0.00 | 73 | 1010.1 |
| 20260510050607 | 24 | 160 | 4.8 | 12.9 | 0.00 | 0.08 | 0.08 | 73 | 1010.1 |
| 20260510050511 | 24 | 132 | 6.4 | 12.9 | 0.00 | 0.08 | 0.08 | 73 | 1010.1 |
| 20260510050356 | 24 | 136 | 6.4 | 12.9 | 0.00 | 0.08 | 0.08 | 73 | 1010.1 |
| 20260510050311 | 24 | 151 | 4.8 | 12.9 | 0.00 | 0.08 | 0.08 | 73 | 1010.2 |
| 20260510050217 | 24 | 161 | 6.4 | 12.9 | 0.00 | 0.08 | 0.08 | 73 | 1010.1 |
| 20260510050100 | 24 | 157 | 4.8 | 12.9 | 0.00 | 0.08 | 0.08 | 73 | 1010.1 |
| 20260510050005 | 24 | 160 | 4.8 | 11.3 | 0.00 | 0.08 | 0.08 | 73 | 1010.2 |
| 20260510045917 | 24 | 150 | 4.8 | 11.3 | 0.00 | 0.08 | 0.08 | 74 | 1010.0 |
| 20260510045805 | 24 | 143 | 4.8 | 11.3 | 0.00 | 0.08 | 0.08 | 74 | 1010.1 |
| 20260510045709 | 24 | 159 | 4.8 | 11.3 | 0.00 | 0.08 | 0.08 | 74 | 1010.2 |
| 20260510045615 | 24 | 146 | 4.8 | 11.3 | 0.00 | 0.08 | 0.08 | 74 | 1010.2 |
| 20260510045459 | 24 | 130 | 4.8 | 11.3 | 0.00 | 0.08 | 0.08 | 74 | 1010.1 |
| 20260510045403 | 24 | 163 | 6.4 | 11.3 | 0.00 | 0.08 | 0.08 | 74 | 1010.1 |
| 20260510045314 | 24 | 165 | 4.8 | 11.3 | 0.00 | 0.08 | 0.08 | 75 | 1010.1 |
| 20260510045202 | 24 | 157 | 4.8 | 11.3 | 0.00 | 0.08 | 0.08 | 75 | 1010.1 |
| 20260510045107 | 24 | 169 | 6.4 | 11.3 | 0.00 | 0.08 | 0.08 | 75 | 1010.1 |
| 20260510045018 | 24 | 147 | 6.4 | 11.3 | 0.00 | 0.08 | 0.08 | 75 | 1010.0 |
| 20260510044922 | 24 | 146 | 4.8 | 11.3 | 0.00 | 0.08 | 0.08 | 75 | 1010.1 |
| 20260510044833 | 24 | 146 | 4.8 | 11.3 | 0.00 | 0.08 | 0.08 | 75 | 1010.0 |
| 20260510044656 | 23 | 132 | 6.4 | 11.3 | 0.00 | 0.08 | 0.08 | 75 | 1010.1 |
| 20260510044628 | 23 | 153 | 6.4 | 11.3 | 0.00 | 0.08 | 0.08 | 75 | 1010.0 |
| 20260510044456 | 23 | 160 | 6.4 | 11.3 | 0.00 | 0.08 | 0.08 | 75 | 1010.1 |
| 20260510044358 | 23 | 144 | 4.8 | 11.3 | 0.00 | 0.08 | 0.08 | 75 | 1010.1 |
| 20260510044303 | 23 | 144 | 4.8 | 11.3 | 0.00 | 0.08 | 0.08 | 75 | 1010.1 |
| 20260510044214 | 23 | 172 | 4.8 | 11.3 | 0.00 | 0.08 | 0.08 | 75 | 1010.1 |
| 20260510044059 | 23 | 155 | 4.8 | 11.3 | 0.00 | 0.08 | 0.08 | 75 | 1010.1 |
| 20260510044004 | 23 | 155 | 4.8 | 11.3 | 0.00 | 0.08 | 0.08 | 75 | 1010.1 |
| 20260510043913 | 23 | 155 | 4.8 | 11.3 | 0.00 | 0.08 | 0.08 | 75 | 1010.2 |
| 20260510043758 | 23 | 163 | 4.8 | 11.3 | 0.00 | 0.08 | 0.08 | 75 | 1010.1 |
| 20260510043710 | 23 | 163 | 4.8 | 11.3 | 0.00 | 0.08 | 0.08 | 75 | 1010.1 |
| 20260510043615 | 24 | 163 | 4.8 | 11.3 | 0.00 | 0.08 | 0.08 | 75 | 1010.1 |
| 20260510043459 | 23 | 137 | 6.4 | 11.3 | 0.00 | 0.08 | 0.08 | 75 | 1010.0 |
| 20260510043431 | 23 | 163 | 4.8 | 11.3 | 0.00 | 0.08 | 0.08 | 75 | 1010.1 |
| 20260510043320 | 24 | 160 | 3.2 | 8.0 | 0.00 | 0.08 | 0.08 | 75 | 1010.1 |
| 20260510043204 | 24 | 159 | 3.2 | 8.0 | 0.00 | 0.08 | 0.08 | 75 | 1010.1 |
| 20260510043115 | 24 | 163 | 3.2 | 6.4 | 0.00 | 0.08 | 0.08 | 75 | 1010.1 |
| 20260510043021 | 24 | 186 | 4.8 | 6.4 | 0.00 | 0.08 | 0.08 | 75 | 1010.1 |
| 20260510042905 | 24 | 190 | 3.2 | 8.0 | 0.00 | 0.08 | 0.08 | 75 | 1010.1 |
| 20260510042810 | 24 | 190 | 3.2 | 8.0 | 0.00 | 0.08 | 0.08 | 75 | 1010.0 |
| 20260510042657 | 24 | 190 | 3.2 | 8.0 | 0.00 | 0.08 | 0.08 | 75 | 1010.0 |
| 20260510042609 | 24 | 190 | 4.8 | 8.0 | 0.00 | 0.08 | 0.08 | 75 | 1010.0 |
| 20260510042514 | 24 | 183 | 4.8 | 8.0 | 0.00 | 0.08 | 0.08 | 75 | 1010.1 |
| 20260510042358 | 24 | 186 | 4.8 | 8.0 | 0.00 | 0.08 | 0.08 | 75 | 1010.0 |
| 20260510042306 | 24 | 186 | 3.2 | 8.0 | 0.00 | 0.08 | 0.08 | 75 | 1010.0 |
| 20260510042215 | 24 | 182 | 3.2 | 8.0 | 0.00 | 0.08 | 0.08 | 75 | 1010.0 |
| 20260510042104 | 24 | 184 | 4.8 | 8.0 | 0.00 | 0.08 | 0.08 | 75 | 1010.0 |
| 20260510042030 | 24 | 175 | 4.8 | 9.7 | 0.00 | 0.08 | 0.08 | 75 | 1010.0 |
| 20260510041920 | 24 | 180 | 3.2 | 8.0 | 0.00 | 0.08 | 0.08 | 75 | 1010.0 |
| 20260510041804 | 24 | 194 | 3.2 | 6.4 | 0.00 | 0.08 | 0.08 | 75 | 1010.0 |
| 20260510041709 | 24 | 176 | 3.2 | 6.4 | 0.00 | 0.08 | 0.08 | 75 | 1010.0 |
| 20260510041642 | 24 | 176 | 1.6 | 6.4 | 0.00 | 0.08 | 0.08 | 75 | 1010.0 |
| 20260510041509 | 24 | 176 | 3.2 | 6.4 | 0.00 | 0.08 | 0.08 | 75 | 1010.1 |
| 20260510041415 | 24 | 175 | 3.2 | 6.4 | 0.00 | 0.08 | 0.08 | 75 | 1010.0 |
| 20260510041259 | 24 | 176 | 3.2 | 6.4 | 0.00 | 0.08 | 0.08 | 75 | 1010.1 |
| 20260510041204 | 24 | 178 | 3.2 | 6.4 | 0.00 | 0.08 | 0.08 | 75 | 1010.0 |
| 20260510041108 | 24 | 178 | 4.8 | 6.4 | 0.00 | 0.08 | 0.08 | 75 | 1010.0 |
| 20260510041020 | 24 | 177 | 4.8 | 8.0 | 0.00 | 0.08 | 0.08 | 75 | 1010.0 |
| 20260510040930 | 24 | 169 | 4.8 | 8.0 | 0.00 | 0.08 | 0.08 | 75 | 1010.0 |
| 20260510040821 | 24 | 171 | 3.2 | 8.0 | 0.00 | 0.08 | 0.08 | 75 | 1010.0 |
| 20260510040725 | 24 | 165 | 3.2 | 6.4 | 0.00 | 0.08 | 0.08 | 75 | 1010.0 |
| 20260510040609 | 24 | 164 | 3.2 | 6.4 | 0.00 | 0.08 | 0.08 | 75 | 1010.0 |
| 20260510040514 | 24 | 172 | 4.8 | 9.7 | 0.00 | 0.08 | 0.08 | 76 | 1010.0 |
| 20260510040358 | 24 | 172 | 4.8 | 9.7 | 0.00 | 0.08 | 0.08 | 76 | 1009.9 |
| 20260510040313 | 24 | 172 | 4.8 | 9.7 | 0.00 | 0.08 | 0.08 | 76 | 1010.0 |
| 20260510040217 | 24 | 163 | 4.8 | 9.7 | 0.00 | 0.08 | 0.08 | 76 | 1009.9 |
| 20260510040128 | 24 | 165 | 3.2 | 9.7 | 0.00 | 0.08 | 0.08 | 76 | 1010.0 |
| 20260510040012 | 24 | 165 | 3.2 | 9.7 | 0.00 | 0.08 | 0.08 | 76 | 1009.9 |
| 20260510035856 | 24 | 165 | 3.2 | 9.7 | 0.00 | 0.08 | 0.08 | 76 | 1009.9 |
| 20260510035801 | 24 | 155 | 4.8 | 9.7 | 0.00 | 0.08 | 0.08 | 76 | 1009.9 |
| 20260510035712 | 24 | 158 | 4.8 | 9.7 | 0.00 | 0.08 | 0.08 | 76 | 1009.9 |
| 20260510035622 | 24 | 162 | 3.2 | 9.7 | 0.00 | 0.08 | 0.08 | 76 | 1009.9 |
| 20260510035532 | 24 | 198 | 3.2 | 9.7 | 0.00 | 0.08 | 0.08 | 76 | 1009.9 |
| 20260510035356 | 24 | 198 | 4.8 | 9.7 | 0.00 | 0.08 | 0.08 | 76 | 1009.9 |
| 20260510035301 | 24 | 186 | 4.8 | 8.0 | 0.00 | 0.08 | 0.08 | 76 | 1009.8 |
| 20260510035233 | 24 | 186 | 4.8 | 8.0 | 0.00 | 0.08 | 0.08 | 76 | 1009.9 |
| 20260510035117 | 25 | 171 | 6.4 | 8.0 | 0.00 | 0.08 | 0.08 | 76 | 1009.8 |
| 20260510035007 | 24 | 171 | 6.4 | 8.0 | 0.00 | 0.08 | 0.08 | 76 | 1009.8 |
| 20260510034916 | 25 | 175 | 4.8 | 9.7 | 0.00 | 0.08 | 0.08 | 76 | 1009.9 |
| 20260510034821 | 25 | 184 | 3.2 | 6.4 | 0.00 | 0.08 | 0.08 | 76 | 1009.8 |
| 20260510034711 | 25 | 184 | 3.2 | 8.0 | 0.00 | 0.08 | 0.08 | 76 | 1009.9 |
| 20260510034616 | 25 | 184 | 3.2 | 8.0 | 0.00 | 0.08 | 0.08 | 76 | 1009.8 |
| 20260510034459 | 25 | 183 | 3.2 | 8.0 | 0.00 | 0.08 | 0.08 | 76 | 1009.8 |
| 20260510034404 | 25 | 184 | 3.2 | 8.0 | 0.00 | 0.08 | 0.08 | 76 | 1009.8 |
| 20260510034319 | 25 | 184 | 3.2 | 8.0 | 0.00 | 0.08 | 0.08 | 76 | 1009.8 |
| 20260510034205 | 25 | 186 | 1.6 | 8.0 | 0.00 | 0.08 | 0.08 | 76 | 1009.7 |
| 20260510034109 | 25 | 186 | 1.6 | 8.0 | 0.00 | 0.08 | 0.08 | 75 | 1009.8 |
| 20260510034015 | 25 | 186 | 3.2 | 8.0 | 0.00 | 0.08 | 0.08 | 76 | 1009.9 |
| 20260510033859 | 25 | 186 | 3.2 | 8.0 | 0.00 | 0.08 | 0.08 | 75 | 1009.7 |
| 20260510033804 | 25 | 190 | 3.2 | 6.4 | 0.00 | 0.08 | 0.08 | 75 | 1009.7 |
| 20260510033720 | 25 | 190 | 3.2 | 6.4 | 0.00 | 0.08 | 0.08 | 75 | 1009.8 |
| 20260510033604 | 25 | 190 | 4.8 | 11.3 | 0.00 | 0.08 | 0.08 | 75 | 1009.7 |
| 20260510033507 | 25 | 186 | 4.8 | 11.3 | 0.00 | 0.08 | 0.08 | 75 | 1009.7 |
| 20260510033418 | 25 | 185 | 3.2 | 11.3 | 0.00 | 0.08 | 0.08 | 75 | 1009.8 |
| 20260510033300 | 25 | 161 | 3.2 | 11.3 | 0.00 | 0.08 | 0.08 | 74 | 1009.8 |
| 20260510033204 | 25 | 161 | 4.8 | 11.3 | 0.00 | 0.08 | 0.08 | 74 | 1009.8 |
| 20260510033119 | 25 | 159 | 4.8 | 11.3 | 0.00 | 0.08 | 0.08 | 74 | 1009.8 |
| 20260510033002 | 25 | 148 | 4.8 | 11.3 | 0.00 | 0.08 | 0.08 | 74 | 1009.8 |
| 20260510032905 | 25 | 158 | 4.8 | 11.3 | 0.00 | 0.08 | 0.08 | 74 | 1009.8 |
| 20260510032817 | 25 | 158 | 6.4 | 11.3 | 0.00 | 0.08 | 0.08 | 74 | 1009.7 |
| 20260510032722 | 25 | 154 | 4.8 | 8.0 | 0.00 | 0.08 | 0.08 | 75 | 1009.7 |
| 20260510032606 | 25 | 149 | 4.8 | 8.0 | 0.00 | 0.08 | 0.08 | 75 | 1009.7 |
| 20260510032517 | 25 | 167 | 3.2 | 8.0 | 0.00 | 0.08 | 0.08 | 75 | 1009.7 |
| 20260510032405 | 25 | 157 | 3.2 | 8.0 | 0.00 | 0.08 | 0.08 | 76 | 1009.7 |
| 20260510032310 | 25 | 163 | 1.6 | 9.7 | 0.00 | 0.08 | 0.08 | 76 | 1009.7 |
| 20260510032215 | 25 | 163 | 3.2 | 9.7 | 0.00 | 0.08 | 0.08 | 76 | 1009.7 |
| 20260510032127 | 25 | 162 | 4.8 | 9.7 | 0.00 | 0.08 | 0.08 | 76 | 1009.6 |
| 20260510032011 | 25 | 162 | 4.8 | 9.7 | 0.00 | 0.08 | 0.08 | 76 | 1009.7 |
| 20260510031922 | 25 | 162 | 4.8 | 9.7 | 0.00 | 0.08 | 0.08 | 76 | 1009.6 |
| 20260510031809 | 25 | 159 | 3.2 | 9.7 | 0.00 | 0.08 | 0.08 | 76 | 1009.6 |
| 20260510031714 | 25 | 159 | 4.8 | 9.7 | 0.00 | 0.08 | 0.08 | 76 | 1009.6 |
| 20260510031558 | 25 | 163 | 3.2 | 9.7 | 0.00 | 0.08 | 0.08 | 76 | 1009.6 |
| 20260510031504 | 25 | 171 | 3.2 | 6.4 | 0.00 | 0.08 | 0.08 | 76 | 1009.6 |
| 20260510031409 | 25 | 152 | 3.2 | 6.4 | 0.00 | 0.08 | 0.08 | 76 | 1009.6 |
| 20260510031320 | 25 | 182 | 3.2 | 6.4 | 0.00 | 0.08 | 0.08 | 75 | 1009.6 |
| 20260510031207 | 25 | 182 | 3.2 | 6.4 | 0.00 | 0.08 | 0.08 | 75 | 1009.6 |
| 20260510031112 | 25 | 182 | 3.2 | 6.4 | 0.00 | 0.08 | 0.08 | 75 | 1009.6 |
| 20260510031024 | 25 | 182 | 4.8 | 6.4 | 0.00 | 0.08 | 0.08 | 75 | 1009.5 |
| 20260510030909 | 25 | 180 | 3.2 | 6.4 | 0.00 | 0.08 | 0.08 | 75 | 1009.6 |
| 20260510030814 | 25 | 182 | 3.2 | 6.4 | 0.00 | 0.08 | 0.08 | 75 | 1009.6 |
| 20260510030659 | 25 | 184 | 1.6 | 6.4 | 0.00 | 0.08 | 0.08 | 75 | 1009.5 |
| 20260510030613 | 25 | 184 | 1.6 | 8.0 | 0.00 | 0.08 | 0.08 | 75 | 1009.5 |
| 20260510030519 | 25 | 184 | 1.6 | 8.0 | 0.00 | 0.08 | 0.08 | 75 | 1009.6 |
| 20260510030431 | 25 | 184 | 3.2 | 8.0 | 0.00 | 0.08 | 0.08 | 75 | 1009.5 |
| 20260510030315 | 25 | 184 | 3.2 | 8.0 | 0.00 | 0.08 | 0.08 | 74 | 1009.5 |
| 20260510030159 | 25 | 152 | 3.2 | 14.5 | 0.00 | 0.08 | 0.08 | 74 | 1009.5 |
| 20260510030110 | 25 | 152 | 3.2 | 14.5 | 0.00 | 0.08 | 0.08 | 74 | 1009.5 |
| 20260510025959 | 25 | 152 | 3.2 | 14.5 | 0.00 | 0.08 | 0.08 | 74 | 1009.5 |
| 20260510025904 | 25 | 151 | 4.8 | 14.5 | 0.00 | 0.08 | 0.08 | 74 | 1009.4 |
| 20260510025809 | 25 | 169 | 4.8 | 14.5 | 0.00 | 0.08 | 0.08 | 74 | 1009.4 |
| 20260510025721 | 25 | 187 | 4.8 | 14.5 | 0.00 | 0.08 | 0.08 | 74 | 1009.3 |
| 20260510025625 | 25 | 169 | 3.2 | 14.5 | 0.00 | 0.08 | 0.08 | 74 | 1009.4 |
| 20260510025536 | 25 | 144 | 4.8 | 14.5 | 0.00 | 0.08 | 0.08 | 74 | 1009.3 |
| 20260510025400 | 25 | 145 | 4.8 | 14.5 | 0.00 | 0.08 | 0.08 | 74 | 1009.3 |
| 20260510025307 | 25 | 136 | 4.8 | 14.5 | 0.00 | 0.08 | 0.08 | 74 | 1009.2 |
| 20260510025212 | 25 | 141 | 4.8 | 12.9 | 0.00 | 0.08 | 0.08 | 74 | 1009.2 |
| 20260510025056 | 25 | 139 | 4.8 | 12.9 | 0.00 | 0.08 | 0.08 | 74 | 1009.2 |
| 20260510025001 | 25 | 144 | 4.8 | 12.9 | 0.00 | 0.08 | 0.08 | 74 | 1009.3 |
| 20260510024933 | 25 | 144 | 4.8 | 12.9 | 0.00 | 0.08 | 0.08 | 74 | 1009.2 |
| 20260510024757 | 26 | 140 | 4.8 | 11.3 | 0.00 | 0.08 | 0.08 | 74 | 1009.2 |
| 20260510024706 | 26 | 144 | 3.2 | 12.9 | 0.00 | 0.08 | 0.08 | 74 | 1009.2 |
| 20260510024617 | 26 | 145 | 3.2 | 12.9 | 0.00 | 0.08 | 0.08 | 74 | 1009.3 |
| 20260510024521 | 26 | 145 | 3.2 | 12.9 | 0.00 | 0.08 | 0.08 | 74 | 1009.2 |
| 20260510024405 | 26 | 156 | 3.2 | 12.9 | 0.00 | 0.08 | 0.08 | 74 | 1009.1 |
| 20260510024317 | 26 | 163 | 4.8 | 12.9 | 0.00 | 0.08 | 0.08 | 74 | 1009.1 |
| 20260510024200 | 26 | 140 | 4.8 | 12.9 | 0.00 | 0.08 | 0.08 | 74 | 1009.1 |
| 20260510024109 | 26 | 161 | 6.4 | 12.9 | 0.00 | 0.08 | 0.08 | 74 | 1009.0 |
| 20260510024012 | 26 | 161 | 6.4 | 12.9 | 0.00 | 0.08 | 0.08 | 74 | 1009.1 |
| 20260510023924 | 26 | 145 | 6.4 | 12.9 | 0.00 | 0.08 | 0.08 | 74 | 1009.1 |
| 20260510023807 | 26 | 163 | 6.4 | 12.9 | 0.00 | 0.08 | 0.08 | 74 | 1009.0 |
| 20260510023713 | 26 | 163 | 4.8 | 12.9 | 0.00 | 0.08 | 0.08 | 74 | 1009.1 |
| 20260510023557 | 26 | 155 | 6.4 | 14.5 | 0.00 | 0.08 | 0.08 | 73 | 1009.1 |
| 20260510023512 | 26 | 168 | 6.4 | 14.5 | 0.00 | 0.08 | 0.08 | 73 | 1009.1 |
| 20260510023417 | 26 | 135 | 6.4 | 14.5 | 0.00 | 0.08 | 0.08 | 73 | 1009.0 |
| 20260510023328 | 26 | 165 | 4.8 | 16.1 | 0.00 | 0.08 | 0.08 | 73 | 1009.0 |
| 20260510023211 | 26 | 123 | 4.8 | 16.1 | 0.00 | 0.08 | 0.08 | 73 | 1008.9 |
| 20260510023056 | 26 | 133 | 4.8 | 16.1 | 0.00 | 0.08 | 0.08 | 73 | 1009.0 |
| 20260510023000 | 26 | 129 | 4.8 | 16.1 | 0.00 | 0.08 | 0.08 | 73 | 1009.0 |
| 20260510022915 | 26 | 123 | 4.8 | 16.1 | 0.00 | 0.08 | 0.08 | 73 | 1009.0 |
| 20260510022820 | 26 | 159 | 4.8 | 16.1 | 0.00 | 0.08 | 0.08 | 73 | 1009.0 |
| 20260510022704 | 26 | 138 | 6.4 | 16.1 | 0.00 | 0.08 | 0.08 | 73 | 1009.0 |
| 20260510022609 | 26 | 148 | 6.4 | 16.1 | 0.00 | 0.08 | 0.08 | 72 | 1009.0 |
| 20260510022514 | 26 | 162 | 8.0 | 16.1 | 0.00 | 0.08 | 0.08 | 72 | 1008.9 |
| 20260510022358 | 26 | 136 | 6.4 | 16.1 | 0.00 | 0.08 | 0.08 | 72 | 1008.9 |
| 20260510022313 | 26 | 135 | 4.8 | 14.5 | 0.00 | 0.08 | 0.08 | 72 | 1008.8 |
| 20260510022157 | 26 | 136 | 4.8 | 12.9 | 0.00 | 0.08 | 0.08 | 72 | 1008.9 |
| 20260510022129 | 26 | 148 | 4.8 | 12.9 | 0.00 | 0.08 | 0.08 | 72 | 1008.9 |
| 20260510022012 | 26 | 144 | 4.8 | 11.3 | 0.00 | 0.08 | 0.08 | 72 | 1008.8 |
| 20260510021857 | 26 | 154 | 3.2 | 14.5 | 0.00 | 0.08 | 0.08 | 71 | 1008.9 |
| 20260510021801 | 26 | 134 | 3.2 | 14.5 | 0.00 | 0.08 | 0.08 | 71 | 1008.8 |
| 20260510021717 | 26 | 132 | 3.2 | 16.1 | 0.00 | 0.08 | 0.08 | 71 | 1008.8 |
| 20260510021600 | 26 | 161 | 6.4 | 17.7 | 0.00 | 0.08 | 0.08 | 71 | 1008.8 |
| 20260510021506 | 26 | 138 | 6.4 | 17.7 | 0.00 | 0.08 | 0.08 | 71 | 1008.9 |
| 20260510021409 | 26 | 134 | 4.8 | 17.7 | 0.00 | 0.08 | 0.08 | 71 | 1008.8 |
| 20260510021321 | 26 | 136 | 4.8 | 17.7 | 0.00 | 0.08 | 0.08 | 71 | 1008.9 |
| 20260510021225 | 26 | 152 | 6.4 | 17.7 | 0.00 | 0.08 | 0.08 | 71 | 1008.8 |
| 20260510021112 | 26 | 135 | 8.0 | 17.7 | 0.00 | 0.08 | 0.08 | 71 | 1008.8 |
| 20260510021023 | 26 | 136 | 8.0 | 17.7 | 0.00 | 0.08 | 0.08 | 71 | 1008.8 |
| 20260510020927 | 26 | 130 | 8.0 | 17.7 | 0.00 | 0.08 | 0.08 | 71 | 1008.8 |
| 20260510020811 | 26 | 155 | 6.4 | 17.7 | 0.00 | 0.08 | 0.08 | 71 | 1008.8 |
| 20260510020717 | 26 | 129 | 4.8 | 17.7 | 0.00 | 0.08 | 0.08 | 71 | 1008.8 |
| 20260510020601 | 26 | 136 | 9.7 | 17.7 | 0.00 | 0.08 | 0.08 | 71 | 1008.8 |
| 20260510020516 | 26 | 127 | 9.7 | 17.7 | 0.00 | 0.08 | 0.08 | 71 | 1008.8 |
| 20260510020400 | 26 | 123 | 6.4 | 14.5 | 0.00 | 0.08 | 0.08 | 71 | 1008.7 |
| 20260510020306 | 26 | 144 | 4.8 | 12.9 | 0.00 | 0.08 | 0.08 | 71 | 1008.7 |
| 20260510020211 | 26 | 130 | 4.8 | 12.9 | 0.00 | 0.08 | 0.08 | 71 | 1008.7 |
| 20260510020005 | 26 | 128 | 6.4 | 14.5 | 0.00 | 0.08 | 0.08 | 71 | 1008.7 |
| 20260510015914 | 26 | 135 | 6.4 | 14.5 | 0.00 | 0.08 | 0.08 | 71 | 1008.7 |
| 20260510015759 | 26 | 122 | 4.8 | 14.5 | 0.00 | 0.08 | 0.08 | 71 | 1008.7 |
| 20260510015710 | 26 | 137 | 3.2 | 14.5 | 0.00 | 0.08 | 0.08 | 71 | 1008.7 |
| 20260510015616 | 26 | 146 | 3.2 | 14.5 | 0.00 | 0.08 | 0.08 | 71 | 1008.6 |
| 20260510015459 | 26 | 141 | 3.2 | 14.5 | 0.00 | 0.08 | 0.08 | 71 | 1008.6 |
| 20260510015431 | 26 | 122 | 4.8 | 14.5 | 0.00 | 0.08 | 0.08 | 71 | 1008.6 |
| 20260510015258 | 26 | 134 | 4.8 | 14.5 | 0.00 | 0.08 | 0.08 | 70 | 1008.6 |
| 20260510015203 | 26 | 146 | 3.2 | 11.3 | 0.00 | 0.08 | 0.08 | 70 | 1008.5 |
| 20260510015109 | 26 | 146 | 3.2 | 9.7 | 0.00 | 0.08 | 0.08 | 70 | 1008.6 |
| 20260510015012 | 26 | 139 | 3.2 | 6.4 | 0.00 | 0.08 | 0.08 | 70 | 1008.5 |
| 20260510014857 | 26 | 127 | 1.6 | 6.4 | 0.00 | 0.08 | 0.08 | 70 | 1008.6 |
| 20260510014808 | 26 | 128 | 1.6 | 6.4 | 0.00 | 0.08 | 0.08 | 70 | 1008.6 |
| 20260510014657 | 26 | 127 | 3.2 | 11.3 | 0.00 | 0.08 | 0.08 | 70 | 1008.6 |
| 20260510014603 | 26 | 127 | 3.2 | 11.3 | 0.00 | 0.08 | 0.08 | 70 | 1008.6 |
| 20260510014507 | 27 | 136 | 3.2 | 11.3 | 0.00 | 0.08 | 0.08 | 70 | 1008.5 |
| 20260510014419 | 27 | 138 | 3.2 | 11.3 | 0.00 | 0.08 | 0.08 | 70 | 1008.6 |
| 20260510014303 | 27 | 140 | 3.2 | 11.3 | 0.00 | 0.08 | 0.08 | 70 | 1008.6 |
| 20260510014212 | 27 | 142 | 1.6 | 11.3 | 0.00 | 0.08 | 0.08 | 69 | 1008.6 |
| 20260510014056 | 27 | 144 | 1.6 | 11.3 | 0.00 | 0.08 | 0.08 | 69 | 1008.6 |
| 20260510014001 | 27 | 146 | 3.2 | 11.3 | 0.00 | 0.08 | 0.08 | 69 | 1008.6 |
| 20260510013913 | 27 | 150 | 3.2 | 11.3 | 0.00 | 0.08 | 0.08 | 69 | 1008.6 |
| 20260510013818 | 27 | 133 | 1.6 | 8.0 | 0.00 | 0.08 | 0.08 | 69 | 1008.5 |
| 20260510013704 | 27 | 133 | 1.6 | 6.4 | 0.00 | 0.08 | 0.08 | 69 | 1008.6 |
| 20260510013618 | 27 | 133 | 3.2 | 6.4 | 0.00 | 0.08 | 0.08 | 69 | 1008.6 |
| 20260510013524 | 27 | 133 | 1.6 | 8.0 | 0.00 | 0.08 | 0.08 | 69 | 1008.5 |
| 20260510013408 | 27 | 135 | 1.6 | 8.0 | 0.00 | 0.08 | 0.08 | 69 | 1008.5 |
| 20260510013319 | 27 | 136 | 1.6 | 8.0 | 0.00 | 0.08 | 0.08 | 69 | 1008.5 |
| 20260510013157 | 27 | 135 | 1.6 | 8.0 | 0.00 | 0.08 | 0.08 | 69 | 1008.6 |
| 20260510013108 | 27 | 135 | 0.0 | 8.0 | 0.00 | 0.08 | 0.08 | 69 | 1008.5 |
| 20260510012956 | 27 | 135 | 1.6 | 8.0 | 0.00 | 0.08 | 0.08 | 68 | 1008.5 |
| 20260510012902 | 27 | 135 | 1.6 | 8.0 | 0.00 | 0.08 | 0.08 | 68 | 1008.6 |
| 20260510012807 | 27 | 135 | 3.2 | 8.0 | 0.00 | 0.08 | 0.08 | 68 | 1008.5 |
| 20260510012718 | 27 | 134 | 3.2 | 8.0 | 0.00 | 0.08 | 0.08 | 68 | 1008.5 |
| 20260510012603 | 27 | 135 | 1.6 | 9.7 | 0.00 | 0.08 | 0.08 | 68 | 1008.5 |
| 20260510012508 | 27 | 138 | 0.0 | 9.7 | 0.00 | 0.08 | 0.08 | 68 | 1008.5 |
| 20260510012416 | 27 | 138 | 1.6 | 9.7 | 0.00 | 0.08 | 0.08 | 68 | 1008.5 |
| 20260510012300 | 27 | 138 | 1.6 | 9.7 | 0.00 | 0.08 | 0.08 | 68 | 1008.5 |
| 20260510012232 | 27 | 138 | 1.6 | 9.7 | 0.00 | 0.08 | 0.08 | 68 | 1008.4 |
| 20260510012056 | 27 | 113 | 0.0 | 9.7 | 0.00 | 0.08 | 0.08 | 68 | 1008.4 |
| 20260510012001 | 27 | 113 | 1.6 | 9.7 | 0.00 | 0.08 | 0.08 | 68 | 1008.4 |
| 20260510011913 | 27 | 113 | 3.2 | 9.7 | 0.00 | 0.08 | 0.08 | 68 | 1008.4 |
| 20260510011802 | 27 | 113 | 3.2 | 9.7 | 0.00 | 0.08 | 0.08 | 67 | 1008.5 |
| 20260510011707 | 27 | 115 | 3.2 | 6.4 | 0.00 | 0.08 | 0.08 | 67 | 1008.3 |
| 20260510011612 | 27 | 114 | 3.2 | 8.0 | 0.00 | 0.08 | 0.08 | 67 | 1008.4 |
| 20260510011456 | 27 | 117 | 3.2 | 8.0 | 0.00 | 0.08 | 0.08 | 67 | 1008.4 |
| 20260510011428 | 27 | 122 | 3.2 | 8.0 | 0.00 | 0.08 | 0.08 | 67 | 1008.4 |
| 20260510011312 | 27 | 123 | 3.2 | 8.0 | 0.00 | 0.08 | 0.08 | 67 | 1008.3 |
| 20260510011200 | 27 | 126 | 3.2 | 8.0 | 0.00 | 0.08 | 0.08 | 66 | 1008.3 |
| 20260510011105 | 27 | 126 | 3.2 | 11.3 | 0.00 | 0.08 | 0.08 | 66 | 1008.3 |
| 20260510011038 | 27 | 127 | 3.2 | 11.3 | 0.00 | 0.08 | 0.08 | 66 | 1008.3 |
| 20260510010900 | 27 | 128 | 1.6 | 11.3 | 0.00 | 0.08 | 0.08 | 66 | 1008.3 |
| 20260510010805 | 27 | 128 | 3.2 | 11.3 | 0.00 | 0.08 | 0.08 | 66 | 1008.3 |
| 20260510010718 | 27 | 128 | 3.2 | 11.3 | 0.00 | 0.08 | 0.08 | 65 | 1008.3 |
| 20260510010606 | 27 | 136 | 4.8 | 11.3 | 0.00 | 0.08 | 0.08 | 65 | 1008.3 |
| 20260510010511 | 27 | 136 | 4.8 | 11.3 | 0.00 | 0.08 | 0.08 | 65 | 1008.3 |
| 20260510010443 | 27 | 149 | 3.2 | 11.3 | 0.00 | 0.08 | 0.08 | 65 | 1008.3 |
| 20260510010306 | 27 | 138 | 4.8 | 11.3 | 0.00 | 0.08 | 0.08 | 65 | 1008.2 |
| 20260510010237 | 28 | 132 | 4.8 | 11.3 | 0.00 | 0.08 | 0.08 | 65 | 1008.3 |
| 20260510010100 | 28 | 136 | 3.2 | 12.9 | 0.00 | 0.08 | 0.08 | 65 | 1008.3 |
| 20260510010009 | 28 | 138 | 4.8 | 12.9 | 0.00 | 0.08 | 0.08 | 65 | 1008.2 |
| 20260510005914 | 28 | 157 | 3.2 | 12.9 | 0.00 | 0.08 | 0.08 | 65 | 1008.2 |
| 20260510005758 | 28 | 130 | 3.2 | 12.9 | 0.00 | 0.08 | 0.08 | 65 | 1008.2 |
| 20260510005709 | 28 | 165 | 3.2 | 12.9 | 0.00 | 0.08 | 0.08 | 65 | 1008.2 |
| 20260510005614 | 28 | 135 | 3.2 | 12.9 | 0.00 | 0.08 | 0.08 | 64 | 1008.2 |
| 20260510005459 | 28 | 134 | 3.2 | 12.9 | 0.00 | 0.08 | 0.08 | 64 | 1008.2 |
| 20260510005408 | 28 | 140 | 3.2 | 12.9 | 0.00 | 0.08 | 0.08 | 64 | 1008.2 |
| 20260510005319 | 28 | 150 | 4.8 | 12.9 | 0.00 | 0.08 | 0.08 | 64 | 1008.1 |
| 20260510005223 | 28 | 130 | 3.2 | 14.5 | 0.00 | 0.08 | 0.08 | 64 | 1008.1 |
| 20260510005107 | 28 | 136 | 3.2 | 14.5 | 0.00 | 0.08 | 0.08 | 64 | 1008.1 |
| 20260510005040 | 28 | 144 | 1.6 | 14.5 | 0.00 | 0.08 | 0.08 | 64 | 1008.1 |
| 20260510004903 | 28 | 139 | 1.6 | 14.5 | 0.00 | 0.08 | 0.08 | 63 | 1008.1 |
| 20260510004828 | 28 | 139 | 3.2 | 14.5 | 0.00 | 0.08 | 0.08 | 63 | 1008.1 |
| 20260510004656 | 28 | 128 | 3.2 | 14.5 | 0.00 | 0.08 | 0.08 | 63 | 1008.1 |
| 20260510004607 | 28 | 134 | 3.2 | 14.5 | 0.00 | 0.08 | 0.08 | 63 | 1008.1 |
| 20260510004513 | 28 | 144 | 4.8 | 14.5 | 0.00 | 0.08 | 0.08 | 63 | 1008.1 |
| 20260510004418 | 28 | 149 | 4.8 | 14.5 | 0.00 | 0.08 | 0.08 | 63 | 1008.1 |
| 20260510004308 | 28 | 148 | 3.2 | 14.5 | 0.00 | 0.08 | 0.08 | 63 | 1008.1 |
| 20260510004240 | 28 | 143 | 3.2 | 14.5 | 0.00 | 0.08 | 0.08 | 63 | 1008.1 |
| 20260510004108 | 28 | 161 | 4.8 | 14.5 | 0.00 | 0.08 | 0.08 | 63 | 1008.1 |
| 20260510004013 | 28 | 141 | 3.2 | 14.5 | 0.00 | 0.08 | 0.08 | 63 | 1008.0 |
| 20260510003858 | 28 | 130 | 4.8 | 14.5 | 0.00 | 0.08 | 0.08 | 62 | 1008.0 |
| 20260510003803 | 28 | 138 | 4.8 | 14.5 | 0.00 | 0.08 | 0.08 | 62 | 1008.1 |
| 20260510003736 | 28 | 130 | 4.8 | 14.5 | 0.00 | 0.08 | 0.08 | 62 | 1008.0 |
| 20260510003558 | 28 | 139 | 4.8 | 14.5 | 0.00 | 0.08 | 0.08 | 62 | 1007.9 |
| 20260510003508 | 28 | 135 | 4.8 | 14.5 | 0.00 | 0.08 | 0.08 | 61 | 1008.0 |
| 20260510003419 | 28 | 142 | 3.2 | 14.5 | 0.00 | 0.08 | 0.08 | 61 | 1008.0 |
| 20260510003304 | 28 | 144 | 4.8 | 14.5 | 0.00 | 0.08 | 0.08 | 61 | 1008.0 |
| 20260510003229 | 28 | 138 | 6.4 | 14.5 | 0.00 | 0.08 | 0.08 | 61 | 1008.0 |
| 20260510003120 | 28 | 124 | 6.4 | 14.5 | 0.00 | 0.08 | 0.08 | 61 | 1007.9 |
| 20260510003004 | 28 | 136 | 3.2 | 14.5 | 0.00 | 0.08 | 0.08 | 61 | 1007.9 |
| 20260510002913 | 28 | 136 | 4.8 | 14.5 | 0.00 | 0.08 | 0.08 | 61 | 1008.0 |
| 20260510002819 | 28 | 120 | 4.8 | 14.5 | 0.00 | 0.08 | 0.08 | 60 | 1007.9 |
| 20260510002709 | 28 | 130 | 4.8 | 14.5 | 0.00 | 0.08 | 0.08 | 61 | 1007.9 |
| 20260510002614 | 28 | 163 | 3.2 | 11.3 | 0.00 | 0.08 | 0.08 | 61 | 1007.9 |
| 20260510002458 | 28 | 115 | 4.8 | 11.3 | 0.00 | 0.08 | 0.08 | 61 | 1007.9 |
| 20260510002403 | 28 | 136 | 3.2 | 11.3 | 0.00 | 0.08 | 0.08 | 61 | 1007.9 |
| 20260510002320 | 28 | 96 | 3.2 | 11.3 | 0.00 | 0.08 | 0.08 | 60 | 1007.9 |
| 20260510002202 | 28 | 115 | 4.8 | 11.3 | 0.00 | 0.08 | 0.08 | 60 | 1007.9 |
| 20260510002107 | 28 | 101 | 6.4 | 11.3 | 0.00 | 0.08 | 0.08 | 60 | 1007.9 |
| 20260510002012 | 28 | 138 | 4.8 | 11.3 | 0.00 | 0.08 | 0.08 | 60 | 1008.0 |
| 20260510001857 | 28 | 109 | 4.8 | 11.3 | 0.00 | 0.08 | 0.08 | 60 | 1007.9 |
| 20260510001808 | 28 | 111 | 4.8 | 11.3 | 0.00 | 0.08 | 0.08 | 60 | 1008.0 |
| 20260510001656 | 28 | 118 | 4.8 | 12.9 | 0.00 | 0.08 | 0.08 | 59 | 1007.9 |
| 20260510001623 | 28 | 121 | 4.8 | 12.9 | 0.00 | 0.08 | 0.08 | 59 | 1007.9 |
| 20260510001513 | 28 | 137 | 6.4 | 12.9 | 0.00 | 0.08 | 0.08 | 60 | 1007.9 |
| 20260510001358 | 28 | 128 | 3.2 | 12.9 | 0.00 | 0.08 | 0.08 | 59 | 1007.9 |
| 20260510001303 | 28 | 132 | 3.2 | 14.5 | 0.00 | 0.08 | 0.08 | 60 | 1007.8 |
| 20260510001208 | 28 | 131 | 4.8 | 14.5 | 0.00 | 0.08 | 0.08 | 60 | 1007.7 |
| 20260510001057 | 28 | 100 | 4.8 | 14.5 | 0.00 | 0.08 | 0.08 | 60 | 1007.7 |
| 20260510001008 | 28 | 91 | 6.4 | 14.5 | 0.00 | 0.08 | 0.08 | 60 | 1007.9 |
| 20260510000913 | 29 | 132 | 6.4 | 14.5 | 0.00 | 0.08 | 0.08 | 59 | 1007.8 |
| 20260510000818 | 29 | 108 | 4.8 | 14.5 | 0.00 | 0.08 | 0.08 | 59 | 1007.7 |
| 20260510000710 | 29 | 128 | 3.2 | 14.5 | 0.00 | 0.08 | 0.08 | 59 | 1007.8 |
| 20260510000613 | 29 | 132 | 4.8 | 14.5 | 0.00 | 0.08 | 0.08 | 59 | 1007.8 |
| 20260510000522 | 29 | 101 | 6.4 | 14.5 | 0.00 | 0.08 | 0.08 | 58 | 1007.7 |
| 20260510000412 | 29 | 98 | 4.8 | 14.5 | 0.00 | 0.08 | 0.08 | 58 | 1007.7 |
| 20260510000318 | 29 | 148 | 3.2 | 14.5 | 0.00 | 0.08 | 0.08 | 57 | 1007.8 |
| 20260510000222 | 29 | 180 | 4.8 | 14.5 | 0.00 | 0.08 | 0.08 | 56 | 1007.8 |
| 20260510000106 | 29 | 148 | 6.4 | 14.5 | 0.00 | 0.08 | 0.08 | 56 | 1007.7 |
| 20260510000017 | 29 | 164 | 6.4 | 14.5 | 0.00 | 0.08 | 0.08 | 56 | 1007.7 |
| 20260509235901 | 29 | 196 | 6.4 | 14.5 | 0.00 | 0.08 | 0.08 | 56 | 1007.7 |
| 20260509235810 | 29 | 184 | 4.8 | 14.5 | 0.00 | 0.08 | 0.08 | 56 | 1007.6 |
| 20260509235722 | 29 | 181 | 4.8 | 12.9 | 0.00 | 0.08 | 0.08 | 56 | 1007.7 |
| 20260509235606 | 29 | 111 | 6.4 | 12.9 | 0.00 | 0.08 | 0.08 | 56 | 1007.7 |
| 20260509235511 | 29 | 178 | 6.4 | 14.5 | 0.00 | 0.08 | 0.08 | 55 | 1007.6 |
| 20260509235422 | 29 | 171 | 4.8 | 14.5 | 0.00 | 0.08 | 0.08 | 55 | 1007.7 |
| 20260509235307 | 29 | 138 | 3.2 | 14.5 | 0.00 | 0.08 | 0.08 | 55 | 1007.7 |
| 20260509235235 | 29 | 154 | 6.4 | 14.5 | 0.00 | 0.08 | 0.08 | 55 | 1007.7 |
| 20260509235059 | 29 | 181 | 6.4 | 14.5 | 0.00 | 0.08 | 0.08 | 54 | 1007.7 |
| 20260509235010 | 29 | 171 | 4.8 | 14.5 | 0.00 | 0.08 | 0.08 | 54 | 1007.7 |
| 20260509234915 | 29 | 157 | 3.2 | 14.5 | 0.00 | 0.08 | 0.08 | 56 | 1007.6 |
| 20260509234759 | 29 | 153 | 4.8 | 14.5 | 0.00 | 0.08 | 0.08 | 56 | 1007.6 |
| 20260509234704 | 29 | 113 | 4.8 | 14.5 | 0.00 | 0.08 | 0.08 | 56 | 1007.6 |
| 20260509234620 | 29 | 125 | 4.8 | 12.9 | 0.00 | 0.08 | 0.08 | 56 | 1007.6 |
| 20260509234504 | 29 | 136 | 4.8 | 14.5 | 0.00 | 0.08 | 0.08 | 56 | 1007.6 |
| 20260509234408 | 29 | 109 | 6.4 | 16.1 | 0.00 | 0.08 | 0.08 | 55 | 1007.6 |
| 20260509234314 | 29 | 130 | 4.8 | 16.1 | 0.00 | 0.08 | 0.08 | 55 | 1007.6 |
| 20260509234219 | 29 | 125 | 4.8 | 16.1 | 0.00 | 0.08 | 0.08 | 55 | 1007.5 |
| 20260509234130 | 29 | 134 | 4.8 | 16.1 | 0.00 | 0.08 | 0.08 | 56 | 1007.6 |
| 20260509233957 | 29 | 132 | 4.8 | 17.7 | 0.00 | 0.08 | 0.08 | 55 | 1007.5 |
| 20260509233912 | 29 | 158 | 4.8 | 17.7 | 0.00 | 0.08 | 0.08 | 55 | 1007.5 |
| 20260509233815 | 29 | 135 | 6.4 | 17.7 | 0.00 | 0.08 | 0.08 | 55 | 1007.6 |
| 20260509233700 | 29 | 136 | 8.0 | 17.7 | 0.00 | 0.08 | 0.08 | 55 | 1007.6 |
| 20260509233604 | 29 | 141 | 6.4 | 17.7 | 0.00 | 0.08 | 0.08 | 54 | 1007.6 |
| 20260509233509 | 29 | 135 | 8.0 | 17.7 | 0.00 | 0.08 | 0.08 | 54 | 1007.6 |
| 20260509233358 | 29 | 129 | 9.7 | 17.7 | 0.00 | 0.08 | 0.08 | 53 | 1007.5 |
| 20260509233309 | 29 | 142 | 8.0 | 17.7 | 0.00 | 0.08 | 0.08 | 53 | 1007.6 |
| 20260509233214 | 30 | 134 | 8.0 | 17.7 | 0.00 | 0.08 | 0.08 | 54 | 1007.7 |
| 20260509233059 | 30 | 150 | 8.0 | 16.1 | 0.00 | 0.08 | 0.08 | 53 | 1007.6 |
| 20260509233004 | 30 | 145 | 8.0 | 16.1 | 0.00 | 0.08 | 0.08 | 54 | 1007.6 |
| 20260509232919 | 30 | 145 | 4.8 | 12.9 | 0.00 | 0.08 | 0.08 | 54 | 1007.5 |
| 20260509232804 | 30 | 105 | 3.2 | 12.9 | 0.00 | 0.08 | 0.08 | 53 | 1007.6 |
| 20260509232709 | 30 | 146 | 3.2 | 14.5 | 0.00 | 0.08 | 0.08 | 53 | 1007.5 |
| 20260509232614 | 30 | 117 | 3.2 | 14.5 | 0.00 | 0.08 | 0.08 | 53 | 1007.7 |
| 20260509232458 | 30 | 155 | 4.8 | 14.5 | 0.00 | 0.08 | 0.08 | 53 | 1007.5 |
| 20260509232412 | 30 | 126 | 4.8 | 19.3 | 0.00 | 0.08 | 0.08 | 53 | 1007.5 |
| 20260509232321 | 30 | 132 | 3.2 | 19.3 | 0.00 | 0.08 | 0.08 | 54 | 1007.6 |
| 20260509232204 | 30 | 151 | 3.2 | 19.3 | 0.00 | 0.08 | 0.08 | 53 | 1007.6 |
| 20260509232116 | 30 | 170 | 4.8 | 19.3 | 0.00 | 0.08 | 0.08 | 53 | 1007.5 |
| 20260509232020 | 30 | 136 | 4.8 | 19.3 | 0.00 | 0.08 | 0.08 | 53 | 1007.5 |
| 20260509231925 | 30 | 158 | 6.4 | 19.3 | 0.00 | 0.08 | 0.08 | 53 | 1007.5 |
| 20260509231809 | 30 | 148 | 4.8 | 19.3 | 0.00 | 0.08 | 0.08 | 54 | 1007.5 |
| 20260509231724 | 30 | 162 | 4.8 | 19.3 | 0.00 | 0.08 | 0.08 | 54 | 1007.5 |
| 20260509231609 | 30 | 144 | 6.4 | 19.3 | 0.00 | 0.08 | 0.08 | 54 | 1007.6 |
| 20260509231513 | 29 | 115 | 8.0 | 19.3 | 0.00 | 0.08 | 0.08 | 53 | 1007.6 |
| 20260509231358 | 30 | 133 | 4.8 | 19.3 | 0.00 | 0.08 | 0.08 | 54 | 1007.6 |
| 20260509231309 | 30 | 112 | 4.8 | 19.3 | 0.00 | 0.08 | 0.08 | 54 | 1007.7 |
| 20260509231214 | 30 | 128 | 4.8 | 19.3 | 0.00 | 0.08 | 0.08 | 54 | 1007.7 |
| 20260509231102 | 30 | 141 | 6.4 | 19.3 | 0.00 | 0.08 | 0.08 | 55 | 1007.6 |
| 20260509231007 | 30 | 86 | 8.0 | 19.3 | 0.00 | 0.08 | 0.08 | 54 | 1007.6 |
| 20260509230919 | 30 | 121 | 6.4 | 19.3 | 0.00 | 0.08 | 0.08 | 53 | 1007.6 |
| 20260509230803 | 30 | 115 | 6.4 | 19.3 | 0.00 | 0.08 | 0.08 | 53 | 1007.6 |
| 20260509230709 | 30 | 121 | 8.0 | 19.3 | 0.00 | 0.08 | 0.08 | 52 | 1007.6 |
| 20260509230641 | 30 | 98 | 6.4 | 14.5 | 0.00 | 0.08 | 0.08 | 52 | 1007.6 |
| 20260509230529 | 30 | 136 | 4.8 | 14.5 | 0.00 | 0.08 | 0.08 | 51 | 1007.6 |
| 20260509230413 | 30 | 185 | 4.8 | 20.9 | 0.00 | 0.08 | 0.08 | 49 | 1007.6 |
| 20260509230257 | 30 | 107 | 6.4 | 20.9 | 0.00 | 0.08 | 0.08 | 51 | 1007.6 |
| 20260509230208 | 30 | 118 | 4.8 | 20.9 | 0.00 | 0.08 | 0.08 | 50 | 1007.6 |
| 20260509230113 | 30 | 157 | 4.8 | 20.9 | 0.00 | 0.08 | 0.08 | 50 | 1007.6 |
| 20260509225957 | 30 | 155 | 6.4 | 20.9 | 0.00 | 0.08 | 0.08 | 51 | 1007.5 |
| 20260509225927 | 30 | 131 | 6.4 | 20.9 | 0.00 | 0.08 | 0.08 | 50 | 1007.6 |
| 20260509225815 | 30 | 103 | 6.4 | 20.9 | 0.00 | 0.08 | 0.08 | 50 | 1007.5 |
| 20260509225657 | 30 | 112 | 11.3 | 20.9 | 0.00 | 0.08 | 0.08 | 48 | 1007.6 |
| 20260509225628 | 30 | 98 | 12.9 | 20.9 | 0.00 | 0.08 | 0.08 | 47 | 1007.5 |
| 20260509225512 | 30 | 100 | 11.3 | 20.9 | 0.00 | 0.08 | 0.08 | 47 | 1007.5 |
| 20260509225357 | 30 | 86 | 8.0 | 20.9 | 0.00 | 0.08 | 0.08 | 46 | 1007.4 |
| 20260509225329 | 30 | 111 | 6.4 | 20.9 | 0.00 | 0.08 | 0.08 | 48 | 1007.4 |
| 20260509225218 | 30 | 138 | 6.4 | 20.9 | 0.00 | 0.08 | 0.08 | 48 | 1007.4 |
| 20260509225102 | 30 | 98 | 6.4 | 20.9 | 0.00 | 0.08 | 0.08 | 49 | 1007.4 |
| 20260509225013 | 30 | 120 | 8.0 | 20.9 | 0.00 | 0.08 | 0.08 | 48 | 1007.5 |
| 20260509224857 | 30 | 126 | 11.3 | 27.4 | 0.00 | 0.08 | 0.08 | 48 | 1007.4 |
| 20260509224830 | 30 | 85 | 11.3 | 27.4 | 0.00 | 0.08 | 0.08 | 48 | 1007.4 |
| 20260509224714 | 30 | 98 | 9.7 | 27.4 | 0.00 | 0.08 | 0.08 | 47 | 1007.5 |
| 20260509224619 | 30 | 129 | 9.7 | 27.4 | 0.00 | 0.08 | 0.08 | 46 | 1007.4 |
| 20260509224514 | 30 | 101 | 9.7 | 27.4 | 0.00 | 0.08 | 0.08 | 45 | 1007.5 |
| 20260509224358 | 30 | 71 | 12.9 | 27.4 | 0.00 | 0.08 | 0.08 | 46 | 1007.4 |
| 20260509224303 | 30 | 62 | 16.1 | 27.4 | 0.00 | 0.08 | 0.08 | 47 | 1007.4 |
| 20260509224208 | 30 | 94 | 14.5 | 27.4 | 0.00 | 0.08 | 0.08 | 47 | 1007.4 |
| 20260509224120 | 30 | 95 | 12.9 | 27.4 | 0.00 | 0.08 | 0.08 | 50 | 1007.4 |
| 20260509224004 | 30 | 129 | 9.7 | 20.9 | 0.00 | 0.08 | 0.08 | 52 | 1007.4 |
| 20260509223933 | 30 | 80 | 12.9 | 20.9 | 0.00 | 0.08 | 0.08 | 53 | 1007.4 |
| 20260509223757 | 30 | 98 | 12.9 | 20.9 | 0.00 | 0.08 | 0.08 | 53 | 1007.5 |
| 20260509223730 | 30 | 76 | 11.3 | 20.9 | 0.00 | 0.08 | 0.08 | 54 | 1007.4 |
| 20260509223613 | 30 | 80 | 8.0 | 20.9 | 0.00 | 0.08 | 0.08 | 55 | 1007.4 |
| 20260509223457 | 30 | 94 | 8.0 | 20.9 | 0.00 | 0.08 | 0.08 | 55 | 1007.4 |
| 20260509223408 | 30 | 88 | 6.4 | 17.7 | 0.00 | 0.08 | 0.08 | 55 | 1007.4 |
| 20260509223256 | 30 | 133 | 4.8 | 17.7 | 0.00 | 0.08 | 0.08 | 54 | 1007.4 |
| 20260509223201 | 30 | 101 | 8.0 | 17.7 | 0.00 | 0.08 | 0.08 | 54 | 1007.4 |
| 20260509223106 | 30 | 107 | 8.0 | 17.7 | 0.00 | 0.08 | 0.08 | 54 | 1007.4 |
| 20260509223011 | 30 | 106 | 6.4 | 17.7 | 0.00 | 0.08 | 0.08 | 55 | 1007.4 |
| 20260509222856 | 30 | 96 | 6.4 | 17.7 | 0.00 | 0.08 | 0.08 | 55 | 1007.4 |
| 20260509222807 | 30 | 90 | 8.0 | 17.7 | 0.00 | 0.08 | 0.08 | 54 | 1007.3 |
| 20260509222656 | 30 | 84 | 8.0 | 17.7 | 0.00 | 0.08 | 0.08 | 55 | 1007.4 |
| 20260509222601 | 30 | 105 | 6.4 | 17.7 | 0.00 | 0.08 | 0.08 | 54 | 1007.3 |
| 20260509222506 | 30 | 40 | 8.0 | 17.7 | 0.00 | 0.08 | 0.08 | 54 | 1007.2 |
| 20260509222417 | 30 | 57 | 9.7 | 17.7 | 0.00 | 0.08 | 0.08 | 54 | 1007.3 |
| 20260509222301 | 30 | 44 | 9.7 | 17.7 | 0.00 | 0.08 | 0.08 | 54 | 1007.2 |
| 20260509222206 | 30 | 31 | 6.4 | 17.7 | 0.00 | 0.08 | 0.08 | 54 | 1007.3 |
| 20260509222122 | 30 | 72 | 4.8 | 17.7 | 0.00 | 0.08 | 0.08 | 54 | 1007.2 |
| 20260509222006 | 30 | 78 | 8.0 | 16.1 | 0.00 | 0.08 | 0.08 | 55 | 1007.2 |
| 20260509221911 | 30 | 49 | 8.0 | 16.1 | 0.00 | 0.08 | 0.08 | 54 | 1007.1 |
| 20260509221816 | 30 | 26 | 8.0 | 16.1 | 0.00 | 0.08 | 0.08 | 55 | 1007.2 |
| 20260509221707 | 30 | 32 | 8.0 | 12.9 | 0.00 | 0.08 | 0.08 | 55 | 1007.1 |
| 20260509221610 | 30 | 30 | 6.4 | 12.9 | 0.00 | 0.08 | 0.08 | 55 | 1007.2 |
| 20260509221457 | 30 | 86 | 4.8 | 11.3 | 0.00 | 0.08 | 0.08 | 56 | 1007.2 |
| 20260509221403 | 30 | 103 | 4.8 | 11.3 | 0.00 | 0.08 | 0.08 | 55 | 1007.2 |
| 20260509221307 | 30 | 86 | 3.2 | 11.3 | 0.00 | 0.08 | 0.08 | 56 | 1007.2 |
| 20260509221219 | 30 | 105 | 3.2 | 9.7 | 0.00 | 0.08 | 0.08 | 55 | 1007.2 |
| 20260509221103 | 30 | 103 | 3.2 | 11.3 | 0.00 | 0.08 | 0.08 | 55 | 1007.2 |
| 20260509221012 | 30 | 105 | 3.2 | 11.3 | 0.00 | 0.08 | 0.08 | 56 | 1007.1 |
| 20260509220857 | 30 | 108 | 3.2 | 11.3 | 0.00 | 0.08 | 0.08 | 55 | 1007.1 |
| 20260509220802 | 30 | 108 | 3.2 | 11.3 | 0.00 | 0.08 | 0.08 | 56 | 1007.0 |
| 20260509220714 | 30 | 57 | 3.2 | 11.3 | 0.00 | 0.08 | 0.08 | 56 | 1007.1 |
| 20260509220558 | 30 | 94 | 4.8 | 11.3 | 0.00 | 0.08 | 0.08 | 56 | 1007.0 |
| 20260509220502 | 30 | 94 | 3.2 | 11.3 | 0.00 | 0.08 | 0.08 | 56 | 1007.1 |
| 20260509220411 | 30 | 109 | 4.8 | 11.3 | 0.00 | 0.08 | 0.08 | 56 | 1007.1 |
| 20260509220322 | 30 | 119 | 4.8 | 11.3 | 0.00 | 0.08 | 0.08 | 56 | 1007.1 |
| 20260509220207 | 30 | 84 | 4.8 | 11.3 | 0.00 | 0.08 | 0.08 | 56 | 1007.1 |
| 20260509220111 | 30 | 120 | 4.8 | 9.7 | 0.00 | 0.08 | 0.08 | 57 | 1007.1 |
| 20260509220014 | 30 | 101 | 4.8 | 11.3 | 0.00 | 0.08 | 0.08 | 57 | 1007.1 |
| 20260509215902 | 30 | 122 | 4.8 | 11.3 | 0.00 | 0.08 | 0.08 | 56 | 1007.2 |
| 20260509215813 | 30 | 127 | 3.2 | 11.3 | 0.00 | 0.08 | 0.08 | 57 | 1007.3 |
| 20260509215659 | 30 | 140 | 1.6 | 11.3 | 0.00 | 0.08 | 0.08 | 57 | 1007.4 |
| 20260509215602 | 30 | 140 | 3.2 | 11.3 | 0.00 | 0.08 | 0.08 | 57 | 1007.3 |
| 20260509215507 | 30 | 140 | 3.2 | 11.3 | 0.00 | 0.08 | 0.08 | 57 | 1007.4 |
| 20260509215439 | 30 | 141 | 3.2 | 11.3 | 0.00 | 0.08 | 0.08 | 57 | 1007.3 |
| 20260509215306 | 30 | 193 | 4.8 | 11.3 | 0.00 | 0.08 | 0.08 | 57 | 1007.3 |
| 20260509215211 | 30 | 156 | 3.2 | 11.3 | 0.00 | 0.08 | 0.08 | 57 | 1007.4 |
| 20260509215122 | 30 | 152 | 3.2 | 11.3 | 0.00 | 0.08 | 0.08 | 57 | 1007.3 |
| 20260509215006 | 30 | 159 | 3.2 | 11.3 | 0.00 | 0.08 | 0.08 | 57 | 1007.3 |
| 20260509214912 | 30 | 146 | 3.2 | 11.3 | 0.00 | 0.08 | 0.08 | 56 | 1007.4 |
| 20260509214756 | 30 | 183 | 4.8 | 11.3 | 0.00 | 0.08 | 0.08 | 56 | 1007.4 |
| 20260509214728 | 30 | 119 | 4.8 | 11.3 | 0.00 | 0.08 | 0.08 | 56 | 1007.4 |
| 20260509214617 | 30 | 136 | 4.8 | 11.3 | 0.00 | 0.08 | 0.08 | 56 | 1007.4 |
| 20260509214501 | 30 | 176 | 3.2 | 9.7 | 0.00 | 0.08 | 0.08 | 56 | 1007.4 |
| 20260509214433 | 30 | 155 | 1.6 | 9.7 | 0.00 | 0.08 | 0.08 | 58 | 1007.4 |
| 20260509214256 | 29 | 155 | 1.6 | 9.7 | 0.00 | 0.08 | 0.08 | 57 | 1007.4 |
| 20260509214200 | 29 | 178 | 1.6 | 9.7 | 0.00 | 0.08 | 0.08 | 58 | 1007.5 |
| 20260509214112 | 29 | 180 | 1.6 | 9.7 | 0.00 | 0.08 | 0.08 | 58 | 1007.5 |
| 20260509214000 | 28 | 178 | 1.6 | 9.7 | 0.00 | 0.08 | 0.08 | 59 | 1007.5 |
| 20260509213926 | 28 | 168 | 3.2 | 9.7 | 0.00 | 0.08 | 0.08 | 59 | 1007.5 |
| 20260509213816 | 28 | 168 | 3.2 | 12.9 | 0.00 | 0.08 | 0.08 | 60 | 1007.4 |
| 20260509213701 | 28 | 250 | 4.8 | 12.9 | 0.00 | 0.08 | 0.08 | 60 | 1007.5 |
| 20260509213626 | 28 | 215 | 4.8 | 16.1 | 0.00 | 0.08 | 0.08 | 60 | 1007.5 |
| 20260509213517 | 28 | 232 | 4.8 | 16.1 | 0.00 | 0.08 | 0.08 | 60 | 1007.5 |
| 20260509213405 | 28 | 231 | 4.8 | 17.7 | 0.00 | 0.08 | 0.08 | 61 | 1007.5 |
| 20260509213310 | 28 | 197 | 3.2 | 20.9 | 0.00 | 0.08 | 0.08 | 60 | 1007.6 |
| 20260509213215 | 28 | 195 | 3.2 | 20.9 | 0.00 | 0.08 | 0.08 | 59 | 1007.5 |
| 20260509213058 | 28 | 181 | 3.2 | 27.4 | 0.00 | 0.08 | 0.08 | 61 | 1007.6 |
| 20260509213003 | 27 | 192 | 4.8 | 27.4 | 0.00 | 0.08 | 0.08 | 61 | 1007.6 |
| 20260509212914 | 27 | 188 | 8.0 | 27.4 | 0.00 | 0.08 | 0.08 | 61 | 1007.8 |
| 20260509212802 | 27 | 196 | 8.0 | 27.4 | 0.00 | 0.08 | 0.08 | 61 | 1007.7 |
| 20260509212707 | 27 | 224 | 8.0 | 27.4 | 0.00 | 0.08 | 0.08 | 61 | 1007.7 |
| 20260509212612 | 27 | 188 | 9.7 | 27.4 | 0.00 | 0.08 | 0.08 | 61 | 1007.8 |
| 20260509212524 | 27 | 157 | 12.9 | 27.4 | 0.00 | 0.08 | 0.08 | 60 | 1007.7 |
| 20260509212408 | 27 | 195 | 14.5 | 27.4 | 0.00 | 0.08 | 0.08 | 59 | 1007.9 |
| 20260509212313 | 28 | 190 | 14.5 | 25.7 | 0.00 | 0.08 | 0.08 | 57 | 1007.8 |
| 20260509212201 | 28 | 138 | 11.3 | 24.1 | 0.00 | 0.08 | 0.08 | 56 | 1007.9 |
| 20260509212113 | 28 | 143 | 9.7 | 25.7 | 0.00 | 0.08 | 0.08 | 55 | 1007.9 |
| 20260509211957 | 28 | 173 | 6.4 | 20.9 | 0.00 | 0.08 | 0.08 | 54 | 1007.9 |
| 20260509211901 | 28 | 163 | 4.8 | 20.9 | 0.00 | 0.08 | 0.08 | 54 | 1007.8 |
| 20260509211806 | 28 | 171 | 4.8 | 27.4 | 0.00 | 0.08 | 0.08 | 54 | 1007.9 |
| 20260509211739 | 28 | 156 | 4.8 | 27.4 | 0.00 | 0.08 | 0.08 | 54 | 1007.9 |
| 20260509211606 | 27 | 180 | 6.4 | 27.4 | 0.00 | 0.08 | 0.08 | 54 | 1007.9 |
| 20260509211511 | 27 | 167 | 9.7 | 27.4 | 0.00 | 0.08 | 0.08 | 54 | 1007.9 |
| 20260509211416 | 27 | 165 | 9.7 | 27.4 | 0.00 | 0.08 | 0.08 | 53 | 1008.0 |
| 20260509211300 | 27 | 175 | 12.9 | 27.4 | 0.00 | 0.08 | 0.08 | 54 | 1008.0 |
| 20260509211232 | 27 | 187 | 11.3 | 27.4 | 0.00 | 0.08 | 0.08 | 53 | 1008.0 |
| 20260509211056 | 27 | 168 | 9.7 | 27.4 | 0.00 | 0.08 | 0.08 | 53 | 1008.1 |
| 20260509211005 | 27 | 161 | 11.3 | 27.4 | 0.00 | 0.08 | 0.08 | 53 | 1008.1 |
| 20260509210937 | 27 | 167 | 11.3 | 27.4 | 0.00 | 0.08 | 0.08 | 53 | 1008.1 |
| 20260509210800 | 27 | 131 | 9.7 | 25.7 | 0.00 | 0.08 | 0.08 | 53 | 1008.2 |
| 20260509210706 | 27 | 144 | 9.7 | 25.7 | 0.00 | 0.08 | 0.08 | 53 | 1008.1 |
| 20260509210616 | 27 | 119 | 8.0 | 27.4 | 0.00 | 0.08 | 0.08 | 52 | 1008.2 |
| 20260509210522 | 27 | 133 | 4.8 | 27.4 | 0.00 | 0.08 | 0.08 | 53 | 1008.1 |
| 20260509210411 | 27 | 125 | 8.0 | 27.4 | 0.00 | 0.08 | 0.08 | 54 | 1008.2 |
| 20260509210322 | 27 | 141 | 9.7 | 27.4 | 0.00 | 0.08 | 0.08 | 54 | 1008.2 |
| 20260509210206 | 27 | 138 | 11.3 | 27.4 | 0.00 | 0.08 | 0.08 | 54 | 1008.3 |
| 20260509210111 | 27 | 151 | 12.9 | 27.4 | 0.00 | 0.08 | 0.08 | 56 | 1008.2 |
| 20260509205956 | 27 | 157 | 8.0 | 27.4 | 0.00 | 0.08 | 0.08 | 58 | 1008.2 |
| 20260509205901 | 27 | 183 | 8.0 | 27.4 | 0.00 | 0.08 | 0.08 | 58 | 1008.3 |
| 20260509205818 | 27 | 134 | 9.7 | 30.6 | 0.00 | 0.08 | 0.08 | 57 | 1008.2 |
| 20260509205701 | 27 | 139 | 8.0 | 30.6 | 0.00 | 0.08 | 0.08 | 57 | 1008.2 |
| 20260509205606 | 27 | 149 | 8.0 | 30.6 | 0.00 | 0.08 | 0.08 | 58 | 1008.2 |
| 20260509205518 | 27 | 122 | 9.7 | 30.6 | 0.00 | 0.08 | 0.08 | 57 | 1008.2 |
| 20260509205422 | 27 | 138 | 8.0 | 30.6 | 0.00 | 0.08 | 0.08 | 57 | 1008.2 |
| 20260509205307 | 27 | 133 | 8.0 | 30.6 | 0.00 | 0.08 | 0.08 | 58 | 1008.3 |
| 20260509205216 | 27 | 163 | 11.3 | 30.6 | 0.00 | 0.08 | 0.08 | 58 | 1008.2 |
| 20260509205120 | 27 | 107 | 16.1 | 30.6 | 0.00 | 0.08 | 0.08 | 58 | 1008.1 |
| 20260509205010 | 27 | 116 | 19.3 | 30.6 | 0.00 | 0.08 | 0.08 | 57 | 1008.2 |
| 20260509204916 | 27 | 106 | 19.3 | 29.0 | 0.00 | 0.08 | 0.08 | 57 | 1008.2 |
| 20260509204800 | 27 | 89 | 17.7 | 29.0 | 0.00 | 0.08 | 0.08 | 57 | 1008.2 |
| 20260509204705 | 27 | 102 | 14.5 | 29.0 | 0.00 | 0.08 | 0.08 | 58 | 1008.2 |
| 20260509204621 | 27 | 102 | 11.3 | 29.0 | 0.00 | 0.08 | 0.08 | 59 | 1008.1 |
| 20260509204525 | 27 | 105 | 9.7 | 29.0 | 0.00 | 0.08 | 0.08 | 59 | 1008.2 |
| 20260509204409 | 27 | 87 | 8.0 | 30.6 | 0.00 | 0.08 | 0.08 | 58 | 1008.1 |
| 20260509204320 | 27 | 86 | 8.0 | 37.0 | 0.00 | 0.08 | 0.08 | 58 | 1008.2 |
| 20260509204205 | 27 | 103 | 12.9 | 45.1 | 0.00 | 0.08 | 0.08 | 57 | 1008.1 |
| 20260509204106 | 27 | 100 | 14.5 | 45.1 | 0.00 | 0.08 | 0.08 | 57 | 1008.3 |
| 20260509204014 | 27 | 89 | 17.7 | 45.1 | 0.00 | 0.08 | 0.08 | 56 | 1008.3 |
| 20260509203925 | 28 | 113 | 19.3 | 45.1 | 0.00 | 0.08 | 0.08 | 57 | 1008.3 |
| 20260509203808 | 28 | 101 | 17.7 | 45.1 | 0.00 | 0.08 | 0.08 | 58 | 1008.3 |
| 20260509203714 | 28 | 80 | 20.9 | 45.1 | 0.00 | 0.08 | 0.08 | 58 | 1008.3 |
| 20260509203558 | 28 | 90 | 27.4 | 45.1 | 0.00 | 0.08 | 0.08 | 57 | 1008.4 |
| 20260509203502 | 29 | 88 | 27.4 | 45.1 | 0.00 | 0.08 | 0.08 | 58 | 1008.4 |
| 20260509203417 | 30 | 83 | 16.1 | 43.5 | 0.00 | 0.08 | 0.08 | 59 | 1008.3 |
| 20260509203329 | 30 | 95 | 12.9 | 29.0 | 0.00 | 0.08 | 0.08 | 59 | 1008.4 |
| 20260509203213 | 31 | 113 | 14.5 | 25.7 | 0.00 | 0.08 | 0.08 | 58 | 1008.4 |
| 20260509203057 | 31 | 79 | 11.3 | 25.7 | 0.00 | 0.08 | 0.08 | 56 | 1008.4 |
| 20260509203002 | 32 | 64 | 9.7 | 16.1 | 0.00 | 0.08 | 0.08 | 54 | 1008.3 |
| 20260509202907 | 32 | 32 | 6.4 | 12.9 | 0.00 | 0.08 | 0.08 | 51 | 1008.3 |
| 20260509202756 | 32 | 35 | 4.8 | 12.9 | 0.00 | 0.08 | 0.08 | 51 | 1008.3 |
| 20260509202707 | 32 | 33 | 3.2 | 16.1 | 0.00 | 0.08 | 0.08 | 50 | 1008.3 |
| 20260509202633 | 32 | 34 | 3.2 | 16.1 | 0.00 | 0.08 | 0.08 | 51 | 1008.2 |
| 20260509202456 | 32 | 24 | 3.2 | 16.1 | 0.00 | 0.08 | 0.08 | 50 | 1008.2 |
| 20260509202407 | 32 | 43 | 4.8 | 16.1 | 0.00 | 0.08 | 0.08 | 48 | 1008.2 |
| 20260509202312 | 32 | 43 | 6.4 | 16.1 | 0.00 | 0.08 | 0.08 | 50 | 1008.2 |
| 20260509202222 | 32 | 5 | 6.4 | 16.1 | 0.00 | 0.08 | 0.08 | 49 | 1008.3 |
| 20260509202112 | 32 | 16 | 6.4 | 16.1 | 0.00 | 0.08 | 0.08 | 49 | 1008.3 |
| 20260509202018 | 32 | 23 | 9.7 | 16.1 | 0.00 | 0.08 | 0.08 | 48 | 1008.1 |
| 20260509201902 | 32 | 38 | 8.0 | 16.1 | 0.00 | 0.08 | 0.08 | 48 | 1008.2 |
| 20260509201813 | 33 | 30 | 4.8 | 16.1 | 0.00 | 0.08 | 0.08 | 49 | 1008.2 |
| 20260509201657 | 32 | 258 | 3.2 | 16.1 | 0.00 | 0.08 | 0.08 | 47 | 1008.1 |
| 20260509201607 | 33 | 255 | 6.4 | 16.1 | 0.00 | 0.08 | 0.08 | 47 | 1008.1 |
| 20260509201512 | 33 | 261 | 8.0 | 16.1 | 0.00 | 0.08 | 0.08 | 46 | 1008.2 |
| 20260509201356 | 33 | 273 | 4.8 | 16.1 | 0.00 | 0.08 | 0.08 | 45 | 1008.1 |
| 20260509201259 | 33 | 229 | 1.6 | 14.5 | 0.00 | 0.08 | 0.08 | 50 | 1008.2 |
| 20260509201211 | 33 | 223 | 0.0 | 14.5 | 0.00 | 0.08 | 0.08 | 48 | 1008.2 |
| 20260509201116 | 33 | 219 | 1.6 | 14.5 | 0.00 | 0.08 | 0.08 | 48 | 1008.2 |
| 20260509201003 | 33 | 259 | 1.6 | 14.5 | 0.00 | 0.08 | 0.08 | 47 | 1008.2 |
| 20260509200908 | 33 | 263 | 1.6 | 14.5 | 0.00 | 0.08 | 0.08 | 47 | 1008.2 |
| 20260509200820 | 33 | 344 | 1.6 | 14.5 | 0.00 | 0.08 | 0.08 | 48 | 1008.2 |
| 20260509200705 | 32 | 344 | 3.2 | 14.5 | 0.00 | 0.08 | 0.08 | 49 | 1008.3 |
| 20260509200608 | 32 | 345 | 6.4 | 14.5 | 0.00 | 0.08 | 0.08 | 50 | 1008.4 |
| 20260509200541 | 32 | 348 | 6.4 | 14.5 | 0.00 | 0.08 | 0.08 | 50 | 1008.3 |
| 20260509200408 | 32 | 309 | 4.8 | 12.9 | 0.00 | 0.08 | 0.08 | 51 | 1008.3 |
| 20260509200314 | 32 | 286 | 3.2 | 11.3 | 0.00 | 0.08 | 0.08 | 52 | 1008.3 |
| 20260509200158 | 31 | 271 | 0.0 | 14.5 | 0.00 | 0.08 | 0.08 | 51 | 1008.2 |
| 20260509200103 | 31 | 269 | 0.0 | 14.5 | 0.00 | 0.08 | 0.08 | 51 | 1008.3 |
| 20260509200036 | 31 | 269 | 0.0 | 14.5 | 0.00 | 0.08 | 0.08 | 51 | 1008.2 |
| 20260509195859 | 31 | 269 | 1.6 | 14.5 | 0.00 | 0.08 | 0.08 | 51 | 1008.2 |
| 20260509195808 | 31 | 269 | 3.2 | 14.5 | 0.00 | 0.08 | 0.08 | 51 | 1008.3 |
| 20260509195719 | 31 | 269 | 4.8 | 14.5 | 0.00 | 0.08 | 0.08 | 51 | 1008.3 |
| 20260509195603 | 31 | 265 | 3.2 | 14.5 | 0.00 | 0.08 | 0.08 | 54 | 1008.3 |
| 20260509195507 | 31 | 290 | 4.8 | 14.5 | 0.00 | 0.08 | 0.08 | 54 | 1008.3 |
| 20260509195412 | 31 | 309 | 4.8 | 14.5 | 0.00 | 0.08 | 0.08 | 54 | 1008.4 |
| 20260509195317 | 31 | 249 | 1.6 | 12.9 | 0.00 | 0.08 | 0.08 | 53 | 1008.4 |
| 20260509195212 | 31 | 236 | 1.6 | 12.9 | 0.00 | 0.08 | 0.08 | 54 | 1008.3 |
| 20260509195056 | 31 | 238 | 3.2 | 12.9 | 0.00 | 0.08 | 0.08 | 53 | 1008.3 |
| 20260509195000 | 31 | 245 | 1.6 | 12.9 | 0.00 | 0.08 | 0.08 | 56 | 1008.3 |
| 20260509194906 | 31 | 183 | 1.6 | 16.1 | 0.00 | 0.08 | 0.08 | 54 | 1008.2 |
| 20260509194818 | 31 | 182 | 1.6 | 16.1 | 0.00 | 0.08 | 0.08 | 54 | 1008.2 |
| 20260509194706 | 31 | 182 | 6.4 | 16.1 | 0.00 | 0.08 | 0.08 | 56 | 1008.2 |
| 20260509194611 | 31 | 207 | 4.8 | 16.1 | 0.00 | 0.08 | 0.08 | 55 | 1008.2 |
| 20260509194515 | 31 | 230 | 4.8 | 16.1 | 0.00 | 0.08 | 0.08 | 55 | 1008.3 |
| 20260509194359 | 31 | 146 | 4.8 | 16.1 | 0.00 | 0.08 | 0.08 | 55 | 1008.3 |
| 20260509194310 | 31 | 178 | 6.4 | 16.1 | 0.00 | 0.08 | 0.08 | 56 | 1008.3 |
| 20260509194215 | 31 | 234 | 6.4 | 16.1 | 0.00 | 0.08 | 0.08 | 56 | 1008.4 |
| 20260509194104 | 31 | 209 | 4.8 | 16.1 | 0.00 | 0.08 | 0.08 | 55 | 1008.3 |
| 20260509194008 | 32 | 199 | 6.4 | 16.1 | 0.00 | 0.08 | 0.08 | 54 | 1008.3 |
| 20260509193919 | 32 | 234 | 8.0 | 16.1 | 0.00 | 0.08 | 0.08 | 53 | 1008.3 |
| 20260509193803 | 32 | 219 | 8.0 | 16.1 | 0.00 | 0.08 | 0.08 | 52 | 1008.4 |
| 20260509193714 | 32 | 220 | 9.7 | 16.1 | 0.00 | 0.08 | 0.08 | 53 | 1008.3 |
| 20260509193617 | 32 | 236 | 8.0 | 14.5 | 0.00 | 0.08 | 0.08 | 54 | 1008.3 |
| 20260509193505 | 32 | 276 | 4.8 | 14.5 | 0.00 | 0.08 | 0.08 | 54 | 1008.4 |
| 20260509193410 | 32 | 243 | 4.8 | 11.3 | 0.00 | 0.08 | 0.08 | 55 | 1008.5 |
| 20260509193342 | 31 | 219 | 4.8 | 11.3 | 0.00 | 0.08 | 0.08 | 53 | 1008.5 |
| 20260509193205 | 32 | 236 | 4.8 | 12.9 | 0.00 | 0.08 | 0.08 | 53 | 1008.6 |
| 20260509193110 | 32 | 234 | 1.6 | 12.9 | 0.00 | 0.08 | 0.08 | 55 | 1008.6 |
| 20260509193014 | 31 | 221 | 0.0 | 12.9 | 0.00 | 0.08 | 0.08 | 52 | 1008.5 |
| 20260509192926 | 31 | 221 | 1.6 | 12.9 | 0.00 | 0.08 | 0.08 | 53 | 1008.6 |
| 20260509192814 | 31 | 221 | 3.2 | 12.9 | 0.00 | 0.08 | 0.08 | 54 | 1008.6 |
| 20260509192658 | 31 | 221 | 6.4 | 12.9 | 0.00 | 0.08 | 0.08 | 54 | 1008.7 |
| 20260509192603 | 31 | 232 | 8.0 | 12.9 | 0.00 | 0.08 | 0.08 | 54 | 1008.6 |
| 20260509192514 | 31 | 220 | 8.0 | 12.9 | 0.00 | 0.08 | 0.08 | 53 | 1008.7 |
| 20260509192358 | 31 | 254 | 6.4 | 12.9 | 0.00 | 0.08 | 0.08 | 54 | 1008.6 |
| 20260509192308 | 31 | 224 | 6.4 | 12.9 | 0.00 | 0.08 | 0.08 | 54 | 1008.7 |
| 20260509192219 | 32 | 226 | 6.4 | 16.1 | 0.00 | 0.08 | 0.08 | 55 | 1008.7 |
| 20260509192103 | 32 | 248 | 6.4 | 16.1 | 0.00 | 0.08 | 0.08 | 53 | 1008.7 |
| 20260509192007 | 32 | 227 | 3.2 | 16.1 | 0.00 | 0.08 | 0.08 | 54 | 1008.7 |
| 20260509191912 | 32 | 245 | 1.6 | 16.1 | 0.00 | 0.08 | 0.08 | 55 | 1008.7 |
| 20260509191757 | 31 | 244 | 4.8 | 16.1 | 0.00 | 0.08 | 0.08 | 55 | 1008.8 |
| 20260509191712 | 31 | 242 | 8.0 | 16.1 | 0.00 | 0.08 | 0.08 | 56 | 1008.8 |
| 20260509191617 | 31 | 246 | 8.0 | 16.1 | 0.00 | 0.08 | 0.08 | 56 | 1008.7 |
| 20260509191501 | 31 | 271 | 8.0 | 16.1 | 0.00 | 0.08 | 0.08 | 54 | 1008.8 |
| 20260509191413 | 32 | 213 | 9.7 | 16.1 | 0.00 | 0.08 | 0.08 | 54 | 1008.8 |
| 20260509191317 | 32 | 248 | 8.0 | 14.5 | 0.00 | 0.08 | 0.08 | 54 | 1008.8 |
| 20260509191201 | 32 | 233 | 3.2 | 14.5 | 0.00 | 0.08 | 0.08 | 53 | 1008.8 |
| 20260509191109 | 32 | 263 | 0.0 | 11.3 | 0.00 | 0.08 | 0.08 | 53 | 1008.8 |
| 20260509191014 | 32 | 263 | 1.6 | 11.3 | 0.00 | 0.08 | 0.08 | 52 | 1008.7 |
| 20260509190858 | 32 | 263 | 1.6 | 11.3 | 0.00 | 0.08 | 0.08 | 53 | 1008.8 |
| 20260509190831 | 32 | 277 | 3.2 | 11.3 | 0.00 | 0.08 | 0.08 | 53 | 1008.8 |
| 20260509190717 | 32 | 321 | 3.2 | 11.3 | 0.00 | 0.08 | 0.08 | 52 | 1008.8 |
| 20260509190600 | 31 | 280 | 3.2 | 11.3 | 0.00 | 0.08 | 0.08 | 53 | 1008.8 |
| 20260509190515 | 31 | 280 | 3.2 | 11.3 | 0.00 | 0.08 | 0.08 | 54 | 1008.9 |
| 20260509190359 | 31 | 280 | 4.8 | 17.7 | 0.00 | 0.08 | 0.08 | 54 | 1008.9 |
| 20260509190303 | 31 | 268 | 4.8 | 17.7 | 0.00 | 0.08 | 0.08 | 55 | 1008.9 |
| 20260509190235 | 30 | 267 | 3.2 | 17.7 | 0.00 | 0.08 | 0.08 | 55 | 1009.0 |
| 20260509190059 | 30 | 259 | 1.6 | 17.7 | 0.00 | 0.08 | 0.08 | 54 | 1008.9 |
| 20260509190004 | 30 | 261 | 3.2 | 17.7 | 0.00 | 0.08 | 0.08 | 55 | 1009.0 |
| 20260509185913 | 30 | 260 | 4.8 | 17.7 | 0.00 | 0.08 | 0.08 | 58 | 1009.0 |
| 20260509185801 | 30 | 226 | 4.8 | 17.7 | 0.00 | 0.08 | 0.08 | 56 | 1009.0 |
| 20260509185705 | 30 | 209 | 8.0 | 17.7 | 0.00 | 0.08 | 0.08 | 56 | 1009.0 |
| 20260509185610 | 30 | 210 | 8.0 | 17.7 | 0.00 | 0.08 | 0.08 | 55 | 1009.0 |
| 20260509185522 | 30 | 215 | 6.4 | 17.7 | 0.00 | 0.08 | 0.08 | 57 | 1008.9 |
| 20260509185405 | 30 | 223 | 6.4 | 14.5 | 0.00 | 0.08 | 0.08 | 57 | 1009.0 |
| 20260509185311 | 30 | 205 | 8.0 | 14.5 | 0.00 | 0.08 | 0.08 | 57 | 1009.0 |
| 20260509185159 | 30 | 265 | 4.8 | 14.5 | 0.00 | 0.08 | 0.08 | 57 | 1009.0 |
| 20260509185111 | 30 | 237 | 4.8 | 12.9 | 0.00 | 0.08 | 0.08 | 56 | 1009.1 |
| 20260509185036 | 30 | 239 | 3.2 | 11.3 | 0.00 | 0.08 | 0.08 | 57 | 1009.2 |
| 20260509184920 | 30 | 213 | 1.6 | 6.4 | 0.00 | 0.08 | 0.08 | 56 | 1009.1 |
| 20260509184810 | 30 | 213 | 1.6 | 6.4 | 0.00 | 0.08 | 0.08 | 56 | 1009.1 |
| 20260509184715 | 30 | 213 | 1.6 | 6.4 | 0.00 | 0.08 | 0.08 | 56 | 1009.2 |
| 20260509184603 | 30 | 213 | 1.6 | 11.3 | 0.00 | 0.08 | 0.08 | 57 | 1009.3 |
| 20260509184513 | 30 | 207 | 1.6 | 12.9 | 0.00 | 0.08 | 0.08 | 57 | 1009.2 |
| 20260509184358 | 30 | 207 | 0.0 | 12.9 | 0.00 | 0.08 | 0.08 | 57 | 1009.3 |
| 20260509184303 | 30 | 207 | 1.6 | 12.9 | 0.00 | 0.08 | 0.08 | 57 | 1009.2 |
| 20260509184208 | 30 | 207 | 1.6 | 14.5 | 0.00 | 0.08 | 0.08 | 57 | 1009.3 |
| 20260509184057 | 30 | 207 | 1.6 | 14.5 | 0.00 | 0.08 | 0.08 | 57 | 1009.3 |
| 20260509184023 | 30 | 207 | 3.2 | 14.5 | 0.00 | 0.08 | 0.08 | 59 | 1009.2 |
| 20260509183918 | 30 | 207 | 4.8 | 14.5 | 0.00 | 0.08 | 0.08 | 57 | 1009.3 |
| 20260509183801 | 30 | 213 | 8.0 | 14.5 | 0.00 | 0.08 | 0.08 | 56 | 1009.2 |
| 20260509183729 | 30 | 222 | 8.0 | 14.5 | 0.00 | 0.08 | 0.08 | 59 | 1009.3 |
| 20260509183618 | 30 | 224 | 8.0 | 14.5 | 0.00 | 0.08 | 0.08 | 56 | 1009.3 |
| 20260509183523 | 30 | 188 | 9.7 | 14.5 | 0.00 | 0.08 | 0.08 | 57 | 1009.3 |
| 20260509183407 | 31 | 206 | 6.4 | 14.5 | 0.00 | 0.08 | 0.08 | 57 | 1009.3 |
| 20260509183256 | 31 | 186 | 1.6 | 11.3 | 0.00 | 0.08 | 0.08 | 56 | 1009.4 |
| 20260509183207 | 30 | 182 | 0.0 | 11.3 | 0.00 | 0.08 | 0.08 | 55 | 1009.4 |
| 20260509183112 | 30 | 182 | 1.6 | 11.3 | 0.00 | 0.08 | 0.08 | 54 | 1009.5 |
| 20260509183017 | 30 | 182 | 1.6 | 11.3 | 0.00 | 0.08 | 0.08 | 55 | 1009.5 |
| 20260509182908 | 31 | 198 | 1.6 | 11.3 | 0.00 | 0.08 | 0.08 | 56 | 1009.5 |
| 20260509182812 | 30 | 198 | 4.8 | 11.3 | 0.00 | 0.08 | 0.08 | 59 | 1009.5 |
| 20260509182701 | 30 | 198 | 6.4 | 11.3 | 0.00 | 0.08 | 0.08 | 55 | 1009.5 |
| 20260509182606 | 31 | 190 | 3.2 | 11.3 | 0.00 | 0.08 | 0.08 | 55 | 1009.5 |
| 20260509182510 | 31 | 213 | 3.2 | 9.7 | 0.00 | 0.08 | 0.08 | 57 | 1009.6 |
| 20260509182422 | 30 | 225 | 3.2 | 9.7 | 0.00 | 0.08 | 0.08 | 58 | 1009.5 |
| 20260509182307 | 30 | 244 | 4.8 | 9.7 | 0.00 | 0.08 | 0.08 | 59 | 1009.6 |
| 20260509182211 | 30 | 225 | 4.8 | 9.7 | 0.00 | 0.08 | 0.08 | 57 | 1009.6 |
| 20260509182057 | 30 | 214 | 4.8 | 9.7 | 0.00 | 0.08 | 0.08 | 58 | 1009.7 |
| 20260509182002 | 30 | 219 | 1.6 | 8.0 | 0.00 | 0.08 | 0.08 | 58 | 1009.7 |
| 20260509181913 | 31 | 205 | 1.6 | 4.8 | 0.00 | 0.08 | 0.08 | 58 | 1009.7 |
| 20260509181756 | 31 | 203 | 1.6 | 4.8 | 0.00 | 0.08 | 0.08 | 57 | 1009.7 |
| 20260509181729 | 31 | 198 | 0.0 | 4.8 | 0.00 | 0.08 | 0.08 | 57 | 1009.7 |
| 20260509181611 | 31 | 198 | 0.0 | 4.8 | 0.00 | 0.08 | 0.08 | 58 | 1009.8 |
| 20260509181520 | 30 | 198 | 0.0 | 4.8 | 0.00 | 0.08 | 0.08 | 58 | 1009.7 |
| 20260509181431 | 30 | 198 | 0.0 | 4.8 | 0.00 | 0.08 | 0.08 | 58 | 1009.7 |
| 20260509181315 | 30 | 198 | 1.6 | 4.8 | 0.00 | 0.08 | 0.08 | 58 | 1009.7 |
| 20260509181159 | 30 | 107 | 1.6 | 4.8 | 0.00 | 0.08 | 0.08 | 59 | 1009.6 |
| 20260509181132 | 30 | 105 | 1.6 | 4.8 | 0.00 | 0.08 | 0.08 | 59 | 1009.7 |
| 20260509181016 | 30 | 194 | 0.0 | 4.8 | 0.00 | 0.08 | 0.08 | 58 | 1009.6 |
| 20260509180927 | 30 | 203 | 0.0 | 6.4 | 0.00 | 0.08 | 0.08 | 59 | 1009.7 |
| 20260509180815 | 30 | 203 | 0.0 | 8.0 | 0.00 | 0.08 | 0.08 | 59 | 1009.7 |
| 20260509180700 | 30 | 203 | 0.0 | 16.1 | 0.00 | 0.08 | 0.08 | 59 | 1009.6 |
| 20260509180604 | 30 | 207 | 0.0 | 16.1 | 0.00 | 0.08 | 0.08 | 59 | 1009.6 |
| 20260509180516 | 30 | 207 | 0.0 | 16.1 | 0.00 | 0.08 | 0.08 | 58 | 1009.7 |
| 20260509180421 | 30 | 254 | 0.0 | 16.1 | 0.00 | 0.08 | 0.08 | 57 | 1009.7 |
| 20260509180305 | 30 | 259 | 1.6 | 16.1 | 0.00 | 0.08 | 0.08 | 58 | 1009.7 |
| 20260509180220 | 30 | 259 | 1.6 | 16.1 | 0.00 | 0.08 | 0.08 | 58 | 1009.7 |
| 20260509180057 | 30 | 284 | 3.2 | 16.1 | 0.00 | 0.08 | 0.08 | 58 | 1009.7 |
| 20260509180028 | 30 | 284 | 6.4 | 16.1 | 0.00 | 0.08 | 0.08 | 57 | 1009.7 |
| 20260509175913 | 30 | 282 | 6.4 | 16.1 | 0.00 | 0.08 | 0.08 | 58 | 1009.8 |
| 20260509175824 | 30 | 227 | 3.2 | 12.9 | 0.00 | 0.08 | 0.08 | 62 | 1009.7 |
| 20260509175708 | 30 | 194 | 1.6 | 12.9 | 0.00 | 0.08 | 0.08 | 61 | 1009.8 |
| 20260509175557 | 30 | 174 | 1.6 | 14.5 | 0.00 | 0.08 | 0.08 | 62 | 1009.8 |
| 20260509175502 | 29 | 143 | 4.8 | 16.1 | 0.00 | 0.08 | 0.08 | 61 | 1009.8 |
| 20260509175413 | 29 | 142 | 8.0 | 16.1 | 0.00 | 0.08 | 0.08 | 61 | 1009.8 |
| 20260509175258 | 29 | 218 | 8.0 | 16.1 | 0.00 | 0.08 | 0.08 | 62 | 1009.8 |
| 20260509175203 | 29 | 222 | 8.0 | 16.1 | 0.00 | 0.08 | 0.08 | 61 | 1009.8 |
| 20260509175108 | 29 | 246 | 6.4 | 16.1 | 0.00 | 0.08 | 0.08 | 64 | 1009.8 |
| 20260509174956 | 29 | 219 | 8.0 | 16.1 | 0.00 | 0.08 | 0.08 | 63 | 1009.8 |
| 20260509174908 | 29 | 227 | 9.7 | 16.1 | 0.00 | 0.08 | 0.08 | 62 | 1009.9 |
| 20260509174813 | 29 | 228 | 11.3 | 16.1 | 0.00 | 0.08 | 0.08 | 61 | 1009.9 |
| 20260509174657 | 29 | 225 | 9.7 | 16.1 | 0.00 | 0.08 | 0.08 | 61 | 1010.0 |
| 20260509174629 | 29 | 223 | 6.4 | 16.1 | 0.00 | 0.08 | 0.08 | 62 | 1010.1 |
| 20260509174513 | 29 | 247 | 4.8 | 14.5 | 0.00 | 0.08 | 0.08 | 63 | 1010.2 |
| 20260509174402 | 30 | 190 | 1.6 | 8.0 | 0.00 | 0.08 | 0.08 | 60 | 1010.2 |
| 20260509174307 | 30 | 206 | 3.2 | 8.0 | 0.00 | 0.08 | 0.08 | 61 | 1010.3 |
| 20260509174220 | 30 | 226 | 3.2 | 8.0 | 0.00 | 0.08 | 0.08 | 61 | 1010.3 |
| 20260509174056 | 30 | 217 | 3.2 | 8.0 | 0.00 | 0.08 | 0.08 | 61 | 1010.4 |
| 20260509174007 | 30 | 217 | 3.2 | 8.0 | 0.00 | 0.08 | 0.08 | 61 | 1010.4 |
| 20260509173856 | 30 | 216 | 3.2 | 8.0 | 0.00 | 0.08 | 0.08 | 61 | 1010.5 |
| 20260509173801 | 30 | 215 | 3.2 | 8.0 | 0.00 | 0.08 | 0.08 | 60 | 1010.3 |
| 20260509173707 | 30 | 214 | 1.6 | 9.7 | 0.00 | 0.08 | 0.08 | 60 | 1010.3 |
| 20260509173617 | 30 | 213 | 0.0 | 9.7 | 0.00 | 0.08 | 0.08 | 61 | 1010.4 |
| 20260509173501 | 30 | 213 | 0.0 | 11.3 | 0.00 | 0.08 | 0.08 | 60 | 1010.4 |
| 20260509173406 | 30 | 213 | 0.0 | 11.3 | 0.00 | 0.08 | 0.08 | 60 | 1010.5 |
| 20260509173316 | 30 | 213 | 0.0 | 11.3 | 0.00 | 0.08 | 0.08 | 62 | 1010.4 |
| 20260509173200 | 28 | 214 | 0.0 | 11.3 | 0.00 | 0.08 | 0.08 | 64 | 1010.5 |
| 20260509173112 | 28 | 214 | 1.6 | 11.3 | 0.00 | 0.08 | 0.08 | 64 | 1010.5 |
| 20260509172956 | 28 | 214 | 6.4 | 11.3 | 0.00 | 0.08 | 0.08 | 64 | 1010.5 |
| 20260509172901 | 28 | 213 | 8.0 | 14.5 | 0.00 | 0.08 | 0.08 | 64 | 1010.5 |
| 20260509172812 | 28 | 213 | 6.4 | 14.5 | 0.00 | 0.08 | 0.08 | 62 | 1010.5 |
| 20260509172701 | 29 | 200 | 4.8 | 14.5 | 0.00 | 0.08 | 0.08 | 62 | 1010.5 |
| 20260509172606 | 29 | 248 | 3.2 | 14.5 | 0.00 | 0.08 | 0.08 | 61 | 1010.5 |
| 20260509172511 | 30 | 250 | 3.2 | 14.5 | 0.00 | 0.08 | 0.08 | 62 | 1010.5 |
| 20260509172424 | 30 | 246 | 4.8 | 14.5 | 0.00 | 0.08 | 0.08 | 61 | 1010.5 |
| 20260509172300 | 30 | 242 | 8.0 | 14.5 | 0.00 | 0.08 | 0.08 | 64 | 1010.5 |
| 20260509172232 | 30 | 225 | 6.4 | 14.5 | 0.00 | 0.08 | 0.08 | 64 | 1010.4 |
| 20260509172059 | 30 | 255 | 3.2 | 14.5 | 0.00 | 0.08 | 0.08 | 63 | 1010.5 |
| 20260509172004 | 30 | 263 | 0.0 | 9.7 | 0.00 | 0.08 | 0.08 | 63 | 1010.5 |
| 20260509171915 | 30 | 269 | 1.6 | 11.3 | 0.00 | 0.08 | 0.08 | 63 | 1010.4 |
| 20260509171800 | 29 | 274 | 1.6 | 11.3 | 0.00 | 0.08 | 0.08 | 64 | 1010.4 |
| 20260509171705 | 29 | 274 | 3.2 | 11.3 | 0.00 | 0.08 | 0.08 | 67 | 1010.3 |
| 20260509171637 | 28 | 213 | 3.2 | 11.3 | 0.00 | 0.08 | 0.08 | 65 | 1010.4 |
| 20260509171504 | 28 | 214 | 1.6 | 11.3 | 0.00 | 0.08 | 0.08 | 65 | 1010.4 |
| 20260509171410 | 28 | 157 | 1.6 | 11.3 | 0.00 | 0.08 | 0.08 | 65 | 1010.3 |
| 20260509171315 | 28 | 157 | 3.2 | 11.3 | 0.00 | 0.08 | 0.08 | 66 | 1010.4 |
| 20260509171159 | 28 | 181 | 4.8 | 14.5 | 0.00 | 0.08 | 0.08 | 68 | 1010.4 |
| 20260509171110 | 28 | 180 | 4.8 | 14.5 | 0.00 | 0.08 | 0.08 | 66 | 1010.4 |
| 20260509170959 | 28 | 185 | 1.6 | 14.5 | 0.00 | 0.08 | 0.08 | 67 | 1010.4 |
| 20260509170925 | 28 | 185 | 1.6 | 14.5 | 0.00 | 0.08 | 0.08 | 66 | 1010.4 |
| 20260509170815 | 28 | 246 | 3.2 | 14.5 | 0.00 | 0.08 | 0.08 | 67 | 1010.4 |
| 20260509170701 | 28 | 265 | 6.4 | 14.5 | 0.00 | 0.08 | 0.08 | 66 | 1010.4 |
| 20260509170605 | 28 | 267 | 6.4 | 14.5 | 0.00 | 0.08 | 0.08 | 68 | 1010.5 |
| 20260509170510 | 28 | 252 | 6.4 | 14.5 | 0.00 | 0.08 | 0.08 | 67 | 1010.4 |
| 20260509170358 | 28 | 249 | 1.6 | 12.9 | 0.00 | 0.08 | 0.08 | 69 | 1010.5 |
| 20260509170303 | 28 | 225 | 0.0 | 12.9 | 0.00 | 0.08 | 0.08 | 69 | 1010.5 |
| 20260509170236 | 28 | 225 | 0.0 | 12.9 | 0.00 | 0.08 | 0.08 | 68 | 1010.5 |
| 20260509170059 | 28 | 225 | 1.6 | 12.9 | 0.00 | 0.08 | 0.08 | 66 | 1010.5 |
| 20260509170004 | 28 | 225 | 4.8 | 12.9 | 0.00 | 0.08 | 0.08 | 65 | 1010.5 |
| 20260509165916 | 28 | 225 | 4.8 | 12.9 | 0.00 | 0.08 | 0.08 | 65 | 1010.5 |
| 20260509165804 | 28 | 223 | 3.2 | 12.9 | 0.00 | 0.08 | 0.08 | 68 | 1010.4 |
| 20260509165731 | 28 | 227 | 3.2 | 11.3 | 0.00 | 0.08 | 0.08 | 67 | 1010.6 |
| 20260509165621 | 28 | 227 | 6.4 | 11.3 | 0.00 | 0.08 | 0.08 | 67 | 1010.5 |
| 20260509165505 | 28 | 228 | 8.0 | 12.9 | 0.00 | 0.08 | 0.08 | 66 | 1010.5 |
| 20260509165411 | 29 | 211 | 4.8 | 12.9 | 0.00 | 0.08 | 0.08 | 67 | 1010.5 |
| 20260509165316 | 28 | 281 | 1.6 | 12.9 | 0.00 | 0.08 | 0.08 | 68 | 1010.6 |
| 20260509165204 | 28 | 268 | 1.6 | 12.9 | 0.00 | 0.08 | 0.08 | 69 | 1010.6 |
| 20260509165116 | 28 | 267 | 4.8 | 12.9 | 0.00 | 0.08 | 0.08 | 69 | 1010.5 |
| 20260509165000 | 28 | 266 | 6.4 | 12.9 | 0.00 | 0.08 | 0.08 | 69 | 1010.6 |
| 20260509164905 | 28 | 265 | 6.4 | 12.9 | 0.00 | 0.08 | 0.08 | 70 | 1010.5 |
| 20260509164810 | 28 | 238 | 6.4 | 12.9 | 0.00 | 0.08 | 0.08 | 70 | 1010.5 |
| 20260509164702 | 28 | 223 | 6.4 | 12.9 | 0.00 | 0.08 | 0.08 | 71 | 1010.5 |
| 20260509164609 | 27 | 169 | 4.8 | 12.9 | 0.00 | 0.08 | 0.08 | 69 | 1010.5 |
| 20260509164514 | 27 | 161 | 4.8 | 16.1 | 0.00 | 0.08 | 0.08 | 70 | 1010.5 |
| 20260509164358 | 27 | 205 | 3.2 | 16.1 | 0.00 | 0.08 | 0.08 | 69 | 1010.5 |
| 20260509164304 | 27 | 217 | 4.8 | 16.1 | 0.00 | 0.08 | 0.08 | 71 | 1010.5 |
| 20260509164236 | 27 | 227 | 4.8 | 16.1 | 0.00 | 0.08 | 0.08 | 70 | 1010.5 |
| 20260509164059 | 27 | 188 | 4.8 | 16.1 | 0.00 | 0.08 | 0.08 | 71 | 1010.6 |
| 20260509164031 | 28 | 202 | 4.8 | 16.1 | 0.00 | 0.08 | 0.08 | 70 | 1010.5 |
| 20260509163918 | 27 | 246 | 6.4 | 16.1 | 0.00 | 0.08 | 0.08 | 70 | 1010.5 |
| 20260509163830 | 27 | 236 | 8.0 | 16.1 | 0.00 | 0.08 | 0.08 | 69 | 1010.5 |
| 20260509163715 | 28 | 250 | 8.0 | 16.1 | 0.00 | 0.08 | 0.08 | 69 | 1010.5 |
| 20260509163558 | 28 | 210 | 6.4 | 16.1 | 0.00 | 0.08 | 0.08 | 68 | 1010.5 |
| 20260509163503 | 28 | 253 | 3.2 | 12.9 | 0.00 | 0.08 | 0.08 | 68 | 1010.5 |
| 20260509163415 | 28 | 257 | 1.6 | 12.9 | 0.00 | 0.08 | 0.08 | 70 | 1010.5 |
| 20260509163303 | 28 | 236 | 1.6 | 12.9 | 0.00 | 0.08 | 0.08 | 73 | 1010.5 |
| 20260509163209 | 27 | 236 | 3.2 | 12.9 | 0.00 | 0.08 | 0.08 | 71 | 1010.5 |
| 20260509163114 | 27 | 236 | 4.8 | 12.9 | 0.00 | 0.08 | 0.08 | 72 | 1010.6 |
| 20260509162958 | 27 | 215 | 6.4 | 12.9 | 0.00 | 0.08 | 0.08 | 71 | 1010.5 |
| 20260509162909 | 27 | 227 | 8.0 | 12.9 | 0.00 | 0.08 | 0.08 | 71 | 1010.5 |
| 20260509162758 | 28 | 226 | 6.4 | 12.9 | 0.00 | 0.08 | 0.08 | 72 | 1010.5 |
| 20260509162703 | 27 | 227 | 3.2 | 17.7 | 0.00 | 0.08 | 0.08 | 72 | 1010.5 |
| 20260509162608 | 27 | 207 | 1.6 | 17.7 | 0.00 | 0.08 | 0.08 | 73 | 1010.5 |
| 20260509162519 | 27 | 200 | 3.2 | 17.7 | 0.00 | 0.08 | 0.08 | 73 | 1010.5 |
| 20260509162405 | 27 | 200 | 4.8 | 17.7 | 0.00 | 0.08 | 0.08 | 71 | 1010.6 |
| 20260509162328 | 27 | 223 | 4.8 | 17.7 | 0.00 | 0.08 | 0.08 | 74 | 1010.5 |
| 20260509162219 | 27 | 232 | 4.8 | 17.7 | 0.00 | 0.08 | 0.08 | 74 | 1010.5 |
| 20260509162106 | 27 | 218 | 4.8 | 17.7 | 0.00 | 0.08 | 0.08 | 73 | 1010.4 |
| 20260509162010 | 27 | 239 | 6.4 | 17.7 | 0.00 | 0.08 | 0.08 | 73 | 1010.5 |
| 20260509161915 | 27 | 244 | 4.8 | 17.7 | 0.00 | 0.08 | 0.08 | 73 | 1010.5 |
| 20260509161759 | 26 | 239 | 3.2 | 16.1 | 0.00 | 0.08 | 0.08 | 75 | 1010.4 |
| 20260509161711 | 26 | 261 | 4.8 | 16.1 | 0.00 | 0.08 | 0.08 | 75 | 1010.5 |
| 20260509161559 | 26 | 241 | 4.8 | 16.1 | 0.00 | 0.08 | 0.08 | 74 | 1010.5 |
| 20260509161504 | 26 | 238 | 6.4 | 16.1 | 0.00 | 0.08 | 0.08 | 74 | 1010.4 |
| 20260509161409 | 26 | 217 | 8.0 | 16.1 | 0.00 | 0.08 | 0.08 | 73 | 1010.4 |
| 20260509161321 | 27 | 223 | 9.7 | 16.1 | 0.00 | 0.08 | 0.08 | 73 | 1010.4 |
| 20260509161206 | 27 | 238 | 8.0 | 16.1 | 0.00 | 0.08 | 0.08 | 72 | 1010.4 |
| 20260509161110 | 27 | 265 | 6.4 | 14.5 | 0.00 | 0.08 | 0.08 | 73 | 1010.4 |
| 20260509161019 | 27 | 270 | 3.2 | 14.5 | 0.00 | 0.08 | 0.08 | 73 | 1010.4 |
| 20260509160910 | 27 | 285 | 1.6 | 14.5 | 0.00 | 0.08 | 0.08 | 74 | 1010.5 |
| 20260509160814 | 27 | 228 | 1.6 | 14.5 | 0.00 | 0.08 | 0.08 | 74 | 1010.4 |
| 20260509160659 | 27 | 225 | 1.6 | 14.5 | 0.00 | 0.08 | 0.08 | 73 | 1010.4 |
| 20260509160610 | 27 | 225 | 4.8 | 14.5 | 0.00 | 0.08 | 0.08 | 75 | 1010.4 |
| 20260509160515 | 26 | 268 | 6.4 | 14.5 | 0.00 | 0.08 | 0.08 | 76 | 1010.5 |
| 20260509160402 | 26 | 263 | 6.4 | 14.5 | 0.00 | 0.08 | 0.08 | 77 | 1010.4 |
| 20260509160307 | 26 | 264 | 4.8 | 14.5 | 0.00 | 0.08 | 0.08 | 78 | 1010.5 |
| 20260509160219 | 26 | 275 | 3.2 | 14.5 | 0.00 | 0.08 | 0.08 | 79 | 1010.6 |
| 20260509160124 | 25 | 236 | 8.0 | 14.5 | 0.00 | 0.08 | 0.08 | 79 | 1010.5 |
| 20260509160005 | 25 | 235 | 9.7 | 14.5 | 0.00 | 0.08 | 0.08 | 78 | 1010.5 |
| 20260509155910 | 26 | 227 | 8.0 | 14.5 | 0.00 | 0.08 | 0.08 | 79 | 1010.5 |
| 20260509155758 | 26 | 196 | 4.8 | 12.9 | 0.00 | 0.08 | 0.08 | 79 | 1010.5 |
| 20260509155708 | 26 | 219 | 4.8 | 12.9 | 0.00 | 0.08 | 0.08 | 79 | 1010.5 |
| 20260509155612 | 26 | 232 | 4.8 | 12.9 | 0.00 | 0.08 | 0.08 | 80 | 1010.5 |
| 20260509155524 | 26 | 233 | 6.4 | 12.9 | 0.00 | 0.08 | 0.08 | 79 | 1010.4 |
| 20260509155408 | 26 | 215 | 4.8 | 12.9 | 0.00 | 0.08 | 0.08 | 81 | 1010.5 |
| 20260509155314 | 26 | 230 | 4.8 | 12.9 | 0.00 | 0.08 | 0.08 | 82 | 1010.4 |
| 20260509155157 | 25 | 213 | 6.4 | 12.9 | 0.00 | 0.08 | 0.08 | 80 | 1010.5 |
| 20260509155113 | 25 | 213 | 6.4 | 12.9 | 0.00 | 0.08 | 0.08 | 80 | 1010.5 |
| 20260509154956 | 26 | 233 | 1.6 | 12.9 | 0.00 | 0.08 | 0.08 | 82 | 1010.5 |
| 20260509154901 | 25 | 221 | 1.6 | 12.9 | 0.00 | 0.08 | 0.08 | 83 | 1010.5 |
| 20260509154805 | 25 | 220 | 3.2 | 12.9 | 0.00 | 0.08 | 0.08 | 84 | 1010.5 |
| 20260509154717 | 25 | 220 | 3.2 | 12.9 | 0.00 | 0.08 | 0.08 | 84 | 1010.6 |
| 20260509154605 | 25 | 201 | 4.8 | 12.9 | 0.00 | 0.08 | 0.08 | 84 | 1010.6 |
| 20260509154509 | 25 | 200 | 6.4 | 14.5 | 0.00 | 0.08 | 0.08 | 85 | 1010.6 |
| 20260509154414 | 25 | 227 | 8.0 | 14.5 | 0.00 | 0.08 | 0.08 | 85 | 1010.7 |
| 20260509154257 | 25 | 217 | 4.8 | 14.5 | 0.00 | 0.08 | 0.08 | 86 | 1010.6 |
| 20260509154208 | 25 | 254 | 4.8 | 17.7 | 0.00 | 0.08 | 0.08 | 87 | 1010.6 |
| 20260509154113 | 25 | 225 | 4.8 | 17.7 | 0.00 | 0.08 | 0.08 | 87 | 1010.5 |
| 20260509154002 | 25 | 219 | 6.4 | 19.3 | 0.00 | 0.08 | 0.08 | 88 | 1010.6 |
| 20260509153934 | 25 | 220 | 4.8 | 19.3 | 0.00 | 0.08 | 0.08 | 89 | 1010.5 |
| 20260509153817 | 24 | 219 | 6.4 | 19.3 | 0.00 | 0.08 | 0.08 | 89 | 1010.5 |
| 20260509153702 | 24 | 210 | 8.0 | 19.3 | 0.00 | 0.08 | 0.08 | 89 | 1010.6 |
| 20260509153613 | 23 | 231 | 8.0 | 19.3 | 0.00 | 0.08 | 0.08 | 89 | 1010.6 |
| 20260509153457 | 23 | 221 | 9.7 | 19.3 | 0.00 | 0.08 | 0.08 | 89 | 1010.5 |
| 20260509153402 | 23 | 232 | 11.3 | 19.3 | 0.00 | 0.08 | 0.08 | 89 | 1010.6 |
| 20260509153337 | 23 | 235 | 14.5 | 19.3 | 0.00 | 0.08 | 0.08 | 89 | 1010.5 |
| 20260509153220 | 23 | 236 | 12.9 | 19.3 | 0.00 | 0.08 | 0.08 | 89 | 1010.6 |
| 20260509153110 | 23 | 229 | 12.9 | 20.9 | 0.00 | 0.08 | 0.08 | 90 | 1010.6 |
| 20260509153014 | 23 | 216 | 12.9 | 17.7 | 0.00 | 0.08 | 0.08 | 90 | 1010.6 |
| 20260509152859 | 23 | 225 | 11.3 | 17.7 | 0.00 | 0.08 | 0.08 | 90 | 1010.6 |
| 20260509152809 | 23 | 197 | 12.9 | 17.7 | 0.00 | 0.08 | 0.08 | 90 | 1010.7 |
| 20260509152714 | 23 | 204 | 12.9 | 17.7 | 0.00 | 0.08 | 0.08 | 90 | 1010.7 |
| 20260509152602 | 23 | 224 | 12.9 | 19.3 | 0.00 | 0.08 | 0.08 | 91 | 1010.7 |
| 20260509152507 | 23 | 179 | 9.7 | 19.3 | 0.00 | 0.08 | 0.08 | 91 | 1010.8 |
| 20260509152418 | 23 | 229 | 6.4 | 19.3 | 0.00 | 0.08 | 0.08 | 91 | 1010.7 |
| 20260509152305 | 23 | 225 | 6.4 | 19.3 | 0.00 | 0.08 | 0.08 | 91 | 1010.8 |
| 20260509152207 | 23 | 184 | 9.7 | 19.3 | 0.00 | 0.08 | 0.08 | 91 | 1010.8 |
| 20260509152112 | 23 | 190 | 8.0 | 19.3 | 0.00 | 0.08 | 0.08 | 91 | 1010.8 |
| 20260509151959 | 22 | 234 | 8.0 | 19.3 | 0.00 | 0.08 | 0.08 | 92 | 1010.8 |
| 20260509151910 | 22 | 209 | 8.0 | 19.3 | 0.00 | 0.08 | 0.08 | 91 | 1010.7 |
| 20260509151836 | 22 | 212 | 11.3 | 19.3 | 0.00 | 0.08 | 0.08 | 91 | 1010.7 |
| 20260509151659 | 22 | 196 | 11.3 | 19.3 | 0.00 | 0.08 | 0.08 | 92 | 1010.7 |
| 20260509151604 | 22 | 207 | 9.7 | 19.3 | 0.00 | 0.08 | 0.08 | 92 | 1010.8 |
| 20260509151501 | 22 | 207 | 6.4 | 16.1 | 0.00 | 0.08 | 0.08 | 92 | 1010.6 |
| 20260509151404 | 22 | 221 | 6.4 | 14.5 | 0.00 | 0.08 | 0.08 | 92 | 1010.7 |
| 20260509151308 | 22 | 211 | 6.4 | 14.5 | 0.00 | 0.08 | 0.08 | 92 | 1010.7 |
| 20260509151219 | 22 | 186 | 8.0 | 14.5 | 0.00 | 0.08 | 0.08 | 92 | 1010.7 |
| 20260509151102 | 22 | 190 | 8.0 | 12.9 | 0.00 | 0.08 | 0.08 | 92 | 1010.7 |
| 20260509151027 | 22 | 167 | 8.0 | 17.7 | 0.00 | 0.08 | 0.08 | 92 | 1010.7 |
| 20260509150917 | 22 | 173 | 8.0 | 17.7 | 0.00 | 0.08 | 0.08 | 92 | 1010.7 |
| 20260509150806 | 22 | 216 | 8.0 | 17.7 | 0.00 | 0.08 | 0.08 | 92 | 1010.7 |
| 20260509150712 | 22 | 213 | 8.0 | 17.7 | 0.00 | 0.08 | 0.08 | 92 | 1010.7 |
| 20260509150555 | 22 | 195 | 6.4 | 17.7 | 0.00 | 0.08 | 0.08 | 92 | 1010.7 |
| 20260509150528 | 22 | 207 | 4.8 | 17.7 | 0.00 | 0.08 | 0.08 | 92 | 1010.6 |
| 20260509150440 | 22 | 196 | 4.8 | 17.7 | 0.00 | 0.08 | 0.08 | 92 | 1010.7 |
| 20260509150324 | 22 | 190 | 8.0 | 17.7 | 0.00 | 0.08 | 0.08 | 92 | 1010.7 |
| 20260509150214 | 22 | 193 | 8.0 | 17.7 | 0.00 | 0.08 | 0.08 | 92 | 1010.7 |
| 20260509150057 | 22 | 178 | 8.0 | 16.1 | 0.00 | 0.08 | 0.08 | 92 | 1010.6 |
| 20260509150006 | 22 | 187 | 8.0 | 16.1 | 0.00 | 0.08 | 0.08 | 92 | 1010.7 |
| 20260509145918 | 22 | 182 | 9.7 | 16.1 | 0.00 | 0.08 | 0.08 | 92 | 1010.7 |
| 20260509145802 | 22 | 171 | 8.0 | 16.1 | 0.03 | 0.08 | 0.08 | 92 | 1010.7 |
| 20260509145707 | 22 | 184 | 4.8 | 14.5 | 0.03 | 0.08 | 0.08 | 92 | 1010.6 |
| 20260509145612 | 22 | 159 | 4.8 | 14.5 | 0.03 | 0.08 | 0.08 | 92 | 1010.7 |
| 20260509145501 | 22 | 200 | 8.0 | 14.5 | 0.03 | 0.08 | 0.08 | 92 | 1010.6 |
| 20260509145412 | 22 | 190 | 8.0 | 14.5 | 0.03 | 0.08 | 0.08 | 92 | 1010.6 |
| 20260509145317 | 22 | 181 | 4.8 | 14.5 | 0.03 | 0.08 | 0.08 | 92 | 1010.6 |
| 20260509145202 | 22 | 171 | 4.8 | 14.5 | 0.03 | 0.08 | 0.08 | 92 | 1010.5 |
| 20260509145113 | 22 | 189 | 6.4 | 14.5 | 0.03 | 0.08 | 0.08 | 92 | 1010.5 |
| 20260509145018 | 22 | 176 | 6.4 | 14.5 | 0.03 | 0.08 | 0.08 | 92 | 1010.6 |
| 20260509144906 | 22 | 172 | 4.8 | 16.1 | 0.03 | 0.08 | 0.08 | 92 | 1010.4 |
| 20260509144838 | 22 | 194 | 6.4 | 16.1 | 0.03 | 0.08 | 0.08 | 92 | 1010.4 |
| 20260509144703 | 22 | 182 | 6.4 | 16.1 | 0.03 | 0.08 | 0.08 | 92 | 1010.4 |
| 20260509144608 | 22 | 177 | 6.4 | 16.1 | 0.03 | 0.08 | 0.08 | 92 | 1010.4 |
| 20260509144513 | 22 | 202 | 6.4 | 16.1 | 0.03 | 0.08 | 0.08 | 92 | 1010.3 |
| 20260509144358 | 22 | 207 | 8.0 | 16.1 | 0.03 | 0.08 | 0.08 | 92 | 1010.3 |
| 20260509144307 | 22 | 155 | 9.7 | 16.1 | 0.03 | 0.08 | 0.08 | 92 | 1010.3 |
| 20260509144218 | 22 | 204 | 9.7 | 16.1 | 0.03 | 0.08 | 0.08 | 92 | 1010.3 |
| 20260509144102 | 22 | 173 | 8.0 | 16.1 | 0.03 | 0.08 | 0.08 | 92 | 1010.3 |
| 20260509144007 | 22 | 172 | 8.0 | 16.1 | 0.03 | 0.08 | 0.08 | 92 | 1010.3 |
| 20260509143919 | 22 | 182 | 6.4 | 14.5 | 0.03 | 0.08 | 0.08 | 92 | 1010.3 |
| 20260509143803 | 22 | 190 | 8.0 | 14.5 | 0.03 | 0.08 | 0.08 | 92 | 1010.3 |
| 20260509143714 | 22 | 193 | 9.7 | 14.5 | 0.03 | 0.08 | 0.08 | 92 | 1010.2 |
| 20260509143557 | 22 | 175 | 8.0 | 14.5 | 0.03 | 0.08 | 0.08 | 92 | 1010.2 |
| 20260509143501 | 22 | 194 | 6.4 | 14.5 | 0.03 | 0.08 | 0.08 | 92 | 1010.2 |
| 20260509143412 | 22 | 194 | 4.8 | 14.5 | 0.03 | 0.08 | 0.08 | 92 | 1010.1 |
| 20260509143257 | 22 | 175 | 4.8 | 14.5 | 0.03 | 0.08 | 0.08 | 92 | 1010.1 |
| 20260509143222 | 22 | 174 | 8.0 | 14.5 | 0.03 | 0.08 | 0.08 | 92 | 1010.2 |
| 20260509143117 | 22 | 200 | 8.0 | 14.5 | 0.03 | 0.08 | 0.08 | 92 | 1010.0 |
| 20260509143000 | 22 | 193 | 6.4 | 12.9 | 0.03 | 0.08 | 0.08 | 92 | 1010.1 |
| 20260509142905 | 22 | 165 | 8.0 | 12.9 | 0.03 | 0.08 | 0.08 | 92 | 1010.1 |
| 20260509142837 | 22 | 187 | 8.0 | 12.9 | 0.03 | 0.08 | 0.08 | 92 | 1010.2 |
| 20260509142721 | 22 | 169 | 8.0 | 12.9 | 0.03 | 0.08 | 0.08 | 92 | 1010.0 |
| 20260509142627 | 22 | 165 | 4.8 | 16.1 | 0.03 | 0.08 | 0.08 | 92 | 1010.1 |
| 20260509142515 | 22 | 159 | 4.8 | 16.1 | 0.03 | 0.08 | 0.08 | 92 | 1010.0 |
| 20260509142402 | 22 | 157 | 4.8 | 16.1 | 0.03 | 0.08 | 0.08 | 92 | 1010.0 |
| 20260509142307 | 22 | 157 | 6.4 | 16.1 | 0.03 | 0.08 | 0.08 | 92 | 1010.0 |
| 20260509142211 | 22 | 177 | 6.4 | 16.1 | 0.03 | 0.08 | 0.08 | 92 | 1010.0 |
| 20260509142055 | 22 | 138 | 8.0 | 16.1 | 0.03 | 0.08 | 0.08 | 92 | 1009.9 |
| 20260509142000 | 22 | 157 | 8.0 | 16.1 | 0.03 | 0.08 | 0.08 | 92 | 1009.8 |
| 20260509141916 | 22 | 162 | 8.0 | 16.1 | 0.03 | 0.08 | 0.08 | 92 | 1009.9 |
| 20260509141759 | 22 | 188 | 8.0 | 16.1 | 0.03 | 0.08 | 0.08 | 92 | 1009.9 |
| 20260509141704 | 22 | 174 | 6.4 | 16.1 | 0.03 | 0.08 | 0.08 | 92 | 1009.9 |
| 20260509141609 | 22 | 143 | 6.4 | 16.1 | 0.03 | 0.08 | 0.08 | 92 | 1009.9 |
| 20260509141521 | 22 | 177 | 8.0 | 16.1 | 0.03 | 0.08 | 0.08 | 92 | 1009.8 |
| 20260509141405 | 22 | 184 | 6.4 | 14.5 | 0.03 | 0.08 | 0.08 | 92 | 1009.8 |
| 20260509141313 | 22 | 169 | 8.0 | 14.5 | 0.03 | 0.08 | 0.08 | 92 | 1009.9 |
| 20260509141157 | 22 | 158 | 8.0 | 14.5 | 0.03 | 0.08 | 0.08 | 92 | 1009.9 |
| 20260509141129 | 22 | 143 | 6.4 | 14.5 | 0.03 | 0.08 | 0.08 | 92 | 1009.8 |
| 20260509141013 | 22 | 199 | 8.0 | 16.1 | 0.03 | 0.08 | 0.08 | 92 | 1010.0 |
| 20260509140858 | 22 | 174 | 8.0 | 16.1 | 0.03 | 0.08 | 0.08 | 92 | 1009.9 |
| 20260509140808 | 22 | 205 | 6.4 | 16.1 | 0.03 | 0.08 | 0.08 | 92 | 1009.9 |
| 20260509140657 | 22 | 169 | 6.4 | 16.1 | 0.03 | 0.08 | 0.08 | 92 | 1009.9 |
| 20260509140601 | 22 | 178 | 6.4 | 16.1 | 0.03 | 0.08 | 0.08 | 92 | 1009.9 |
| 20260509140507 | 22 | 168 | 4.8 | 16.1 | 0.03 | 0.08 | 0.08 | 92 | 1009.8 |
| 20260509140438 | 22 | 149 | 6.4 | 16.1 | 0.03 | 0.08 | 0.08 | 92 | 1009.9 |
| 20260509140302 | 22 | 152 | 9.7 | 16.1 | 0.03 | 0.08 | 0.08 | 92 | 1009.9 |
| 20260509140207 | 22 | 170 | 8.0 | 16.1 | 0.03 | 0.08 | 0.08 | 92 | 1009.8 |
| 20260509140115 | 22 | 175 | 6.4 | 17.7 | 0.03 | 0.08 | 0.08 | 92 | 1009.8 |
| 20260509140006 | 22 | 156 | 6.4 | 12.9 | 0.03 | 0.08 | 0.08 | 92 | 1009.8 |
| 20260509135910 | 22 | 153 | 8.0 | 12.9 | 0.00 | 0.05 | 0.05 | 92 | 1009.8 |
| 20260509135816 | 22 | 159 | 6.4 | 12.9 | 0.00 | 0.05 | 0.05 | 92 | 1009.9 |
| 20260509135700 | 22 | 153 | 6.4 | 11.3 | 0.00 | 0.05 | 0.05 | 92 | 1009.8 |
| 20260509135632 | 22 | 174 | 4.8 | 12.9 | 0.00 | 0.05 | 0.05 | 92 | 1010.0 |
| 20260509135458 | 22 | 141 | 4.8 | 11.3 | 0.00 | 0.05 | 0.05 | 92 | 1009.9 |
| 20260509135403 | 22 | 136 | 3.2 | 6.4 | 0.00 | 0.05 | 0.05 | 92 | 1010.0 |
| 20260509135315 | 22 | 134 | 3.2 | 6.4 | 0.00 | 0.05 | 0.05 | 92 | 1010.0 |
| 20260509135159 | 22 | 127 | 1.6 | 4.8 | 0.00 | 0.05 | 0.05 | 92 | 1010.0 |
| 20260509135104 | 21 | 126 | 1.6 | 4.8 | 0.00 | 0.05 | 0.05 | 92 | 1010.0 |
| 20260509135015 | 21 | 123 | 1.6 | 4.8 | 0.00 | 0.05 | 0.05 | 92 | 1010.1 |
| 20260509134920 | 21 | 123 | 1.6 | 4.8 | 0.00 | 0.05 | 0.05 | 92 | 1010.2 |
| 20260509134809 | 21 | 122 | 0.0 | 3.2 | 0.00 | 0.05 | 0.05 | 92 | 1010.1 |
| 20260509134720 | 22 | 111 | 0.0 | 3.2 | 0.00 | 0.05 | 0.05 | 92 | 1010.1 |
| 20260509134604 | 22 | 111 | 0.0 | 3.2 | 0.00 | 0.05 | 0.05 | 92 | 1010.2 |
| 20260509134510 | 22 | 111 | 0.0 | 3.2 | 0.00 | 0.05 | 0.05 | 92 | 1010.3 |
| 20260509134414 | 22 | 111 | 0.0 | 3.2 | 0.00 | 0.05 | 0.05 | 92 | 1010.2 |
| 20260509134303 | 22 | 112 | 0.0 | 3.2 | 0.00 | 0.05 | 0.05 | 92 | 1010.2 |
| 20260509134216 | 22 | 111 | 0.0 | 3.2 | 0.00 | 0.05 | 0.05 | 92 | 1010.2 |
| 20260509134121 | 22 | 46 | 0.0 | 3.2 | 0.00 | 0.05 | 0.05 | 92 | 1010.3 |
| 20260509134005 | 22 | 46 | 0.0 | 3.2 | 0.00 | 0.05 | 0.05 | 92 | 1010.2 |
| 20260509133937 | 22 | 46 | 0.0 | 3.2 | 0.00 | 0.05 | 0.05 | 92 | 1010.3 |
| 20260509133801 | 22 | 259 | 0.0 | 4.8 | 0.00 | 0.05 | 0.05 | 92 | 1010.3 |
| 20260509133706 | 22 | 259 | 0.0 | 8.0 | 0.00 | 0.05 | 0.05 | 92 | 1010.3 |
| 20260509133614 | 22 | 258 | 0.0 | 8.0 | 0.00 | 0.05 | 0.05 | 92 | 1010.4 |
| 20260509133458 | 22 | 258 | 0.0 | 8.0 | 0.00 | 0.05 | 0.05 | 92 | 1010.4 |
| 20260509133409 | 22 | 257 | 0.0 | 8.0 | 0.00 | 0.05 | 0.05 | 92 | 1010.4 |
| 20260509133314 | 22 | 252 | 0.0 | 8.0 | 0.00 | 0.05 | 0.05 | 92 | 1010.3 |
| 20260509133159 | 22 | 252 | 0.0 | 8.0 | 0.00 | 0.05 | 0.05 | 92 | 1010.3 |
| 20260509133132 | 22 | 252 | 0.0 | 8.0 | 0.00 | 0.05 | 0.05 | 92 | 1010.3 |
| 20260509132959 | 22 | 355 | 1.6 | 8.0 | 0.00 | 0.05 | 0.05 | 92 | 1010.4 |
| 20260509132904 | 22 | 350 | 3.2 | 8.0 | 0.00 | 0.05 | 0.05 | 92 | 1010.3 |
| 20260509132810 | 22 | 321 | 3.2 | 8.0 | 0.00 | 0.05 | 0.05 | 92 | 1010.4 |
| 20260509132721 | 22 | 312 | 3.2 | 8.0 | 0.00 | 0.05 | 0.05 | 92 | 1010.3 |
| 20260509132627 | 22 | 360 | 3.2 | 8.0 | 0.00 | 0.05 | 0.05 | 92 | 1010.4 |
| 20260509132511 | 22 | 25 | 3.2 | 8.0 | 0.00 | 0.05 | 0.05 | 92 | 1010.4 |
| 20260509132359 | 22 | 31 | 4.8 | 8.0 | 0.00 | 0.05 | 0.05 | 92 | 1010.4 |
| 20260509132310 | 21 | 26 | 3.2 | 8.0 | 0.00 | 0.05 | 0.05 | 92 | 1010.4 |
| 20260509132236 | 21 | 17 | 3.2 | 9.7 | 0.00 | 0.05 | 0.05 | 92 | 1010.4 |
| 20260509132059 | 22 | 9 | 3.2 | 9.7 | 0.00 | 0.05 | 0.05 | 92 | 1010.5 |
| 20260509132001 | 22 | 19 | 3.2 | 9.7 | 0.00 | 0.05 | 0.05 | 92 | 1010.5 |
| 20260509131912 | 21 | 46 | 3.2 | 9.7 | 0.00 | 0.05 | 0.05 | 92 | 1010.6 |
| 20260509131828 | 21 | 46 | 3.2 | 9.7 | 0.00 | 0.05 | 0.05 | 92 | 1010.6 |
| 20260509131712 | 21 | 52 | 3.2 | 9.7 | 0.00 | 0.05 | 0.05 | 92 | 1010.6 |
| 20260509131617 | 21 | 40 | 4.8 | 9.7 | 0.00 | 0.05 | 0.05 | 92 | 1010.6 |
| 20260509131500 | 21 | 21 | 6.4 | 9.7 | 0.00 | 0.05 | 0.05 | 92 | 1010.6 |
| 20260509131412 | 21 | 5 | 6.4 | 11.3 | 0.00 | 0.05 | 0.05 | 92 | 1010.5 |
| 20260509131256 | 21 | 5 | 4.8 | 8.0 | 0.00 | 0.05 | 0.05 | 92 | 1010.4 |
| 20260509131223 | 21 | 21 | 3.2 | 8.0 | 0.00 | 0.05 | 0.05 | 92 | 1010.5 |
| 20260509131117 | 21 | 23 | 1.6 | 8.0 | 0.00 | 0.05 | 0.05 | 92 | 1010.4 |
| 20260509131002 | 21 | 26 | 0.0 | 8.0 | 0.00 | 0.05 | 0.05 | 92 | 1010.4 |
| 20260509130906 | 22 | 26 | 0.0 | 8.0 | 0.00 | 0.05 | 0.05 | 92 | 1010.3 |
| 20260509130817 | 22 | 26 | 0.0 | 8.0 | 0.00 | 0.05 | 0.05 | 92 | 1010.3 |
| 20260509130703 | 21 | 26 | 1.6 | 8.0 | 0.00 | 0.05 | 0.05 | 92 | 1010.3 |
| 20260509130607 | 21 | 26 | 0.0 | 8.0 | 0.00 | 0.05 | 0.05 | 92 | 1010.2 |
| 20260509130455 | 21 | 26 | 1.6 | 8.0 | 0.00 | 0.05 | 0.05 | 92 | 1010.2 |
| 20260509130401 | 21 | 26 | 3.2 | 8.0 | 0.00 | 0.05 | 0.05 | 92 | 1010.2 |
| 20260509130312 | 21 | 26 | 4.8 | 8.0 | 0.00 | 0.05 | 0.05 | 92 | 1010.2 |
| 20260509130217 | 21 | 17 | 3.2 | 6.4 | 0.00 | 0.05 | 0.05 | 92 | 1010.2 |
| 20260509130100 | 21 | 23 | 1.6 | 4.8 | 0.00 | 0.05 | 0.05 | 92 | 1010.0 |
| 20260509130033 | 21 | 20 | 1.6 | 4.8 | 0.00 | 0.05 | 0.05 | 92 | 1010.1 |
| 20260509125900 | 21 | 22 | 1.6 | 4.8 | 0.00 | 0.05 | 0.05 | 92 | 1010.0 |
| 20260509125805 | 21 | 24 | 3.2 | 6.4 | 0.00 | 0.05 | 0.05 | 92 | 1009.9 |
| 20260509125737 | 21 | 16 | 3.2 | 6.4 | 0.00 | 0.05 | 0.05 | 92 | 1009.9 |
| 20260509125558 | 21 | 15 | 1.6 | 8.0 | 0.00 | 0.05 | 0.05 | 92 | 1009.8 |
| 20260509125509 | 21 | 17 | 1.6 | 8.0 | 0.00 | 0.05 | 0.05 | 92 | 1009.7 |
| 20260509125414 | 21 | 16 | 1.6 | 8.0 | 0.00 | 0.05 | 0.05 | 92 | 1009.7 |
| 20260509125307 | 21 | 15 | 1.6 | 8.0 | 0.00 | 0.05 | 0.05 | 92 | 1009.7 |
| 20260509125208 | 21 | 9 | 1.6 | 8.0 | 0.00 | 0.05 | 0.05 | 92 | 1009.7 |
| 20260509125113 | 21 | 12 | 3.2 | 8.0 | 0.00 | 0.05 | 0.05 | 92 | 1009.7 |
| 20260509124957 | 21 | 9 | 3.2 | 8.0 | 0.00 | 0.05 | 0.05 | 92 | 1009.8 |
| 20260509124908 | 21 | 5 | 3.2 | 8.0 | 0.00 | 0.05 | 0.05 | 92 | 1009.9 |
| 20260509124814 | 21 | 9 | 3.2 | 8.0 | 0.00 | 0.05 | 0.05 | 92 | 1009.9 |
| 20260509124701 | 21 | 17 | 4.8 | 8.0 | 0.00 | 0.05 | 0.05 | 92 | 1010.0 |
| 20260509124606 | 21 | 17 | 4.8 | 8.0 | 0.00 | 0.05 | 0.05 | 92 | 1010.0 |
| 20260509124518 | 21 | 11 | 3.2 | 6.4 | 0.00 | 0.05 | 0.05 | 92 | 1010.1 |
| 20260509124403 | 21 | 5 | 1.6 | 6.4 | 0.00 | 0.05 | 0.05 | 92 | 1010.0 |
| 20260509124308 | 21 | 76 | 0.0 | 1.6 | 0.00 | 0.05 | 0.05 | 92 | 1010.0 |
| 20260509124156 | 21 | 76 | 0.0 | 0.0 | 0.00 | 0.05 | 0.05 | 92 | 1009.9 |
| 20260509124101 | 21 | 76 | 0.0 | 0.0 | 0.00 | 0.05 | 0.05 | 92 | 1009.9 |
| 20260509124033 | 21 | 76 | 0.0 | 0.0 | 0.00 | 0.05 | 0.05 | 92 | 1009.8 |
| 20260509123857 | 21 | 76 | 0.0 | 0.0 | 0.00 | 0.05 | 0.05 | 92 | 1009.9 |
| 20260509123830 | 21 | 76 | 0.0 | 0.0 | 0.00 | 0.05 | 0.05 | 92 | 1009.8 |
| 20260509123715 | 21 | 76 | 0.0 | 0.0 | 0.00 | 0.05 | 0.05 | 92 | 1009.8 |
| 20260509123557 | 21 | 76 | 0.0 | 0.0 | 0.00 | 0.05 | 0.05 | 92 | 1009.9 |
| 20260509123506 | 21 | 76 | 0.0 | 0.0 | 0.00 | 0.05 | 0.05 | 92 | 1009.9 |
| 20260509123417 | 21 | 76 | 0.0 | 0.0 | 0.00 | 0.05 | 0.05 | 92 | 1009.9 |
| 20260509123321 | 21 | 76 | 0.0 | 0.0 | 0.00 | 0.05 | 0.05 | 92 | 1009.9 |
| 20260509123227 | 21 | 76 | 0.0 | 0.0 | 0.00 | 0.05 | 0.05 | 92 | 1009.9 |
| 20260509123111 | 21 | 76 | 0.0 | 1.6 | 0.00 | 0.05 | 0.05 | 92 | 1009.9 |
| 20260509122955 | 21 | 76 | 0.0 | 1.6 | 0.00 | 0.05 | 0.05 | 92 | 1009.9 |
| 20260509122911 | 21 | 76 | 0.0 | 1.6 | 0.00 | 0.05 | 0.05 | 92 | 1009.9 |
| 20260509122755 | 21 | 76 | 0.0 | 1.6 | 0.00 | 0.05 | 0.05 | 92 | 1009.9 |
| 20260509122700 | 21 | 76 | 0.0 | 1.6 | 0.00 | 0.05 | 0.05 | 92 | 1009.9 |
| 20260509122606 | 21 | 76 | 0.0 | 1.6 | 0.00 | 0.05 | 0.05 | 92 | 1009.9 |
| 20260509122517 | 21 | 76 | 0.0 | 1.6 | 0.00 | 0.05 | 0.05 | 92 | 1009.9 |
| 20260509122406 | 21 | 76 | 0.0 | 1.6 | 0.00 | 0.05 | 0.05 | 92 | 1009.8 |
| 20260509122311 | 21 | 76 | 0.0 | 1.6 | 0.00 | 0.05 | 0.05 | 92 | 1009.9 |
| 20260509122216 | 21 | 76 | 0.0 | 1.6 | 0.00 | 0.05 | 0.05 | 92 | 1009.9 |
| 20260509122100 | 21 | 78 | 0.0 | 1.6 | 0.00 | 0.05 | 0.05 | 92 | 1010.0 |
| 20260509122012 | 21 | 78 | 0.0 | 3.2 | 0.00 | 0.05 | 0.05 | 92 | 1009.9 |
| 20260509121917 | 21 | 78 | 0.0 | 3.2 | 0.00 | 0.05 | 0.05 | 92 | 1010.0 |
| 20260509121805 | 21 | 78 | 0.0 | 3.2 | 0.00 | 0.05 | 0.05 | 92 | 1010.0 |
| 20260509121710 | 21 | 78 | 0.0 | 3.2 | 0.00 | 0.05 | 0.05 | 92 | 1010.1 |
| 20260509121615 | 21 | 78 | 0.0 | 3.2 | 0.00 | 0.05 | 0.05 | 92 | 1010.0 |
| 20260509121459 | 21 | 78 | 0.0 | 3.2 | 0.00 | 0.05 | 0.05 | 92 | 1010.1 |
| 20260509121410 | 21 | 78 | 0.0 | 3.2 | 0.00 | 0.05 | 0.05 | 92 | 1010.1 |
| 20260509121258 | 21 | 78 | 1.6 | 3.2 | 0.00 | 0.05 | 0.05 | 92 | 1010.0 |
| 20260509121204 | 21 | 78 | 1.6 | 3.2 | 0.00 | 0.05 | 0.05 | 92 | 1010.0 |
| 20260509121109 | 21 | 78 | 0.0 | 3.2 | 0.00 | 0.05 | 0.05 | 92 | 1010.0 |
| 20260509121020 | 21 | 32 | 0.0 | 1.6 | 0.00 | 0.05 | 0.05 | 92 | 1010.0 |
| 20260509120904 | 21 | 32 | 0.0 | 1.6 | 0.00 | 0.05 | 0.05 | 92 | 1010.0 |
| 20260509120809 | 21 | 32 | 0.0 | 1.6 | 0.00 | 0.05 | 0.05 | 92 | 1009.9 |
| 20260509120658 | 21 | 32 | 0.0 | 1.6 | 0.00 | 0.05 | 0.05 | 92 | 1010.0 |
| 20260509120603 | 21 | 32 | 0.0 | 1.6 | 0.00 | 0.05 | 0.05 | 92 | 1010.0 |
| 20260509120514 | 21 | 32 | 0.0 | 1.6 | 0.00 | 0.05 | 0.05 | 92 | 1010.0 |
| 20260509120358 | 21 | 32 | 0.0 | 1.6 | 0.00 | 0.05 | 0.05 | 92 | 1010.0 |
| 20260509120304 | 21 | 32 | 0.0 | 1.6 | 0.00 | 0.05 | 0.05 | 92 | 1010.0 |
| 20260509120209 | 21 | 32 | 0.0 | 1.6 | 0.00 | 0.05 | 0.05 | 92 | 1010.1 |
| 20260509120057 | 21 | 32 | 0.0 | 0.0 | 0.00 | 0.05 | 0.05 | 92 | 1010.1 |
| 20260509120009 | 21 | 32 | 0.0 | 0.0 | 0.00 | 0.05 | 0.05 | 92 | 1010.0 |
| 20260509115912 | 21 | 32 | 0.0 | 0.0 | 0.03 | 0.05 | 0.05 | 92 | 1010.1 |
| 20260509115757 | 21 | 32 | 0.0 | 0.0 | 0.03 | 0.05 | 0.05 | 92 | 1010.1 |
| 20260509115702 | 21 | 32 | 0.0 | 0.0 | 0.03 | 0.05 | 0.05 | 92 | 1010.0 |
| 20260509115611 | 21 | 32 | 0.0 | 0.0 | 0.05 | 0.05 | 0.05 | 92 | 1010.1 |
| 20260509115455 | 21 | 32 | 0.0 | 0.0 | 0.05 | 0.05 | 0.05 | 92 | 1010.1 |
| 20260509115427 | 21 | 32 | 0.0 | 0.0 | 0.05 | 0.05 | 0.05 | 92 | 1010.1 |
| 20260509115317 | 21 | 32 | 0.0 | 0.0 | 0.05 | 0.05 | 0.05 | 92 | 1010.1 |
| 20260509115201 | 21 | 32 | 0.0 | 0.0 | 0.05 | 0.05 | 0.05 | 92 | 1010.1 |
| 20260509115107 | 21 | 32 | 0.0 | 0.0 | 0.05 | 0.05 | 0.05 | 92 | 1010.1 |
| 20260509115011 | 21 | 32 | 0.0 | 0.0 | 0.05 | 0.05 | 0.05 | 92 | 1010.0 |
| 20260509114900 | 21 | 32 | 0.0 | 0.0 | 0.05 | 0.05 | 0.05 | 92 | 1010.1 |
| 20260509114833 | 21 | 32 | 0.0 | 0.0 | 0.05 | 0.05 | 0.05 | 92 | 1010.1 |
| 20260509114657 | 21 | 32 | 0.0 | 0.0 | 0.05 | 0.05 | 0.05 | 92 | 1010.1 |
| 20260509114601 | 21 | 32 | 0.0 | 0.0 | 0.05 | 0.05 | 0.05 | 92 | 1010.1 |
| 20260509114513 | 21 | 32 | 0.0 | 0.0 | 0.05 | 0.05 | 0.05 | 92 | 1010.0 |
| 20260509114402 | 21 | 32 | 0.0 | 1.6 | 0.05 | 0.05 | 0.05 | 92 | 1010.1 |
| 20260509114306 | 21 | 32 | 0.0 | 1.6 | 0.05 | 0.05 | 0.05 | 92 | 1010.2 |
| 20260509114211 | 21 | 32 | 0.0 | 1.6 | 0.05 | 0.05 | 0.05 | 92 | 1010.2 |
| 20260509114056 | 21 | 32 | 0.0 | 1.6 | 0.05 | 0.05 | 0.05 | 92 | 1010.3 |
| 20260509114001 | 21 | 32 | 0.0 | 1.6 | 0.05 | 0.05 | 0.05 | 91 | 1010.2 |
| 20260509113912 | 21 | 32 | 0.0 | 1.6 | 0.05 | 0.05 | 0.05 | 91 | 1010.3 |
| 20260509113801 | 21 | 32 | 0.0 | 3.2 | 0.05 | 0.05 | 0.05 | 91 | 1010.4 |
| 20260509113707 | 21 | 32 | 0.0 | 3.2 | 0.05 | 0.05 | 0.05 | 91 | 1010.3 |
| 20260509113611 | 21 | 32 | 0.0 | 3.2 | 0.05 | 0.05 | 0.05 | 91 | 1010.4 |
| 20260509113501 | 21 | 32 | 0.0 | 3.2 | 0.05 | 0.05 | 0.05 | 91 | 1010.4 |
| 20260509113406 | 21 | 32 | 0.0 | 3.2 | 0.05 | 0.05 | 0.05 | 91 | 1010.5 |
| 20260509113311 | 21 | 32 | 0.0 | 3.2 | 0.05 | 0.05 | 0.05 | 91 | 1010.5 |
| 20260509113200 | 21 | 32 | 0.0 | 3.2 | 0.05 | 0.05 | 0.05 | 91 | 1010.5 |
| 20260509113110 | 21 | 32 | 1.6 | 3.2 | 0.05 | 0.05 | 0.05 | 91 | 1010.4 |
| 20260509113015 | 21 | 32 | 0.0 | 4.8 | 0.05 | 0.05 | 0.05 | 91 | 1010.6 |
| 20260509112900 | 21 | 32 | 1.6 | 4.8 | 0.05 | 0.05 | 0.05 | 91 | 1010.6 |
| 20260509112811 | 21 | 32 | 1.6 | 4.8 | 0.05 | 0.05 | 0.05 | 91 | 1010.6 |
| 20260509112715 | 21 | 5 | 0.0 | 4.8 | 0.05 | 0.05 | 0.05 | 91 | 1010.7 |
| 20260509112604 | 21 | 5 | 0.0 | 4.8 | 0.05 | 0.05 | 0.05 | 91 | 1010.7 |
| 20260509112509 | 21 | 5 | 0.0 | 4.8 | 0.05 | 0.05 | 0.05 | 91 | 1010.7 |
| 20260509112421 | 21 | 5 | 1.6 | 6.4 | 0.05 | 0.05 | 0.05 | 91 | 1010.7 |
| 20260509112326 | 21 | 5 | 1.6 | 6.4 | 0.05 | 0.05 | 0.05 | 91 | 1010.8 |
| 20260509112216 | 21 | 5 | 1.6 | 6.4 | 0.05 | 0.05 | 0.05 | 91 | 1010.7 |
| 20260509112122 | 21 | 59 | 1.6 | 6.4 | 0.05 | 0.05 | 0.05 | 91 | 1010.6 |
| 20260509112005 | 21 | 59 | 1.6 | 8.0 | 0.05 | 0.05 | 0.05 | 91 | 1010.6 |
| 20260509111921 | 21 | 59 | 1.6 | 8.0 | 0.05 | 0.05 | 0.05 | 91 | 1010.6 |
| 20260509111758 | 21 | 59 | 1.6 | 8.0 | 0.05 | 0.05 | 0.05 | 91 | 1010.5 |
| 20260509111709 | 21 | 59 | 3.2 | 8.0 | 0.05 | 0.05 | 0.05 | 91 | 1010.6 |
| 20260509111614 | 21 | 59 | 3.2 | 8.0 | 0.05 | 0.05 | 0.05 | 91 | 1010.6 |
| 20260509111458 | 21 | 63 | 3.2 | 8.0 | 0.05 | 0.05 | 0.05 | 91 | 1010.7 |
| 20260509111409 | 21 | 35 | 4.8 | 8.0 | 0.05 | 0.05 | 0.05 | 91 | 1010.7 |
| 20260509111257 | 21 | 35 | 4.8 | 8.0 | 0.05 | 0.05 | 0.05 | 91 | 1010.8 |
| 20260509111202 | 21 | 30 | 4.8 | 8.0 | 0.05 | 0.05 | 0.05 | 91 | 1010.8 |
| 20260509111108 | 21 | 26 | 3.2 | 9.7 | 0.05 | 0.05 | 0.05 | 91 | 1010.9 |
| 20260509111019 | 21 | 39 | 1.6 | 9.7 | 0.05 | 0.05 | 0.05 | 91 | 1010.8 |
| 20260509110924 | 21 | 20 | 4.8 | 9.7 | 0.05 | 0.05 | 0.05 | 91 | 1010.8 |
| 20260509110808 | 21 | 23 | 4.8 | 12.9 | 0.05 | 0.05 | 0.05 | 91 | 1010.8 |
| 20260509110703 | 21 | 12 | 4.8 | 12.9 | 0.05 | 0.05 | 0.05 | 91 | 1010.8 |
| 20260509110607 | 21 | 13 | 4.8 | 12.9 | 0.05 | 0.05 | 0.05 | 91 | 1010.8 |
| 20260509110513 | 21 | 32 | 4.8 | 12.9 | 0.05 | 0.05 | 0.05 | 91 | 1010.8 |
| 20260509110357 | 21 | 34 | 4.8 | 12.9 | 0.05 | 0.05 | 0.05 | 91 | 1010.8 |
| 20260509110329 | 21 | 32 | 4.8 | 12.9 | 0.05 | 0.05 | 0.05 | 91 | 1010.7 |
| 20260509110214 | 21 | 28 | 4.8 | 12.9 | 0.05 | 0.05 | 0.05 | 91 | 1010.8 |
| 20260509110034 | 21 | 38 | 6.4 | 12.9 | 0.05 | 0.05 | 0.05 | 91 | 1010.8 |
| 20260509105857 | 21 | 38 | 6.4 | 8.0 | 0.03 | 0.03 | 0.03 | 91 | 1010.7 |
| 20260509105803 | 21 | 42 | 4.8 | 9.7 | 0.03 | 0.03 | 0.03 | 91 | 1010.8 |
| 20260509105708 | 21 | 28 | 3.2 | 9.7 | 0.00 | 0.00 | 0.00 | 91 | 1010.8 |
| 20260509105558 | 21 | 28 | 1.6 | 9.7 | 0.00 | 0.00 | 0.00 | 91 | 1010.8 |
| 20260509105507 | 21 | 28 | 3.2 | 9.7 | 0.00 | 0.00 | 0.00 | 91 | 1010.9 |
| 20260509105412 | 21 | 29 | 4.8 | 9.7 | 0.00 | 0.00 | 0.00 | 91 | 1010.9 |
| 20260509105257 | 21 | 16 | 4.8 | 9.7 | 0.00 | 0.00 | 0.00 | 91 | 1010.9 |
| 20260509105208 | 21 | 23 | 4.8 | 9.7 | 0.00 | 0.00 | 0.00 | 91 | 1010.9 |
| 20260509105114 | 21 | 25 | 4.8 | 12.9 | 0.00 | 0.00 | 0.00 | 91 | 1010.9 |
| 20260509104958 | 21 | 5 | 3.2 | 12.9 | 0.00 | 0.00 | 0.00 | 91 | 1010.9 |
| 20260509104913 | 21 | 360 | 3.2 | 12.9 | 0.00 | 0.00 | 0.00 | 91 | 1010.9 |
| 20260509104757 | 21 | 32 | 4.8 | 12.9 | 0.00 | 0.00 | 0.00 | 91 | 1010.9 |
| 20260509104702 | 21 | 24 | 4.8 | 12.9 | 0.00 | 0.00 | 0.00 | 91 | 1010.9 |
| 20260509104607 | 21 | 22 | 4.8 | 12.9 | 0.00 | 0.00 | 0.00 | 91 | 1010.9 |
| 20260509104518 | 21 | 16 | 6.4 | 12.9 | 0.00 | 0.00 | 0.00 | 91 | 1010.9 |
| 20260509104403 | 21 | 27 | 6.4 | 12.9 | 0.00 | 0.00 | 0.00 | 91 | 1010.9 |
| 20260509104312 | 21 | 37 | 6.4 | 12.9 | 0.00 | 0.00 | 0.00 | 91 | 1010.9 |
| 20260509104156 | 21 | 35 | 6.4 | 12.9 | 0.00 | 0.00 | 0.00 | 91 | 1010.9 |
| 20260509104109 | 21 | 49 | 6.4 | 12.9 | 0.00 | 0.00 | 0.00 | 91 | 1010.8 |
| 20260509104013 | 21 | 44 | 6.4 | 12.9 | 0.00 | 0.00 | 0.00 | 91 | 1010.9 |
| 20260509103918 | 21 | 43 | 6.4 | 12.9 | 0.00 | 0.00 | 0.00 | 91 | 1010.8 |
| 20260509103810 | 21 | 48 | 6.4 | 12.9 | 0.00 | 0.00 | 0.00 | 91 | 1010.9 |
| 20260509103659 | 21 | 51 | 6.4 | 12.9 | 0.00 | 0.00 | 0.00 | 91 | 1010.8 |
| 20260509103603 | 21 | 27 | 4.8 | 12.9 | 0.00 | 0.00 | 0.00 | 91 | 1010.9 |
| 20260509103508 | 21 | 30 | 4.8 | 12.9 | 0.00 | 0.00 | 0.00 | 91 | 1010.8 |
| 20260509103441 | 21 | 37 | 3.2 | 8.0 | 0.00 | 0.00 | 0.00 | 91 | 1010.9 |
| 20260509103302 | 21 | 35 | 3.2 | 8.0 | 0.00 | 0.00 | 0.00 | 91 | 1010.8 |
| 20260509103207 | 21 | 35 | 4.8 | 8.0 | 0.00 | 0.00 | 0.00 | 91 | 1010.8 |
| 20260509103056 | 21 | 32 | 4.8 | 8.0 | 0.00 | 0.00 | 0.00 | 91 | 1010.8 |
| 20260509103007 | 21 | 33 | 4.8 | 8.0 | 0.00 | 0.00 | 0.00 | 91 | 1010.7 |
| 20260509102912 | 21 | 33 | 4.8 | 8.0 | 0.00 | 0.00 | 0.00 | 91 | 1010.7 |
| 20260509102818 | 21 | 33 | 3.2 | 8.0 | 0.00 | 0.00 | 0.00 | 91 | 1010.6 |
| 20260509102708 | 21 | 94 | 3.2 | 4.8 | 0.00 | 0.00 | 0.00 | 91 | 1010.7 |
| 20260509102612 | 21 | 94 | 3.2 | 4.8 | 0.00 | 0.00 | 0.00 | 91 | 1010.7 |
| 20260509102500 | 21 | 94 | 3.2 | 4.8 | 0.00 | 0.00 | 0.00 | 91 | 1010.7 |
| 20260509102405 | 21 | 97 | 1.6 | 4.8 | 0.00 | 0.00 | 0.00 | 91 | 1010.7 |
| 20260509102317 | 21 | 107 | 1.6 | 4.8 | 0.00 | 0.00 | 0.00 | 91 | 1010.7 |
| 20260509102200 | 21 | 107 | 1.6 | 4.8 | 0.00 | 0.00 | 0.00 | 91 | 1010.7 |
| 20260509102133 | 21 | 107 | 1.6 | 3.2 | 0.00 | 0.00 | 0.00 | 91 | 1010.6 |
| 20260509101957 | 21 | 107 | 1.6 | 3.2 | 0.00 | 0.00 | 0.00 | 91 | 1010.6 |
| 20260509101901 | 21 | 107 | 0.0 | 1.6 | 0.00 | 0.00 | 0.00 | 91 | 1010.5 |
| 20260509101811 | 21 | 107 | 0.0 | 4.8 | 0.00 | 0.00 | 0.00 | 91 | 1010.5 |
| 20260509101722 | 21 | 107 | 0.0 | 4.8 | 0.00 | 0.00 | 0.00 | 91 | 1010.5 |
| 20260509101606 | 21 | 107 | 0.0 | 4.8 | 0.00 | 0.00 | 0.00 | 91 | 1010.4 |
| 20260509101510 | 21 | 107 | 0.0 | 4.8 | 0.00 | 0.00 | 0.00 | 91 | 1010.4 |
| 20260509101415 | 21 | 107 | 0.0 | 4.8 | 0.00 | 0.00 | 0.00 | 91 | 1010.3 |
| 20260509101304 | 21 | 107 | 0.0 | 4.8 | 0.00 | 0.00 | 0.00 | 91 | 1010.3 |
| 20260509101216 | 21 | 107 | 0.0 | 4.8 | 0.00 | 0.00 | 0.00 | 91 | 1010.3 |
| 20260509101119 | 21 | 107 | 1.6 | 4.8 | 0.00 | 0.00 | 0.00 | 91 | 1010.2 |
| 20260509101003 | 21 | 107 | 1.6 | 4.8 | 0.00 | 0.00 | 0.00 | 91 | 1010.2 |
| 20260509100907 | 21 | 107 | 0.0 | 4.8 | 0.00 | 0.00 | 0.00 | 91 | 1010.2 |
| 20260509100812 | 21 | 107 | 0.0 | 1.6 | 0.00 | 0.00 | 0.00 | 91 | 1010.1 |
| 20260509100702 | 21 | 107 | 0.0 | 1.6 | 0.00 | 0.00 | 0.00 | 91 | 1010.2 |
| 20260509100633 | 21 | 107 | 0.0 | 1.6 | 0.00 | 0.00 | 0.00 | 91 | 1010.0 |
| 20260509100456 | 21 | 107 | 0.0 | 1.6 | 0.00 | 0.00 | 0.00 | 91 | 1010.0 |
| 20260509100401 | 21 | 107 | 0.0 | 1.6 | 0.00 | 0.00 | 0.00 | 91 | 1009.9 |
| 20260509100313 | 21 | 107 | 0.0 | 1.6 | 0.00 | 0.00 | 0.00 | 91 | 1009.9 |
| 20260509100157 | 21 | 107 | 0.0 | 0.0 | 0.00 | 0.00 | 0.00 | 91 | 1009.8 |
| 20260509100105 | 21 | 107 | 0.0 | 4.8 | 0.00 | 0.00 | 0.00 | 91 | 1009.8 |
| 20260509100035 | 21 | 107 | 0.0 | 4.8 | 0.00 | 0.00 | 0.00 | 91 | 1009.8 |
| 20260509095923 | 21 | 107 | 0.0 | 9.7 | 0.00 | 0.00 | 0.00 | 91 | 1009.8 |
| 20260509095827 | 21 | 107 | 0.0 | 9.7 | 0.00 | 0.00 | 0.00 | 91 | 1009.8 |
| 20260509095711 | 21 | 107 | 0.0 | 9.7 | 0.00 | 0.00 | 0.00 | 91 | 1009.7 |
| 20260509095622 | 21 | 107 | 0.0 | 9.7 | 0.00 | 0.00 | 0.00 | 91 | 1009.7 |
| 20260509095506 | 21 | 107 | 0.0 | 9.7 | 0.00 | 0.00 | 0.00 | 91 | 1009.7 |
| 20260509095411 | 21 | 107 | 1.6 | 9.7 | 0.00 | 0.00 | 0.00 | 91 | 1009.7 |
| 20260509095327 | 21 | 107 | 3.2 | 9.7 | 0.00 | 0.00 | 0.00 | 91 | 1009.6 |
| 20260509095211 | 21 | 107 | 4.8 | 9.7 | 0.00 | 0.00 | 0.00 | 91 | 1009.6 |
| 20260509095143 | 21 | 107 | 4.8 | 9.7 | 0.00 | 0.00 | 0.00 | 91 | 1009.5 |
| 20260509095028 | 21 | 111 | 4.8 | 9.7 | 0.00 | 0.00 | 0.00 | 91 | 1009.5 |
| 20260509094912 | 21 | 111 | 4.8 | 9.7 | 0.00 | 0.00 | 0.00 | 91 | 1009.4 |
| 20260509094802 | 21 | 93 | 3.2 | 9.7 | 0.00 | 0.00 | 0.00 | 91 | 1009.5 |
| 20260509094707 | 21 | 93 | 4.8 | 9.7 | 0.00 | 0.00 | 0.00 | 91 | 1009.4 |
| 20260509094615 | 21 | 93 | 4.8 | 9.7 | 0.00 | 0.00 | 0.00 | 91 | 1009.4 |
| 20260509094527 | 21 | 86 | 3.2 | 6.4 | 0.00 | 0.00 | 0.00 | 91 | 1009.4 |
| 20260509094410 | 21 | 80 | 1.6 | 3.2 | 0.00 | 0.00 | 0.00 | 91 | 1009.4 |
| 20260509094255 | 21 | 80 | 0.0 | 0.0 | 0.00 | 0.00 | 0.00 | 91 | 1009.5 |
| 20260509094200 | 21 | 80 | 0.0 | 0.0 | 0.00 | 0.00 | 0.00 | 91 | 1009.4 |
| 20260509094133 | 21 | 80 | 0.0 | 0.0 | 0.00 | 0.00 | 0.00 | 91 | 1009.5 |
| 20260509094000 | 21 | 80 | 0.0 | 0.0 | 0.00 | 0.00 | 0.00 | 91 | 1009.5 |
| 20260509093932 | 21 | 80 | 0.0 | 0.0 | 0.00 | 0.00 | 0.00 | 91 | 1009.4 |
| 20260509093756 | 21 | 80 | 0.0 | 0.0 | 0.00 | 0.00 | 0.00 | 91 | 1009.5 |
| 20260509093701 | 21 | 80 | 0.0 | 0.0 | 0.00 | 0.00 | 0.00 | 91 | 1009.7 |
| 20260509093605 | 21 | 80 | 0.0 | 0.0 | 0.00 | 0.00 | 0.00 | 91 | 1009.7 |
| 20260509093517 | 21 | 80 | 0.0 | 0.0 | 0.00 | 0.00 | 0.00 | 91 | 1009.7 |
| 20260509093405 | 21 | 80 | 0.0 | 0.0 | 0.00 | 0.00 | 0.00 | 91 | 1009.7 |
| 20260509093309 | 21 | 80 | 0.0 | 0.0 | 0.00 | 0.00 | 0.00 | 91 | 1009.7 |
| 20260509093214 | 21 | 80 | 0.0 | 0.0 | 0.00 | 0.00 | 0.00 | 91 | 1009.7 |
| 20260509093058 | 21 | 80 | 0.0 | 1.6 | 0.00 | 0.00 | 0.00 | 91 | 1009.7 |
| 20260509093030 | 21 | 80 | 0.0 | 3.2 | 0.00 | 0.00 | 0.00 | 91 | 1009.7 |
| 20260509092914 | 21 | 80 | 0.0 | 3.2 | 0.00 | 0.00 | 0.00 | 91 | 1009.7 |
| 20260509092803 | 21 | 80 | 0.0 | 3.2 | 0.00 | 0.00 | 0.00 | 91 | 1009.7 |
| 20260509092714 | 21 | 80 | 0.0 | 3.2 | 0.00 | 0.00 | 0.00 | 91 | 1009.7 |
| 20260509092559 | 21 | 80 | 0.0 | 3.2 | 0.00 | 0.00 | 0.00 | 91 | 1009.7 |
| 20260509092504 | 21 | 80 | 0.0 | 3.2 | 0.00 | 0.00 | 0.00 | 91 | 1009.6 |
| 20260509092409 | 21 | 80 | 0.0 | 3.2 | 0.00 | 0.00 | 0.00 | 91 | 1009.5 |
| 20260509092314 | 21 | 80 | 0.0 | 3.2 | 0.00 | 0.00 | 0.00 | 91 | 1009.5 |
| 20260509092210 | 21 | 80 | 0.0 | 3.2 | 0.00 | 0.00 | 0.00 | 91 | 1009.5 |
| 20260509092113 | 21 | 81 | 0.0 | 1.6 | 0.00 | 0.00 | 0.00 | 91 | 1009.5 |
| 20260509091957 | 21 | 81 | 0.0 | 3.2 | 0.00 | 0.00 | 0.00 | 91 | 1009.4 |
| 20260509091903 | 21 | 81 | 0.0 | 3.2 | 0.00 | 0.00 | 0.00 | 91 | 1009.4 |
| 20260509091808 | 21 | 81 | 0.0 | 4.8 | 0.00 | 0.00 | 0.00 | 91 | 1009.4 |
| 20260509091656 | 21 | 81 | 0.0 | 4.8 | 0.00 | 0.00 | 0.00 | 91 | 1009.4 |
| 20260509091607 | 21 | 81 | 0.0 | 4.8 | 0.00 | 0.00 | 0.00 | 91 | 1009.4 |
| 20260509091539 | 21 | 81 | 0.0 | 4.8 | 0.00 | 0.00 | 0.00 | 91 | 1009.4 |
| 20260509091402 | 21 | 81 | 0.0 | 4.8 | 0.00 | 0.00 | 0.00 | 91 | 1009.4 |
| 20260509091307 | 21 | 81 | 1.6 | 4.8 | 0.00 | 0.00 | 0.00 | 91 | 1009.4 |
| 20260509091239 | 21 | 81 | 1.6 | 4.8 | 0.00 | 0.00 | 0.00 | 91 | 1009.3 |
| 20260509091102 | 21 | 81 | 1.6 | 4.8 | 0.00 | 0.00 | 0.00 | 91 | 1009.3 |
| 20260509091011 | 21 | 81 | 3.2 | 4.8 | 0.00 | 0.00 | 0.00 | 91 | 1009.3 |
| 20260509090856 | 21 | 82 | 1.6 | 4.8 | 0.00 | 0.00 | 0.00 | 91 | 1009.2 |
| 20260509090801 | 21 | 82 | 1.6 | 4.8 | 0.00 | 0.00 | 0.00 | 91 | 1009.2 |
| 20260509090713 | 21 | 82 | 1.6 | 4.8 | 0.00 | 0.00 | 0.00 | 91 | 1009.2 |
| 20260509090556 | 21 | 82 | 0.0 | 1.6 | 0.00 | 0.00 | 0.00 | 91 | 1009.2 |
| 20260509090501 | 21 | 82 | 0.0 | 1.6 | 0.00 | 0.00 | 0.00 | 91 | 1009.2 |
| 20260509090410 | 21 | 82 | 0.0 | 3.2 | 0.00 | 0.00 | 0.00 | 91 | 1009.2 |
| 20260509090321 | 21 | 82 | 0.0 | 3.2 | 0.00 | 0.00 | 0.00 | 91 | 1009.2 |
| 20260509090158 | 21 | 82 | 0.0 | 3.2 | 0.00 | 0.00 | 0.00 | 91 | 1009.2 |
| 20260509090110 | 21 | 82 | 0.0 | 3.2 | 0.00 | 0.00 | 0.00 | 91 | 1009.2 |
| 20260509090015 | 21 | 82 | 0.0 | 3.2 | 0.00 | 0.00 | 0.00 | 91 | 1009.4 |
| 20260509085904 | 21 | 82 | 0.0 | 3.2 | 0.00 | 0.00 | 0.00 | 91 | 1009.3 |
| 20260509085809 | 21 | 82 | 0.0 | 3.2 | 0.00 | 0.00 | 0.00 | 91 | 1009.3 |
| 20260509085720 | 21 | 82 | 0.0 | 3.2 | 0.00 | 0.00 | 0.00 | 91 | 1009.4 |
| 20260509085604 | 21 | 82 | 0.0 | 3.2 | 0.00 | 0.00 | 0.00 | 90 | 1009.3 |
| 20260509085510 | 21 | 82 | 0.0 | 3.2 | 0.00 | 0.00 | 0.00 | 90 | 1009.3 |
| 20260509085415 | 21 | 82 | 0.0 | 3.2 | 0.00 | 0.00 | 0.00 | 90 | 1009.3 |
| 20260509085306 | 21 | 82 | 0.0 | 3.2 | 0.00 | 0.00 | 0.00 | 91 | 1009.3 |
| 20260509085215 | 21 | 82 | 0.0 | 3.2 | 0.00 | 0.00 | 0.00 | 90 | 1009.3 |
| 20260509085059 | 21 | 82 | 0.0 | 3.2 | 0.00 | 0.00 | 0.00 | 91 | 1009.3 |
| 20260509085005 | 21 | 82 | 0.0 | 3.2 | 0.00 | 0.00 | 0.00 | 91 | 1009.3 |
| 20260509084915 | 21 | 82 | 0.0 | 3.2 | 0.00 | 0.00 | 0.00 | 90 | 1009.5 |
| 20260509084820 | 21 | 82 | 0.0 | 3.2 | 0.00 | 0.00 | 0.00 | 91 | 1009.4 |
| 20260509084709 | 21 | 82 | 0.0 | 3.2 | 0.00 | 0.00 | 0.00 | 91 | 1009.6 |
| 20260509084641 | 21 | 82 | 0.0 | 4.8 | 0.00 | 0.00 | 0.00 | 90 | 1009.5 |
| 20260509084457 | 21 | 82 | 0.0 | 6.4 | 0.00 | 0.00 | 0.00 | 90 | 1009.7 |
| 20260509084430 | 21 | 82 | 0.0 | 6.4 | 0.00 | 0.00 | 0.00 | 90 | 1009.5 |
| 20260509084313 | 21 | 82 | 0.0 | 6.4 | 0.00 | 0.00 | 0.00 | 90 | 1009.5 |
| 20260509084158 | 21 | 82 | 0.0 | 6.4 | 0.00 | 0.00 | 0.00 | 90 | 1009.6 |
| 20260509084114 | 21 | 82 | 0.0 | 6.4 | 0.00 | 0.00 | 0.00 | 90 | 1009.6 |
| 20260509084018 | 21 | 82 | 1.6 | 6.4 | 0.00 | 0.00 | 0.00 | 90 | 1009.7 |
| 20260509083902 | 21 | 82 | 1.6 | 6.4 | 0.00 | 0.00 | 0.00 | 90 | 1009.6 |
| 20260509083813 | 21 | 82 | 3.2 | 6.4 | 0.00 | 0.00 | 0.00 | 90 | 1009.6 |
| 20260509083659 | 21 | 82 | 1.6 | 6.4 | 0.00 | 0.00 | 0.00 | 90 | 1009.6 |
| 20260509083603 | 21 | 82 | 1.6 | 4.8 | 0.00 | 0.00 | 0.00 | 90 | 1009.6 |
| 20260509083512 | 21 | 82 | 1.6 | 4.8 | 0.00 | 0.00 | 0.00 | 90 | 1009.6 |
| 20260509083356 | 21 | 82 | 1.6 | 4.8 | 0.00 | 0.00 | 0.00 | 90 | 1009.7 |
| 20260509083307 | 21 | 82 | 1.6 | 4.8 | 0.00 | 0.00 | 0.00 | 90 | 1009.7 |
| 20260509083212 | 21 | 82 | 1.6 | 4.8 | 0.00 | 0.00 | 0.00 | 90 | 1009.7 |
| 20260509083057 | 21 | 82 | 0.0 | 4.8 | 0.00 | 0.00 | 0.00 | 90 | 1009.7 |
| 20260509083002 | 21 | 82 | 0.0 | 4.8 | 0.00 | 0.00 | 0.00 | 90 | 1009.8 |
| 20260509082856 | 21 | 82 | 1.6 | 4.8 | 0.00 | 0.00 | 0.00 | 90 | 1009.9 |
| 20260509082801 | 21 | 82 | 1.6 | 4.8 | 0.00 | 0.00 | 0.00 | 90 | 1009.8 |
| 20260509082712 | 21 | 82 | 1.6 | 4.8 | 0.00 | 0.00 | 0.00 | 90 | 1009.8 |
| 20260509082617 | 21 | 82 | 1.6 | 4.8 | 0.00 | 0.00 | 0.00 | 90 | 1009.8 |
| 20260509082501 | 21 | 82 | 1.6 | 4.8 | 0.00 | 0.00 | 0.00 | 90 | 1009.7 |
| 20260509082413 | 21 | 83 | 0.0 | 6.4 | 0.00 | 0.00 | 0.00 | 90 | 1009.8 |
| 20260509082300 | 21 | 83 | 1.6 | 6.4 | 0.00 | 0.00 | 0.00 | 90 | 1009.8 |
| 20260509082204 | 21 | 83 | 1.6 | 6.4 | 0.00 | 0.00 | 0.00 | 90 | 1009.9 |
| 20260509082109 | 21 | 83 | 1.6 | 6.4 | 0.00 | 0.00 | 0.00 | 90 | 1009.8 |
| 20260509082041 | 21 | 88 | 1.6 | 6.4 | 0.00 | 0.00 | 0.00 | 90 | 1009.7 |
| 20260509081904 | 21 | 92 | 1.6 | 6.4 | 0.00 | 0.00 | 0.00 | 90 | 1009.8 |
| 20260509081809 | 21 | 92 | 1.6 | 6.4 | 0.00 | 0.00 | 0.00 | 90 | 1009.8 |
| 20260509081658 | 21 | 92 | 3.2 | 6.4 | 0.00 | 0.00 | 0.00 | 90 | 1009.8 |
| 20260509081603 | 21 | 92 | 3.2 | 6.4 | 0.00 | 0.00 | 0.00 | 90 | 1009.8 |
| 20260509081514 | 21 | 96 | 1.6 | 6.4 | 0.00 | 0.00 | 0.00 | 90 | 1009.8 |
| 20260509081359 | 21 | 120 | 0.0 | 4.8 | 0.00 | 0.00 | 0.00 | 90 | 1009.8 |
| 20260509081304 | 21 | 120 | 1.6 | 4.8 | 0.00 | 0.00 | 0.00 | 90 | 1010.0 |
| 20260509081209 | 21 | 120 | 1.6 | 4.8 | 0.00 | 0.00 | 0.00 | 90 | 1010.0 |
| 20260509081058 | 21 | 120 | 1.6 | 4.8 | 0.00 | 0.00 | 0.00 | 90 | 1010.0 |
| 20260509081030 | 21 | 120 | 1.6 | 4.8 | 0.00 | 0.00 | 0.00 | 90 | 1010.0 |
| 20260509080914 | 21 | 120 | 0.0 | 3.2 | 0.00 | 0.00 | 0.00 | 90 | 1010.0 |
| 20260509080758 | 21 | 120 | 0.0 | 3.2 | 0.00 | 0.00 | 0.00 | 90 | 1010.0 |
| 20260509080711 | 21 | 120 | 0.0 | 3.2 | 0.00 | 0.00 | 0.00 | 90 | 1010.0 |
| 20260509080615 | 21 | 120 | 0.0 | 3.2 | 0.00 | 0.00 | 0.00 | 90 | 1010.0 |
| 20260509080503 | 21 | 120 | 0.0 | 3.2 | 0.00 | 0.00 | 0.00 | 90 | 1009.9 |
| 20260509080408 | 21 | 120 | 0.0 | 3.2 | 0.00 | 0.00 | 0.00 | 90 | 1009.9 |
| 20260509080321 | 21 | 120 | 0.0 | 3.2 | 0.00 | 0.00 | 0.00 | 90 | 1009.8 |
| 20260509080157 | 21 | 120 | 1.6 | 6.4 | 0.00 | 0.00 | 0.00 | 90 | 1009.8 |
| 20260509080108 | 21 | 120 | 1.6 | 6.4 | 0.00 | 0.00 | 0.00 | 90 | 1009.7 |
| 20260509080034 | 21 | 120 | 0.0 | 6.4 | 0.00 | 0.00 | 0.00 | 90 | 1009.6 |
| 20260509075901 | 21 | 120 | 1.6 | 6.4 | 0.00 | 0.00 | 0.00 | 90 | 1009.6 |
| 20260509075834 | 21 | 120 | 1.6 | 6.4 | 0.00 | 0.00 | 0.00 | 90 | 1009.6 |
| 20260509075657 | 21 | 119 | 0.0 | 6.4 | 0.00 | 0.00 | 0.00 | 90 | 1009.5 |
| 20260509075602 | 21 | 119 | 1.6 | 6.4 | 0.00 | 0.00 | 0.00 | 90 | 1009.5 |
| 20260509075535 | 21 | 119 | 1.6 | 6.4 | 0.00 | 0.00 | 0.00 | 90 | 1009.4 |
| 20260509075358 | 21 | 119 | 3.2 | 6.4 | 0.00 | 0.00 | 0.00 | 89 | 1009.4 |
| 20260509075308 | 21 | 119 | 1.6 | 6.4 | 0.00 | 0.00 | 0.00 | 89 | 1009.4 |
| 20260509075219 | 21 | 119 | 1.6 | 4.8 | 0.00 | 0.00 | 0.00 | 89 | 1009.4 |
| 20260509075124 | 21 | 119 | 1.6 | 6.4 | 0.00 | 0.00 | 0.00 | 89 | 1009.4 |
| 20260509075008 | 21 | 119 | 0.0 | 6.4 | 0.00 | 0.00 | 0.00 | 89 | 1009.5 |
| 20260509074920 | 21 | 119 | 0.0 | 6.4 | 0.00 | 0.00 | 0.00 | 89 | 1009.5 |
| 20260509074804 | 21 | 119 | 0.0 | 6.4 | 0.00 | 0.00 | 0.00 | 89 | 1009.5 |
| 20260509074708 | 21 | 119 | 0.0 | 6.4 | 0.00 | 0.00 | 0.00 | 89 | 1009.5 |
| 20260509074601 | 21 | 119 | 0.0 | 6.4 | 0.00 | 0.00 | 0.00 | 89 | 1009.5 |
| 20260509074504 | 21 | 119 | 1.6 | 6.4 | 0.00 | 0.00 | 0.00 | 89 | 1009.4 |
| 20260509074409 | 21 | 119 | 3.2 | 6.4 | 0.00 | 0.00 | 0.00 | 89 | 1009.4 |
| 20260509074320 | 21 | 119 | 4.8 | 6.4 | 0.00 | 0.00 | 0.00 | 89 | 1009.3 |
| 20260509074204 | 21 | 122 | 3.2 | 6.4 | 0.00 | 0.00 | 0.00 | 89 | 1009.4 |
| 20260509074109 | 21 | 128 | 1.6 | 6.4 | 0.00 | 0.00 | 0.00 | 89 | 1009.4 |
| 20260509073957 | 21 | 128 | 1.6 | 6.4 | 0.00 | 0.00 | 0.00 | 89 | 1009.4 |
| 20260509073931 | 21 | 130 | 1.6 | 6.4 | 0.00 | 0.00 | 0.00 | 89 | 1009.4 |
| 20260509073815 | 21 | 130 | 3.2 | 6.4 | 0.00 | 0.00 | 0.00 | 89 | 1009.5 |
| 20260509073729 | 21 | 130 | 3.2 | 6.4 | 0.00 | 0.00 | 0.00 | 89 | 1009.5 |
| 20260509073631 | 22 | 130 | 3.2 | 6.4 | 0.00 | 0.00 | 0.00 | 89 | 1009.6 |
| 20260509073542 | 22 | 130 | 3.2 | 6.4 | 0.00 | 0.00 | 0.00 | 89 | 1009.4 |
| 20260509073405 | 22 | 145 | 1.6 | 4.8 | 0.00 | 0.00 | 0.00 | 89 | 1009.5 |
| 20260509073314 | 21 | 150 | 0.0 | 4.8 | 0.00 | 0.00 | 0.00 | 89 | 1009.5 |
| 20260509073159 | 22 | 150 | 0.0 | 4.8 | 0.00 | 0.00 | 0.00 | 89 | 1009.5 |
| 20260509073104 | 22 | 150 | 0.0 | 4.8 | 0.00 | 0.00 | 0.00 | 89 | 1009.4 |
| 20260509073015 | 22 | 150 | 1.6 | 4.8 | 0.00 | 0.00 | 0.00 | 89 | 1009.4 |
| 20260509072859 | 22 | 150 | 1.6 | 4.8 | 0.00 | 0.00 | 0.00 | 89 | 1009.5 |
| 20260509072805 | 22 | 150 | 0.0 | 4.8 | 0.00 | 0.00 | 0.00 | 89 | 1009.4 |